<?xml version="1.0" encoding="UTF-8" standalone="no" ?>
<gpx xmlns="http://www.topografix.com/GPX/1/1" xmlns:xsi="http://www.w3.org/2001/XMLSchema-instance" xsi:schemaLocation="http://www.topografix.com/GPX/1/1 http://www.topografix.com/GPX/1/1/gpx.xsd" version="1.1" creator="VisuGPX - https://www.visugpx.com">
  <metadata>
    <name>2022-07-03 depuis Mittlach</name>
  </metadata>
  <trk>
    <name><![CDATA[2022-07-03 depuis Mittlach]]></name>
    <extensions>
      <line xmlns="http://www.topografix.com/GPX/gpx_style/0/2">
        <color>0000FF</color>
        <opacity>0.59</opacity>
        <width>6.0</width>
      </line>
    </extensions>
    <trkseg>
      <trkpt lat="48.00464" lon="7.0165">
        <ele>589.9</ele>
        <time>2022-07-03T07:51:02.000Z</time>
      </trkpt>
      <trkpt lat="48.0046" lon="7.01632">
        <ele>590.7</ele>
        <time>2022-07-03T07:51:12.000Z</time>
      </trkpt>
      <trkpt lat="48.00457" lon="7.01629">
        <ele>590.9</ele>
        <time>2022-07-03T07:51:22.000Z</time>
      </trkpt>
      <trkpt lat="48.00449" lon="7.01632">
        <ele>590.9</ele>
        <time>2022-07-03T07:51:33.000Z</time>
      </trkpt>
      <trkpt lat="48.00456" lon="7.01636">
        <ele>590.7</ele>
        <time>2022-07-03T07:51:43.000Z</time>
      </trkpt>
      <trkpt lat="48.00452" lon="7.01637">
        <ele>590.8</ele>
        <time>2022-07-03T07:51:53.000Z</time>
      </trkpt>
      <trkpt lat="48.00451" lon="7.01645">
        <ele>590.5</ele>
        <time>2022-07-03T07:52:03.000Z</time>
      </trkpt>
      <trkpt lat="48.00452" lon="7.01643">
        <ele>590.6</ele>
        <time>2022-07-03T07:52:13.000Z</time>
      </trkpt>
      <trkpt lat="48.0045" lon="7.01644">
        <ele>590.6</ele>
        <time>2022-07-03T07:52:27.000Z</time>
      </trkpt>
      <trkpt lat="48.00438" lon="7.01647">
        <ele>593.8</ele>
        <time>2022-07-03T07:52:37.000Z</time>
      </trkpt>
      <trkpt lat="48.00438" lon="7.01657">
        <ele>593.5</ele>
        <time>2022-07-03T07:52:46.779Z</time>
      </trkpt>
      <trkpt lat="48.00439" lon="7.01663">
        <ele>593.1</ele>
        <time>2022-07-03T07:52:56.000Z</time>
      </trkpt>
      <trkpt lat="48.00443" lon="7.01669">
        <ele>591.1</ele>
        <time>2022-07-03T07:53:05.658Z</time>
      </trkpt>
      <trkpt lat="48.00447" lon="7.01687">
        <ele>589.9</ele>
        <time>2022-07-03T07:53:15.000Z</time>
      </trkpt>
      <trkpt lat="48.0045" lon="7.01705">
        <ele>590.6</ele>
        <time>2022-07-03T07:53:24.398Z</time>
      </trkpt>
      <trkpt lat="48.00457" lon="7.0172">
        <ele>589.6</ele>
        <time>2022-07-03T07:53:33.704Z</time>
      </trkpt>
      <trkpt lat="48.00461" lon="7.01737">
        <ele>588.5</ele>
        <time>2022-07-03T07:53:42.980Z</time>
      </trkpt>
      <trkpt lat="48.00465" lon="7.01753">
        <ele>587.3</ele>
        <time>2022-07-03T07:53:52.000Z</time>
      </trkpt>
      <trkpt lat="48.0047" lon="7.01771">
        <ele>583.9</ele>
        <time>2022-07-03T07:54:02.000Z</time>
      </trkpt>
      <trkpt lat="48.00475" lon="7.01783">
        <ele>582.5</ele>
        <time>2022-07-03T07:54:11.458Z</time>
      </trkpt>
      <trkpt lat="48.00475" lon="7.01796">
        <ele>582.8</ele>
        <time>2022-07-03T07:54:20.838Z</time>
      </trkpt>
      <trkpt lat="48.00476" lon="7.01809">
        <ele>583.2</ele>
        <time>2022-07-03T07:54:30.971Z</time>
      </trkpt>
      <trkpt lat="48.00485" lon="7.0182">
        <ele>582.8</ele>
        <time>2022-07-03T07:54:40.000Z</time>
      </trkpt>
      <trkpt lat="48.00487" lon="7.01841">
        <ele>582.2</ele>
        <time>2022-07-03T07:54:49.677Z</time>
      </trkpt>
      <trkpt lat="48.00493" lon="7.01859">
        <ele>579.6</ele>
        <time>2022-07-03T07:54:58.781Z</time>
      </trkpt>
      <trkpt lat="48.00493" lon="7.01886">
        <ele>579.2</ele>
        <time>2022-07-03T07:55:08.700Z</time>
      </trkpt>
      <trkpt lat="48.00499" lon="7.01902">
        <ele>576.8</ele>
        <time>2022-07-03T07:55:17.720Z</time>
      </trkpt>
      <trkpt lat="48.00508" lon="7.01915">
        <ele>576.7</ele>
        <time>2022-07-03T07:55:27.056Z</time>
      </trkpt>
      <trkpt lat="48.00512" lon="7.0193">
        <ele>576</ele>
        <time>2022-07-03T07:55:36.760Z</time>
      </trkpt>
      <trkpt lat="48.0051" lon="7.01951">
        <ele>575.5</ele>
        <time>2022-07-03T07:55:46.946Z</time>
      </trkpt>
      <trkpt lat="48.00518" lon="7.01966">
        <ele>574</ele>
        <time>2022-07-03T07:55:55.970Z</time>
      </trkpt>
      <trkpt lat="48.00522" lon="7.01976">
        <ele>572.9</ele>
        <time>2022-07-03T07:56:04.999Z</time>
      </trkpt>
      <trkpt lat="48.00521" lon="7.01994">
        <ele>572.5</ele>
        <time>2022-07-03T07:56:14.000Z</time>
      </trkpt>
      <trkpt lat="48.00522" lon="7.02019">
        <ele>571.7</ele>
        <time>2022-07-03T07:56:23.679Z</time>
      </trkpt>
      <trkpt lat="48.0052" lon="7.02039">
        <ele>571.5</ele>
        <time>2022-07-03T07:56:32.881Z</time>
      </trkpt>
      <trkpt lat="48.00518" lon="7.02057">
        <ele>571.3</ele>
        <time>2022-07-03T07:56:42.799Z</time>
      </trkpt>
      <trkpt lat="48.00515" lon="7.02069">
        <ele>571.5</ele>
        <time>2022-07-03T07:56:52.096Z</time>
      </trkpt>
      <trkpt lat="48.00515" lon="7.02082">
        <ele>570.9</ele>
        <time>2022-07-03T07:57:02.000Z</time>
      </trkpt>
      <trkpt lat="48.00512" lon="7.02095">
        <ele>570.8</ele>
        <time>2022-07-03T07:57:11.638Z</time>
      </trkpt>
      <trkpt lat="48.00509" lon="7.02112">
        <ele>570.4</ele>
        <time>2022-07-03T07:57:20.883Z</time>
      </trkpt>
      <trkpt lat="48.00503" lon="7.0213">
        <ele>569.6</ele>
        <time>2022-07-03T07:57:30.319Z</time>
      </trkpt>
      <trkpt lat="48.00497" lon="7.0215">
        <ele>568.4</ele>
        <time>2022-07-03T07:57:40.000Z</time>
      </trkpt>
      <trkpt lat="48.00492" lon="7.0216">
        <ele>567.7</ele>
        <time>2022-07-03T07:57:49.540Z</time>
      </trkpt>
      <trkpt lat="48.00484" lon="7.02168">
        <ele>567.7</ele>
        <time>2022-07-03T07:57:58.598Z</time>
      </trkpt>
      <trkpt lat="48.00477" lon="7.02175">
        <ele>568</ele>
        <time>2022-07-03T07:58:07.858Z</time>
      </trkpt>
      <trkpt lat="48.00464" lon="7.02183">
        <ele>569.1</ele>
        <time>2022-07-03T07:58:17.000Z</time>
      </trkpt>
      <trkpt lat="48.00453" lon="7.02191">
        <ele>567.6</ele>
        <time>2022-07-03T07:58:26.477Z</time>
      </trkpt>
      <trkpt lat="48.0044" lon="7.02202">
        <ele>566.2</ele>
        <time>2022-07-03T07:58:35.876Z</time>
      </trkpt>
      <trkpt lat="48.00429" lon="7.02217">
        <ele>565.4</ele>
        <time>2022-07-03T07:58:45.840Z</time>
      </trkpt>
      <trkpt lat="48.0042" lon="7.02232">
        <ele>563.9</ele>
        <time>2022-07-03T07:58:55.018Z</time>
      </trkpt>
      <trkpt lat="48.00414" lon="7.02247">
        <ele>562.8</ele>
        <time>2022-07-03T07:59:04.541Z</time>
      </trkpt>
      <trkpt lat="48.00408" lon="7.02256">
        <ele>562.8</ele>
        <time>2022-07-03T07:59:14.000Z</time>
      </trkpt>
      <trkpt lat="48.00399" lon="7.02269">
        <ele>562.5</ele>
        <time>2022-07-03T07:59:23.678Z</time>
      </trkpt>
      <trkpt lat="48.00388" lon="7.02284">
        <ele>561.9</ele>
        <time>2022-07-03T07:59:32.966Z</time>
      </trkpt>
      <trkpt lat="48.00382" lon="7.02295">
        <ele>563.2</ele>
        <time>2022-07-03T07:59:42.000Z</time>
      </trkpt>
      <trkpt lat="48.0038" lon="7.02308">
        <ele>563.1</ele>
        <time>2022-07-03T07:59:51.800Z</time>
      </trkpt>
      <trkpt lat="48.00378" lon="7.02321">
        <ele>562.7</ele>
        <time>2022-07-03T08:00:00.973Z</time>
      </trkpt>
      <trkpt lat="48.00376" lon="7.0234">
        <ele>561.9</ele>
        <time>2022-07-03T08:00:10.798Z</time>
      </trkpt>
      <trkpt lat="48.00373" lon="7.02355">
        <ele>561.3</ele>
        <time>2022-07-03T08:00:19.838Z</time>
      </trkpt>
      <trkpt lat="48.00365" lon="7.02376">
        <ele>560.9</ele>
        <time>2022-07-03T08:00:28.880Z</time>
      </trkpt>
      <trkpt lat="48.00361" lon="7.02393">
        <ele>560</ele>
        <time>2022-07-03T08:00:39.018Z</time>
      </trkpt>
      <trkpt lat="48.00354" lon="7.02414">
        <ele>561.1</ele>
        <time>2022-07-03T08:00:48.580Z</time>
      </trkpt>
      <trkpt lat="48.00349" lon="7.02429">
        <ele>561.3</ele>
        <time>2022-07-03T08:00:57.759Z</time>
      </trkpt>
      <trkpt lat="48.00344" lon="7.02445">
        <ele>561.6</ele>
        <time>2022-07-03T08:01:06.970Z</time>
      </trkpt>
      <trkpt lat="48.00345" lon="7.02456">
        <ele>561.2</ele>
        <time>2022-07-03T08:01:16.578Z</time>
      </trkpt>
      <trkpt lat="48.00353" lon="7.02475">
        <ele>559.4</ele>
        <time>2022-07-03T08:01:25.739Z</time>
      </trkpt>
      <trkpt lat="48.00348" lon="7.02505">
        <ele>560.6</ele>
        <time>2022-07-03T08:01:34.965Z</time>
      </trkpt>
      <trkpt lat="48.00347" lon="7.02529">
        <ele>561.7</ele>
        <time>2022-07-03T08:01:44.019Z</time>
      </trkpt>
      <trkpt lat="48.00351" lon="7.02545">
        <ele>561</ele>
        <time>2022-07-03T08:01:53.601Z</time>
      </trkpt>
      <trkpt lat="48.00355" lon="7.02561">
        <ele>560.4</ele>
        <time>2022-07-03T08:02:02.681Z</time>
      </trkpt>
      <trkpt lat="48.00361" lon="7.0258">
        <ele>558.9</ele>
        <time>2022-07-03T08:02:12.000Z</time>
      </trkpt>
      <trkpt lat="48.00363" lon="7.02592">
        <ele>558.9</ele>
        <time>2022-07-03T08:02:21.862Z</time>
      </trkpt>
      <trkpt lat="48.00369" lon="7.02602">
        <ele>557.7</ele>
        <time>2022-07-03T08:02:31.000Z</time>
      </trkpt>
      <trkpt lat="48.00369" lon="7.02625">
        <ele>558.8</ele>
        <time>2022-07-03T08:02:41.000Z</time>
      </trkpt>
      <trkpt lat="48.00371" lon="7.02639">
        <ele>559.3</ele>
        <time>2022-07-03T08:02:50.517Z</time>
      </trkpt>
      <trkpt lat="48.00374" lon="7.02652">
        <ele>559.3</ele>
        <time>2022-07-03T08:02:59.979Z</time>
      </trkpt>
      <trkpt lat="48.00377" lon="7.02668">
        <ele>559.2</ele>
        <time>2022-07-03T08:03:09.000Z</time>
      </trkpt>
      <trkpt lat="48.00378" lon="7.02688">
        <ele>559.2</ele>
        <time>2022-07-03T08:03:18.578Z</time>
      </trkpt>
      <trkpt lat="48.00378" lon="7.02707">
        <ele>559.3</ele>
        <time>2022-07-03T08:03:27.680Z</time>
      </trkpt>
      <trkpt lat="48.00381" lon="7.02718">
        <ele>558.9</ele>
        <time>2022-07-03T08:03:36.952Z</time>
      </trkpt>
      <trkpt lat="48.00383" lon="7.0273">
        <ele>558.3</ele>
        <time>2022-07-03T08:03:46.037Z</time>
      </trkpt>
      <trkpt lat="48.00384" lon="7.02746">
        <ele>557.5</ele>
        <time>2022-07-03T08:03:55.357Z</time>
      </trkpt>
      <trkpt lat="48.00377" lon="7.02768">
        <ele>556.2</ele>
        <time>2022-07-03T08:04:04.579Z</time>
      </trkpt>
      <trkpt lat="48.0037" lon="7.028">
        <ele>554.4</ele>
        <time>2022-07-03T08:04:14.000Z</time>
      </trkpt>
      <trkpt lat="48.00371" lon="7.02821">
        <ele>552</ele>
        <time>2022-07-03T08:04:23.969Z</time>
      </trkpt>
      <trkpt lat="48.00371" lon="7.02829">
        <ele>550.9</ele>
        <time>2022-07-03T08:04:33.000Z</time>
      </trkpt>
      <trkpt lat="48.00367" lon="7.02839">
        <ele>550</ele>
        <time>2022-07-03T08:04:42.658Z</time>
      </trkpt>
      <trkpt lat="48.00362" lon="7.02858">
        <ele>548.3</ele>
        <time>2022-07-03T08:04:51.840Z</time>
      </trkpt>
      <trkpt lat="48.00361" lon="7.02881">
        <ele>546.6</ele>
        <time>2022-07-03T08:05:01.000Z</time>
      </trkpt>
      <trkpt lat="48.00365" lon="7.02894">
        <ele>545.5</ele>
        <time>2022-07-03T08:05:10.458Z</time>
      </trkpt>
      <trkpt lat="48.00369" lon="7.02912">
        <ele>544.3</ele>
        <time>2022-07-03T08:05:19.838Z</time>
      </trkpt>
      <trkpt lat="48.00372" lon="7.0293">
        <ele>542.7</ele>
        <time>2022-07-03T08:05:29.000Z</time>
      </trkpt>
      <trkpt lat="48.00379" lon="7.02943">
        <ele>541.8</ele>
        <time>2022-07-03T08:05:38.696Z</time>
      </trkpt>
      <trkpt lat="48.00382" lon="7.0296">
        <ele>540.8</ele>
        <time>2022-07-03T08:05:47.840Z</time>
      </trkpt>
      <trkpt lat="48.00383" lon="7.02978">
        <ele>539.6</ele>
        <time>2022-07-03T08:05:57.000Z</time>
      </trkpt>
      <trkpt lat="48.00384" lon="7.02997">
        <ele>538.4</ele>
        <time>2022-07-03T08:06:06.016Z</time>
      </trkpt>
      <trkpt lat="48.00391" lon="7.0301">
        <ele>537.6</ele>
        <time>2022-07-03T08:06:15.820Z</time>
      </trkpt>
      <trkpt lat="48.00401" lon="7.03017">
        <ele>537.5</ele>
        <time>2022-07-03T08:06:25.000Z</time>
      </trkpt>
      <trkpt lat="48.00397" lon="7.03027">
        <ele>537.3</ele>
        <time>2022-07-03T08:06:34.560Z</time>
      </trkpt>
      <trkpt lat="48.00394" lon="7.03041">
        <ele>536.7</ele>
        <time>2022-07-03T08:06:43.776Z</time>
      </trkpt>
      <trkpt lat="48.00395" lon="7.03053">
        <ele>536.3</ele>
        <time>2022-07-03T08:06:53.000Z</time>
      </trkpt>
      <trkpt lat="48.00395" lon="7.03049">
        <ele>536.5</ele>
        <time>2022-07-03T08:07:03.000Z</time>
      </trkpt>
      <trkpt lat="48.00404" lon="7.03049">
        <ele>536.8</ele>
        <time>2022-07-03T08:07:12.742Z</time>
      </trkpt>
      <trkpt lat="48.00406" lon="7.03066">
        <ele>536.5</ele>
        <time>2022-07-03T08:07:22.000Z</time>
      </trkpt>
      <trkpt lat="48.00408" lon="7.03082">
        <ele>536.4</ele>
        <time>2022-07-03T08:07:31.681Z</time>
      </trkpt>
      <trkpt lat="48.00407" lon="7.03098">
        <ele>536.1</ele>
        <time>2022-07-03T08:07:40.977Z</time>
      </trkpt>
      <trkpt lat="48.00402" lon="7.03118">
        <ele>535.3</ele>
        <time>2022-07-03T08:07:50.059Z</time>
      </trkpt>
      <trkpt lat="48.00403" lon="7.0314">
        <ele>534.9</ele>
        <time>2022-07-03T08:07:59.901Z</time>
      </trkpt>
      <trkpt lat="48.00405" lon="7.03155">
        <ele>534.6</ele>
        <time>2022-07-03T08:08:09.059Z</time>
      </trkpt>
      <trkpt lat="48.00409" lon="7.0317">
        <ele>534.4</ele>
        <time>2022-07-03T08:08:18.618Z</time>
      </trkpt>
      <trkpt lat="48.00408" lon="7.03187">
        <ele>534.4</ele>
        <time>2022-07-03T08:08:27.899Z</time>
      </trkpt>
      <trkpt lat="48.0041" lon="7.03206">
        <ele>534.1</ele>
        <time>2022-07-03T08:08:37.858Z</time>
      </trkpt>
      <trkpt lat="48.00414" lon="7.0322">
        <ele>533.9</ele>
        <time>2022-07-03T08:08:47.055Z</time>
      </trkpt>
      <trkpt lat="48.00414" lon="7.03237">
        <ele>533.3</ele>
        <time>2022-07-03T08:08:57.000Z</time>
      </trkpt>
      <trkpt lat="48.00419" lon="7.03253">
        <ele>533</ele>
        <time>2022-07-03T08:09:06.660Z</time>
      </trkpt>
      <trkpt lat="48.0042" lon="7.0327">
        <ele>532.4</ele>
        <time>2022-07-03T08:09:15.970Z</time>
      </trkpt>
      <trkpt lat="48.00421" lon="7.03291">
        <ele>531.6</ele>
        <time>2022-07-03T08:09:25.000Z</time>
      </trkpt>
      <trkpt lat="48.00422" lon="7.03311">
        <ele>530.7</ele>
        <time>2022-07-03T08:09:34.562Z</time>
      </trkpt>
      <trkpt lat="48.0043" lon="7.03322">
        <ele>530.4</ele>
        <time>2022-07-03T08:09:43.979Z</time>
      </trkpt>
      <trkpt lat="48.00435" lon="7.03337">
        <ele>530.1</ele>
        <time>2022-07-03T08:09:53.000Z</time>
      </trkpt>
      <trkpt lat="48.0044" lon="7.0335">
        <ele>529.3</ele>
        <time>2022-07-03T08:10:02.559Z</time>
      </trkpt>
      <trkpt lat="48.00449" lon="7.03359">
        <ele>528.5</ele>
        <time>2022-07-03T08:10:12.061Z</time>
      </trkpt>
      <trkpt lat="48.0045" lon="7.03364">
        <ele>528.5</ele>
        <time>2022-07-03T08:10:22.000Z</time>
      </trkpt>
      <trkpt lat="48.00451" lon="7.03366">
        <ele>528.6</ele>
        <time>2022-07-03T08:10:32.000Z</time>
      </trkpt>
      <trkpt lat="48.00454" lon="7.03369">
        <ele>528.8</ele>
        <time>2022-07-03T08:11:25.000Z</time>
      </trkpt>
      <trkpt lat="48.00464" lon="7.03379">
        <ele>529.1</ele>
        <time>2022-07-03T08:11:34.882Z</time>
      </trkpt>
      <trkpt lat="48.0047" lon="7.03391">
        <ele>528.9</ele>
        <time>2022-07-03T08:11:44.000Z</time>
      </trkpt>
      <trkpt lat="48.00475" lon="7.03402">
        <ele>528.5</ele>
        <time>2022-07-03T08:11:53.517Z</time>
      </trkpt>
      <trkpt lat="48.00482" lon="7.03415">
        <ele>528.1</ele>
        <time>2022-07-03T08:12:02.800Z</time>
      </trkpt>
      <trkpt lat="48.00491" lon="7.03425">
        <ele>527.7</ele>
        <time>2022-07-03T08:12:12.040Z</time>
      </trkpt>
      <trkpt lat="48.00496" lon="7.03435">
        <ele>527.3</ele>
        <time>2022-07-03T08:12:21.758Z</time>
      </trkpt>
      <trkpt lat="48.00503" lon="7.03444">
        <ele>527.1</ele>
        <time>2022-07-03T08:12:30.837Z</time>
      </trkpt>
      <trkpt lat="48.00512" lon="7.03456">
        <ele>527.1</ele>
        <time>2022-07-03T08:12:40.000Z</time>
      </trkpt>
      <trkpt lat="48.00524" lon="7.03464">
        <ele>526.7</ele>
        <time>2022-07-03T08:12:49.618Z</time>
      </trkpt>
      <trkpt lat="48.00532" lon="7.03472">
        <ele>527</ele>
        <time>2022-07-03T08:12:59.000Z</time>
      </trkpt>
      <trkpt lat="48.00539" lon="7.03485">
        <ele>528.1</ele>
        <time>2022-07-03T08:13:08.598Z</time>
      </trkpt>
      <trkpt lat="48.00546" lon="7.03498">
        <ele>528.1</ele>
        <time>2022-07-03T08:13:17.999Z</time>
      </trkpt>
      <trkpt lat="48.00553" lon="7.03514">
        <ele>526.9</ele>
        <time>2022-07-03T08:13:27.561Z</time>
      </trkpt>
      <trkpt lat="48.00559" lon="7.03527">
        <ele>526</ele>
        <time>2022-07-03T08:13:37.000Z</time>
      </trkpt>
      <trkpt lat="48.00565" lon="7.03538">
        <ele>527.1</ele>
        <time>2022-07-03T08:13:47.080Z</time>
      </trkpt>
      <trkpt lat="48.00571" lon="7.03556">
        <ele>527.2</ele>
        <time>2022-07-03T08:13:56.326Z</time>
      </trkpt>
      <trkpt lat="48.00579" lon="7.0357">
        <ele>526.5</ele>
        <time>2022-07-03T08:14:05.660Z</time>
      </trkpt>
      <trkpt lat="48.00585" lon="7.03587">
        <ele>525.1</ele>
        <time>2022-07-03T08:14:14.777Z</time>
      </trkpt>
      <trkpt lat="48.00589" lon="7.03606">
        <ele>524.7</ele>
        <time>2022-07-03T08:14:24.000Z</time>
      </trkpt>
      <trkpt lat="48.00592" lon="7.0362">
        <ele>524.5</ele>
        <time>2022-07-03T08:14:33.062Z</time>
      </trkpt>
      <trkpt lat="48.006" lon="7.03634">
        <ele>524.7</ele>
        <time>2022-07-03T08:14:42.899Z</time>
      </trkpt>
      <trkpt lat="48.00609" lon="7.03643">
        <ele>524.8</ele>
        <time>2022-07-03T08:14:51.972Z</time>
      </trkpt>
      <trkpt lat="48.00619" lon="7.03654">
        <ele>525</ele>
        <time>2022-07-03T08:15:01.040Z</time>
      </trkpt>
      <trkpt lat="48.00625" lon="7.0367">
        <ele>524.8</ele>
        <time>2022-07-03T08:15:10.582Z</time>
      </trkpt>
      <trkpt lat="48.00635" lon="7.03682">
        <ele>524.2</ele>
        <time>2022-07-03T08:15:19.701Z</time>
      </trkpt>
      <trkpt lat="48.00646" lon="7.03692">
        <ele>523.5</ele>
        <time>2022-07-03T08:15:29.497Z</time>
      </trkpt>
      <trkpt lat="48.00656" lon="7.03694">
        <ele>523.6</ele>
        <time>2022-07-03T08:15:38.969Z</time>
      </trkpt>
      <trkpt lat="48.00664" lon="7.03703">
        <ele>523.9</ele>
        <time>2022-07-03T08:15:48.975Z</time>
      </trkpt>
      <trkpt lat="48.0067" lon="7.03716">
        <ele>524.7</ele>
        <time>2022-07-03T08:15:58.075Z</time>
      </trkpt>
      <trkpt lat="48.0067" lon="7.03729">
        <ele>525.7</ele>
        <time>2022-07-03T08:16:07.777Z</time>
      </trkpt>
      <trkpt lat="48.00666" lon="7.03747">
        <ele>526.6</ele>
        <time>2022-07-03T08:16:17.058Z</time>
      </trkpt>
      <trkpt lat="48.00665" lon="7.03762">
        <ele>527.5</ele>
        <time>2022-07-03T08:16:26.740Z</time>
      </trkpt>
      <trkpt lat="48.00666" lon="7.03776">
        <ele>528.7</ele>
        <time>2022-07-03T08:16:36.000Z</time>
      </trkpt>
      <trkpt lat="48.00672" lon="7.03791">
        <ele>528.4</ele>
        <time>2022-07-03T08:16:45.997Z</time>
      </trkpt>
      <trkpt lat="48.00681" lon="7.03801">
        <ele>528.3</ele>
        <time>2022-07-03T08:16:55.620Z</time>
      </trkpt>
      <trkpt lat="48.0069" lon="7.03808">
        <ele>528.5</ele>
        <time>2022-07-03T08:17:05.000Z</time>
      </trkpt>
      <trkpt lat="48.007" lon="7.0382">
        <ele>528.8</ele>
        <time>2022-07-03T08:17:14.776Z</time>
      </trkpt>
      <trkpt lat="48.00704" lon="7.03831">
        <ele>528.9</ele>
        <time>2022-07-03T08:17:23.980Z</time>
      </trkpt>
      <trkpt lat="48.00707" lon="7.03849">
        <ele>528.5</ele>
        <time>2022-07-03T08:17:33.000Z</time>
      </trkpt>
      <trkpt lat="48.00712" lon="7.03851">
        <ele>528.9</ele>
        <time>2022-07-03T08:17:42.780Z</time>
      </trkpt>
      <trkpt lat="48.00719" lon="7.03841">
        <ele>530.6</ele>
        <time>2022-07-03T08:17:52.000Z</time>
      </trkpt>
      <trkpt lat="48.00727" lon="7.03825">
        <ele>531.9</ele>
        <time>2022-07-03T08:18:01.559Z</time>
      </trkpt>
      <trkpt lat="48.00729" lon="7.03813">
        <ele>532.4</ele>
        <time>2022-07-03T08:18:10.982Z</time>
      </trkpt>
      <trkpt lat="48.00732" lon="7.03801">
        <ele>533.4</ele>
        <time>2022-07-03T08:18:20.000Z</time>
      </trkpt>
      <trkpt lat="48.00739" lon="7.03783">
        <ele>536.3</ele>
        <time>2022-07-03T08:18:29.637Z</time>
      </trkpt>
      <trkpt lat="48.00746" lon="7.0378">
        <ele>537.4</ele>
        <time>2022-07-03T08:18:38.758Z</time>
      </trkpt>
      <trkpt lat="48.00753" lon="7.03774">
        <ele>538.7</ele>
        <time>2022-07-03T08:18:48.000Z</time>
      </trkpt>
      <trkpt lat="48.00764" lon="7.03765">
        <ele>539.8</ele>
        <time>2022-07-03T08:18:57.558Z</time>
      </trkpt>
      <trkpt lat="48.00773" lon="7.03761">
        <ele>540.2</ele>
        <time>2022-07-03T08:19:06.582Z</time>
      </trkpt>
      <trkpt lat="48.00783" lon="7.03764">
        <ele>540.3</ele>
        <time>2022-07-03T08:19:16.000Z</time>
      </trkpt>
      <trkpt lat="48.00793" lon="7.03766">
        <ele>541.3</ele>
        <time>2022-07-03T08:19:25.457Z</time>
      </trkpt>
      <trkpt lat="48.00806" lon="7.03764">
        <ele>543.5</ele>
        <time>2022-07-03T08:19:34.838Z</time>
      </trkpt>
      <trkpt lat="48.00818" lon="7.03775">
        <ele>541.8</ele>
        <time>2022-07-03T08:19:44.358Z</time>
      </trkpt>
      <trkpt lat="48.0083" lon="7.03777">
        <ele>542</ele>
        <time>2022-07-03T08:19:53.557Z</time>
      </trkpt>
      <trkpt lat="48.00841" lon="7.03778">
        <ele>542.2</ele>
        <time>2022-07-03T08:20:02.741Z</time>
      </trkpt>
      <trkpt lat="48.00852" lon="7.03776">
        <ele>542.8</ele>
        <time>2022-07-03T08:20:12.021Z</time>
      </trkpt>
      <trkpt lat="48.00858" lon="7.03784">
        <ele>542.4</ele>
        <time>2022-07-03T08:20:21.060Z</time>
      </trkpt>
      <trkpt lat="48.00865" lon="7.03787">
        <ele>542.6</ele>
        <time>2022-07-03T08:20:30.995Z</time>
      </trkpt>
      <trkpt lat="48.00872" lon="7.03782">
        <ele>543.7</ele>
        <time>2022-07-03T08:20:40.000Z</time>
      </trkpt>
      <trkpt lat="48.00881" lon="7.03781">
        <ele>544.5</ele>
        <time>2022-07-03T08:20:49.698Z</time>
      </trkpt>
      <trkpt lat="48.00885" lon="7.03783">
        <ele>544.6</ele>
        <time>2022-07-03T08:20:58.739Z</time>
      </trkpt>
      <trkpt lat="48.00891" lon="7.03782">
        <ele>545.2</ele>
        <time>2022-07-03T08:21:08.000Z</time>
      </trkpt>
      <trkpt lat="48.009" lon="7.03781">
        <ele>545.7</ele>
        <time>2022-07-03T08:21:17.719Z</time>
      </trkpt>
      <trkpt lat="48.0091" lon="7.03776">
        <ele>547.6</ele>
        <time>2022-07-03T08:21:26.858Z</time>
      </trkpt>
      <trkpt lat="48.00916" lon="7.03774">
        <ele>548.6</ele>
        <time>2022-07-03T08:21:36.000Z</time>
      </trkpt>
      <trkpt lat="48.00926" lon="7.03778">
        <ele>547.7</ele>
        <time>2022-07-03T08:21:45.459Z</time>
      </trkpt>
      <trkpt lat="48.00934" lon="7.03778">
        <ele>548.1</ele>
        <time>2022-07-03T08:21:54.519Z</time>
      </trkpt>
      <trkpt lat="48.00942" lon="7.03777">
        <ele>549.2</ele>
        <time>2022-07-03T08:22:03.735Z</time>
      </trkpt>
      <trkpt lat="48.00953" lon="7.03774">
        <ele>550.5</ele>
        <time>2022-07-03T08:22:12.761Z</time>
      </trkpt>
      <trkpt lat="48.00961" lon="7.03765">
        <ele>553.7</ele>
        <time>2022-07-03T08:22:21.859Z</time>
      </trkpt>
      <trkpt lat="48.00965" lon="7.03762">
        <ele>555</ele>
        <time>2022-07-03T08:22:31.000Z</time>
      </trkpt>
      <trkpt lat="48.00978" lon="7.03759">
        <ele>555.6</ele>
        <time>2022-07-03T08:22:40.700Z</time>
      </trkpt>
      <trkpt lat="48.00991" lon="7.03755">
        <ele>556.9</ele>
        <time>2022-07-03T08:22:50.000Z</time>
      </trkpt>
      <trkpt lat="48.01" lon="7.03754">
        <ele>556.7</ele>
        <time>2022-07-03T08:23:00.023Z</time>
      </trkpt>
      <trkpt lat="48.01008" lon="7.03751">
        <ele>557.1</ele>
        <time>2022-07-03T08:23:09.502Z</time>
      </trkpt>
      <trkpt lat="48.01021" lon="7.03747">
        <ele>557.5</ele>
        <time>2022-07-03T08:23:19.000Z</time>
      </trkpt>
      <trkpt lat="48.01032" lon="7.03751">
        <ele>555.7</ele>
        <time>2022-07-03T08:23:29.082Z</time>
      </trkpt>
      <trkpt lat="48.01039" lon="7.03745">
        <ele>556.8</ele>
        <time>2022-07-03T08:23:38.278Z</time>
      </trkpt>
      <trkpt lat="48.01051" lon="7.03742">
        <ele>557</ele>
        <time>2022-07-03T08:23:47.860Z</time>
      </trkpt>
      <trkpt lat="48.01061" lon="7.03743">
        <ele>555.8</ele>
        <time>2022-07-03T08:23:57.000Z</time>
      </trkpt>
      <trkpt lat="48.0107" lon="7.03743">
        <ele>554.1</ele>
        <time>2022-07-03T08:24:06.541Z</time>
      </trkpt>
      <trkpt lat="48.01083" lon="7.03737">
        <ele>553.5</ele>
        <time>2022-07-03T08:24:16.000Z</time>
      </trkpt>
      <trkpt lat="48.01094" lon="7.03728">
        <ele>553.9</ele>
        <time>2022-07-03T08:24:25.742Z</time>
      </trkpt>
      <trkpt lat="48.01102" lon="7.03721">
        <ele>553.9</ele>
        <time>2022-07-03T08:24:35.000Z</time>
      </trkpt>
      <trkpt lat="48.01117" lon="7.0371">
        <ele>554.8</ele>
        <time>2022-07-03T08:24:44.080Z</time>
      </trkpt>
      <trkpt lat="48.01131" lon="7.03707">
        <ele>554.4</ele>
        <time>2022-07-03T08:24:54.000Z</time>
      </trkpt>
      <trkpt lat="48.01145" lon="7.03706">
        <ele>554.3</ele>
        <time>2022-07-03T08:25:03.039Z</time>
      </trkpt>
      <trkpt lat="48.01152" lon="7.03695">
        <ele>555</ele>
        <time>2022-07-03T08:25:12.061Z</time>
      </trkpt>
      <trkpt lat="48.01161" lon="7.03693">
        <ele>554.8</ele>
        <time>2022-07-03T08:25:21.536Z</time>
      </trkpt>
      <trkpt lat="48.01169" lon="7.03685">
        <ele>556.4</ele>
        <time>2022-07-03T08:25:30.971Z</time>
      </trkpt>
      <trkpt lat="48.01177" lon="7.03678">
        <ele>557.5</ele>
        <time>2022-07-03T08:25:40.420Z</time>
      </trkpt>
      <trkpt lat="48.01186" lon="7.03669">
        <ele>558.4</ele>
        <time>2022-07-03T08:25:49.620Z</time>
      </trkpt>
      <trkpt lat="48.01196" lon="7.03659">
        <ele>559.1</ele>
        <time>2022-07-03T08:25:59.059Z</time>
      </trkpt>
      <trkpt lat="48.01204" lon="7.03652">
        <ele>560.3</ele>
        <time>2022-07-03T08:26:08.541Z</time>
      </trkpt>
      <trkpt lat="48.01209" lon="7.03642">
        <ele>561.6</ele>
        <time>2022-07-03T08:26:17.759Z</time>
      </trkpt>
      <trkpt lat="48.01214" lon="7.03634">
        <ele>562.3</ele>
        <time>2022-07-03T08:26:27.018Z</time>
      </trkpt>
      <trkpt lat="48.01222" lon="7.03616">
        <ele>562.8</ele>
        <time>2022-07-03T08:26:36.680Z</time>
      </trkpt>
      <trkpt lat="48.01229" lon="7.03606">
        <ele>563.5</ele>
        <time>2022-07-03T08:26:46.000Z</time>
      </trkpt>
      <trkpt lat="48.01235" lon="7.03593">
        <ele>564.2</ele>
        <time>2022-07-03T08:26:55.559Z</time>
      </trkpt>
      <trkpt lat="48.01243" lon="7.03578">
        <ele>564.5</ele>
        <time>2022-07-03T08:27:04.699Z</time>
      </trkpt>
      <trkpt lat="48.01252" lon="7.03563">
        <ele>564.6</ele>
        <time>2022-07-03T08:27:13.981Z</time>
      </trkpt>
      <trkpt lat="48.01257" lon="7.03546">
        <ele>565.2</ele>
        <time>2022-07-03T08:27:23.199Z</time>
      </trkpt>
      <trkpt lat="48.01264" lon="7.03536">
        <ele>565.5</ele>
        <time>2022-07-03T08:27:32.619Z</time>
      </trkpt>
      <trkpt lat="48.01272" lon="7.03522">
        <ele>566.4</ele>
        <time>2022-07-03T08:27:41.966Z</time>
      </trkpt>
      <trkpt lat="48.0128" lon="7.03514">
        <ele>566.9</ele>
        <time>2022-07-03T08:27:51.318Z</time>
      </trkpt>
      <trkpt lat="48.01287" lon="7.03504">
        <ele>567.7</ele>
        <time>2022-07-03T08:28:00.535Z</time>
      </trkpt>
      <trkpt lat="48.01295" lon="7.03494">
        <ele>568.7</ele>
        <time>2022-07-03T08:28:10.000Z</time>
      </trkpt>
      <trkpt lat="48.013" lon="7.03482">
        <ele>570</ele>
        <time>2022-07-03T08:28:19.778Z</time>
      </trkpt>
      <trkpt lat="48.01307" lon="7.03473">
        <ele>570.9</ele>
        <time>2022-07-03T08:28:28.898Z</time>
      </trkpt>
      <trkpt lat="48.01313" lon="7.03465">
        <ele>571.9</ele>
        <time>2022-07-03T08:28:38.019Z</time>
      </trkpt>
      <trkpt lat="48.01319" lon="7.03455">
        <ele>573.2</ele>
        <time>2022-07-03T08:28:47.818Z</time>
      </trkpt>
      <trkpt lat="48.01332" lon="7.03452">
        <ele>573.7</ele>
        <time>2022-07-03T08:28:57.417Z</time>
      </trkpt>
      <trkpt lat="48.01342" lon="7.03443">
        <ele>574.3</ele>
        <time>2022-07-03T08:29:06.978Z</time>
      </trkpt>
      <trkpt lat="48.0135" lon="7.03434">
        <ele>574.6</ele>
        <time>2022-07-03T08:29:16.141Z</time>
      </trkpt>
      <trkpt lat="48.01355" lon="7.03423">
        <ele>575.3</ele>
        <time>2022-07-03T08:29:25.900Z</time>
      </trkpt>
      <trkpt lat="48.01361" lon="7.03412">
        <ele>576</ele>
        <time>2022-07-03T08:29:35.000Z</time>
      </trkpt>
      <trkpt lat="48.01367" lon="7.03398">
        <ele>577.4</ele>
        <time>2022-07-03T08:29:44.778Z</time>
      </trkpt>
      <trkpt lat="48.01373" lon="7.03389">
        <ele>577.9</ele>
        <time>2022-07-03T08:29:54.798Z</time>
      </trkpt>
      <trkpt lat="48.01379" lon="7.03375">
        <ele>578.7</ele>
        <time>2022-07-03T08:30:04.000Z</time>
      </trkpt>
      <trkpt lat="48.01379" lon="7.03361">
        <ele>580.4</ele>
        <time>2022-07-03T08:30:13.295Z</time>
      </trkpt>
      <trkpt lat="48.01382" lon="7.03347">
        <ele>581.3</ele>
        <time>2022-07-03T08:30:22.339Z</time>
      </trkpt>
      <trkpt lat="48.01384" lon="7.03335">
        <ele>582.3</ele>
        <time>2022-07-03T08:30:31.963Z</time>
      </trkpt>
      <trkpt lat="48.01387" lon="7.03317">
        <ele>582.3</ele>
        <time>2022-07-03T08:30:41.480Z</time>
      </trkpt>
      <trkpt lat="48.01383" lon="7.03302">
        <ele>584.8</ele>
        <time>2022-07-03T08:30:50.741Z</time>
      </trkpt>
      <trkpt lat="48.01383" lon="7.03294">
        <ele>586.2</ele>
        <time>2022-07-03T08:30:59.836Z</time>
      </trkpt>
      <trkpt lat="48.01387" lon="7.03288">
        <ele>585.8</ele>
        <time>2022-07-03T08:31:09.000Z</time>
      </trkpt>
      <trkpt lat="48.01392" lon="7.03275">
        <ele>587.3</ele>
        <time>2022-07-03T08:31:18.018Z</time>
      </trkpt>
      <trkpt lat="48.01399" lon="7.03268">
        <ele>588.6</ele>
        <time>2022-07-03T08:31:27.598Z</time>
      </trkpt>
      <trkpt lat="48.01408" lon="7.03263">
        <ele>588.5</ele>
        <time>2022-07-03T08:31:36.779Z</time>
      </trkpt>
      <trkpt lat="48.01416" lon="7.03261">
        <ele>587.4</ele>
        <time>2022-07-03T08:31:46.000Z</time>
      </trkpt>
      <trkpt lat="48.01425" lon="7.03253">
        <ele>588</ele>
        <time>2022-07-03T08:31:55.399Z</time>
      </trkpt>
      <trkpt lat="48.01429" lon="7.03236">
        <ele>590.9</ele>
        <time>2022-07-03T08:32:04.954Z</time>
      </trkpt>
      <trkpt lat="48.01432" lon="7.0322">
        <ele>593.7</ele>
        <time>2022-07-03T08:32:14.578Z</time>
      </trkpt>
      <trkpt lat="48.01437" lon="7.03206">
        <ele>595.4</ele>
        <time>2022-07-03T08:32:23.642Z</time>
      </trkpt>
      <trkpt lat="48.01441" lon="7.03193">
        <ele>596.8</ele>
        <time>2022-07-03T08:32:32.678Z</time>
      </trkpt>
      <trkpt lat="48.01445" lon="7.03184">
        <ele>596.9</ele>
        <time>2022-07-03T08:32:41.899Z</time>
      </trkpt>
      <trkpt lat="48.01449" lon="7.03172">
        <ele>598.5</ele>
        <time>2022-07-03T08:32:51.396Z</time>
      </trkpt>
      <trkpt lat="48.01456" lon="7.03162">
        <ele>599.9</ele>
        <time>2022-07-03T08:33:00.479Z</time>
      </trkpt>
      <trkpt lat="48.01465" lon="7.03158">
        <ele>598.9</ele>
        <time>2022-07-03T08:33:09.842Z</time>
      </trkpt>
      <trkpt lat="48.01473" lon="7.03152">
        <ele>599.3</ele>
        <time>2022-07-03T08:33:19.000Z</time>
      </trkpt>
      <trkpt lat="48.01478" lon="7.03145">
        <ele>600.1</ele>
        <time>2022-07-03T08:33:28.700Z</time>
      </trkpt>
      <trkpt lat="48.0148" lon="7.03138">
        <ele>602</ele>
        <time>2022-07-03T08:33:37.736Z</time>
      </trkpt>
      <trkpt lat="48.01485" lon="7.03127">
        <ele>604.5</ele>
        <time>2022-07-03T08:33:46.967Z</time>
      </trkpt>
      <trkpt lat="48.01492" lon="7.03121">
        <ele>604.1</ele>
        <time>2022-07-03T08:33:56.462Z</time>
      </trkpt>
      <trkpt lat="48.01499" lon="7.03112">
        <ele>605.1</ele>
        <time>2022-07-03T08:34:05.881Z</time>
      </trkpt>
      <trkpt lat="48.01504" lon="7.03107">
        <ele>606.3</ele>
        <time>2022-07-03T08:34:15.059Z</time>
      </trkpt>
      <trkpt lat="48.01516" lon="7.031">
        <ele>608.2</ele>
        <time>2022-07-03T08:34:24.860Z</time>
      </trkpt>
      <trkpt lat="48.0152" lon="7.03103">
        <ele>606.5</ele>
        <time>2022-07-03T08:34:34.000Z</time>
      </trkpt>
      <trkpt lat="48.01528" lon="7.03094">
        <ele>609.1</ele>
        <time>2022-07-03T08:34:44.000Z</time>
      </trkpt>
      <trkpt lat="48.01531" lon="7.03082">
        <ele>612.4</ele>
        <time>2022-07-03T08:34:53.557Z</time>
      </trkpt>
      <trkpt lat="48.01539" lon="7.03073">
        <ele>613.1</ele>
        <time>2022-07-03T08:35:03.000Z</time>
      </trkpt>
      <trkpt lat="48.01549" lon="7.03068">
        <ele>612</ele>
        <time>2022-07-03T08:35:12.879Z</time>
      </trkpt>
      <trkpt lat="48.01553" lon="7.03059">
        <ele>614.4</ele>
        <time>2022-07-03T08:35:22.000Z</time>
      </trkpt>
      <trkpt lat="48.01562" lon="7.03052">
        <ele>615.4</ele>
        <time>2022-07-03T08:35:31.596Z</time>
      </trkpt>
      <trkpt lat="48.0157" lon="7.03046">
        <ele>616.4</ele>
        <time>2022-07-03T08:35:41.000Z</time>
      </trkpt>
      <trkpt lat="48.01579" lon="7.03042">
        <ele>616.3</ele>
        <time>2022-07-03T08:35:50.819Z</time>
      </trkpt>
      <trkpt lat="48.01584" lon="7.03041">
        <ele>616.5</ele>
        <time>2022-07-03T08:36:00.000Z</time>
      </trkpt>
      <trkpt lat="48.01591" lon="7.03038">
        <ele>617.4</ele>
        <time>2022-07-03T08:36:10.000Z</time>
      </trkpt>
      <trkpt lat="48.01601" lon="7.03032">
        <ele>619.7</ele>
        <time>2022-07-03T08:36:19.621Z</time>
      </trkpt>
      <trkpt lat="48.01611" lon="7.03024">
        <ele>622.7</ele>
        <time>2022-07-03T08:36:28.998Z</time>
      </trkpt>
      <trkpt lat="48.01617" lon="7.03027">
        <ele>620.4</ele>
        <time>2022-07-03T08:36:38.000Z</time>
      </trkpt>
      <trkpt lat="48.01627" lon="7.03022">
        <ele>621.1</ele>
        <time>2022-07-03T08:36:47.700Z</time>
      </trkpt>
      <trkpt lat="48.01635" lon="7.03014">
        <ele>623.1</ele>
        <time>2022-07-03T08:36:56.758Z</time>
      </trkpt>
      <trkpt lat="48.01647" lon="7.03008">
        <ele>625</ele>
        <time>2022-07-03T08:37:07.000Z</time>
      </trkpt>
      <trkpt lat="48.01654" lon="7.03008">
        <ele>624.9</ele>
        <time>2022-07-03T08:37:16.520Z</time>
      </trkpt>
      <trkpt lat="48.0166" lon="7.0301">
        <ele>624</ele>
        <time>2022-07-03T08:37:26.000Z</time>
      </trkpt>
      <trkpt lat="48.01669" lon="7.03006">
        <ele>625.3</ele>
        <time>2022-07-03T08:37:35.776Z</time>
      </trkpt>
      <trkpt lat="48.01679" lon="7.03003">
        <ele>625.7</ele>
        <time>2022-07-03T08:37:45.000Z</time>
      </trkpt>
      <trkpt lat="48.01685" lon="7.02996">
        <ele>627.4</ele>
        <time>2022-07-03T08:37:55.057Z</time>
      </trkpt>
      <trkpt lat="48.01691" lon="7.02983">
        <ele>630.5</ele>
        <time>2022-07-03T08:38:04.459Z</time>
      </trkpt>
      <trkpt lat="48.01699" lon="7.0297">
        <ele>632.7</ele>
        <time>2022-07-03T08:38:13.975Z</time>
      </trkpt>
      <trkpt lat="48.01708" lon="7.02963">
        <ele>633.2</ele>
        <time>2022-07-03T08:38:23.639Z</time>
      </trkpt>
      <trkpt lat="48.01718" lon="7.02959">
        <ele>632.6</ele>
        <time>2022-07-03T08:38:32.975Z</time>
      </trkpt>
      <trkpt lat="48.01724" lon="7.02956">
        <ele>632.5</ele>
        <time>2022-07-03T08:38:41.999Z</time>
      </trkpt>
      <trkpt lat="48.01733" lon="7.02955">
        <ele>632.3</ele>
        <time>2022-07-03T08:38:51.020Z</time>
      </trkpt>
      <trkpt lat="48.01739" lon="7.02951">
        <ele>633.3</ele>
        <time>2022-07-03T08:39:00.518Z</time>
      </trkpt>
      <trkpt lat="48.01744" lon="7.02948">
        <ele>634.1</ele>
        <time>2022-07-03T08:39:10.000Z</time>
      </trkpt>
      <trkpt lat="48.01749" lon="7.02941">
        <ele>637</ele>
        <time>2022-07-03T08:39:19.496Z</time>
      </trkpt>
      <trkpt lat="48.01756" lon="7.0293">
        <ele>643.3</ele>
        <time>2022-07-03T08:39:29.018Z</time>
      </trkpt>
      <trkpt lat="48.01768" lon="7.02931">
        <ele>643.3</ele>
        <time>2022-07-03T08:39:39.082Z</time>
      </trkpt>
      <trkpt lat="48.01776" lon="7.02937">
        <ele>641.1</ele>
        <time>2022-07-03T08:39:49.000Z</time>
      </trkpt>
      <trkpt lat="48.01782" lon="7.02937">
        <ele>641.4</ele>
        <time>2022-07-03T08:39:58.599Z</time>
      </trkpt>
      <trkpt lat="48.01788" lon="7.02935">
        <ele>642</ele>
        <time>2022-07-03T08:40:07.836Z</time>
      </trkpt>
      <trkpt lat="48.01798" lon="7.02928">
        <ele>644.2</ele>
        <time>2022-07-03T08:40:17.080Z</time>
      </trkpt>
      <trkpt lat="48.01808" lon="7.02923">
        <ele>645.3</ele>
        <time>2022-07-03T08:40:27.000Z</time>
      </trkpt>
      <trkpt lat="48.01817" lon="7.02914">
        <ele>645.6</ele>
        <time>2022-07-03T08:40:37.059Z</time>
      </trkpt>
      <trkpt lat="48.01824" lon="7.02905">
        <ele>647.4</ele>
        <time>2022-07-03T08:40:46.977Z</time>
      </trkpt>
      <trkpt lat="48.01833" lon="7.02898">
        <ele>648.6</ele>
        <time>2022-07-03T08:40:56.000Z</time>
      </trkpt>
      <trkpt lat="48.01842" lon="7.02894">
        <ele>651.3</ele>
        <time>2022-07-03T08:41:05.057Z</time>
      </trkpt>
      <trkpt lat="48.01851" lon="7.02895">
        <ele>651.9</ele>
        <time>2022-07-03T08:41:14.975Z</time>
      </trkpt>
      <trkpt lat="48.01858" lon="7.02894">
        <ele>652.5</ele>
        <time>2022-07-03T08:41:24.559Z</time>
      </trkpt>
      <trkpt lat="48.01868" lon="7.02892">
        <ele>654.3</ele>
        <time>2022-07-03T08:41:33.966Z</time>
      </trkpt>
      <trkpt lat="48.01873" lon="7.02893">
        <ele>654.6</ele>
        <time>2022-07-03T08:41:43.000Z</time>
      </trkpt>
      <trkpt lat="48.01883" lon="7.02894">
        <ele>655</ele>
        <time>2022-07-03T08:41:53.020Z</time>
      </trkpt>
      <trkpt lat="48.01892" lon="7.02898">
        <ele>654.1</ele>
        <time>2022-07-03T08:42:02.459Z</time>
      </trkpt>
      <trkpt lat="48.019" lon="7.02896">
        <ele>655.4</ele>
        <time>2022-07-03T08:42:11.579Z</time>
      </trkpt>
      <trkpt lat="48.01906" lon="7.02895">
        <ele>656.4</ele>
        <time>2022-07-03T08:42:20.775Z</time>
      </trkpt>
      <trkpt lat="48.01912" lon="7.02893">
        <ele>658</ele>
        <time>2022-07-03T08:42:30.000Z</time>
      </trkpt>
      <trkpt lat="48.01919" lon="7.02892">
        <ele>659.1</ele>
        <time>2022-07-03T08:42:39.602Z</time>
      </trkpt>
      <trkpt lat="48.01922" lon="7.02887">
        <ele>661.2</ele>
        <time>2022-07-03T08:42:49.000Z</time>
      </trkpt>
      <trkpt lat="48.01928" lon="7.02878">
        <ele>664.8</ele>
        <time>2022-07-03T08:42:58.776Z</time>
      </trkpt>
      <trkpt lat="48.01938" lon="7.02872">
        <ele>667.1</ele>
        <time>2022-07-03T08:43:08.000Z</time>
      </trkpt>
      <trkpt lat="48.01946" lon="7.02869">
        <ele>668.4</ele>
        <time>2022-07-03T08:43:17.601Z</time>
      </trkpt>
      <trkpt lat="48.0195" lon="7.02868">
        <ele>668.1</ele>
        <time>2022-07-03T08:43:27.000Z</time>
      </trkpt>
      <trkpt lat="48.01955" lon="7.02865">
        <ele>669</ele>
        <time>2022-07-03T08:43:36.501Z</time>
      </trkpt>
      <trkpt lat="48.01962" lon="7.02862">
        <ele>669.5</ele>
        <time>2022-07-03T08:43:45.698Z</time>
      </trkpt>
      <trkpt lat="48.01971" lon="7.02854">
        <ele>672.9</ele>
        <time>2022-07-03T08:43:54.977Z</time>
      </trkpt>
      <trkpt lat="48.01981" lon="7.02849">
        <ele>674.1</ele>
        <time>2022-07-03T08:44:04.000Z</time>
      </trkpt>
      <trkpt lat="48.01985" lon="7.02845">
        <ele>676.6</ele>
        <time>2022-07-03T08:44:14.000Z</time>
      </trkpt>
      <trkpt lat="48.01989" lon="7.02848">
        <ele>673.3</ele>
        <time>2022-07-03T08:44:23.476Z</time>
      </trkpt>
      <trkpt lat="48.01993" lon="7.02847">
        <ele>673.7</ele>
        <time>2022-07-03T08:44:33.000Z</time>
      </trkpt>
      <trkpt lat="48.02001" lon="7.02841">
        <ele>675.9</ele>
        <time>2022-07-03T08:44:42.397Z</time>
      </trkpt>
      <trkpt lat="48.02006" lon="7.02842">
        <ele>675.3</ele>
        <time>2022-07-03T08:44:51.949Z</time>
      </trkpt>
      <trkpt lat="48.02016" lon="7.02838">
        <ele>677.8</ele>
        <time>2022-07-03T08:45:02.000Z</time>
      </trkpt>
      <trkpt lat="48.02025" lon="7.02834">
        <ele>679.9</ele>
        <time>2022-07-03T08:45:11.562Z</time>
      </trkpt>
      <trkpt lat="48.02033" lon="7.02832">
        <ele>680.6</ele>
        <time>2022-07-03T08:45:20.739Z</time>
      </trkpt>
      <trkpt lat="48.02039" lon="7.02832">
        <ele>680.7</ele>
        <time>2022-07-03T08:45:29.981Z</time>
      </trkpt>
      <trkpt lat="48.02048" lon="7.02824">
        <ele>685.2</ele>
        <time>2022-07-03T08:45:39.596Z</time>
      </trkpt>
      <trkpt lat="48.02055" lon="7.02816">
        <ele>688.6</ele>
        <time>2022-07-03T08:45:49.000Z</time>
      </trkpt>
      <trkpt lat="48.02056" lon="7.02813">
        <ele>690.3</ele>
        <time>2022-07-03T08:45:58.537Z</time>
      </trkpt>
      <trkpt lat="48.02049" lon="7.02815">
        <ele>690.2</ele>
        <time>2022-07-03T08:46:07.740Z</time>
      </trkpt>
      <trkpt lat="48.02051" lon="7.02809">
        <ele>693.1</ele>
        <time>2022-07-03T08:46:18.059Z</time>
      </trkpt>
      <trkpt lat="48.02059" lon="7.0281">
        <ele>692.7</ele>
        <time>2022-07-03T08:46:28.000Z</time>
      </trkpt>
      <trkpt lat="48.02061" lon="7.02813">
        <ele>691.9</ele>
        <time>2022-07-03T08:46:38.000Z</time>
      </trkpt>
      <trkpt lat="48.02064" lon="7.02809">
        <ele>695.3</ele>
        <time>2022-07-03T08:46:47.900Z</time>
      </trkpt>
      <trkpt lat="48.02064" lon="7.02805">
        <ele>697.3</ele>
        <time>2022-07-03T08:46:57.000Z</time>
      </trkpt>
      <trkpt lat="48.02058" lon="7.02809">
        <ele>693.3</ele>
        <time>2022-07-03T08:47:06.538Z</time>
      </trkpt>
      <trkpt lat="48.0205" lon="7.02808">
        <ele>693.7</ele>
        <time>2022-07-03T08:47:16.000Z</time>
      </trkpt>
      <trkpt lat="48.0205" lon="7.02802">
        <ele>697.3</ele>
        <time>2022-07-03T08:47:25.056Z</time>
      </trkpt>
      <trkpt lat="48.0206" lon="7.02798">
        <ele>699.6</ele>
        <time>2022-07-03T08:47:35.000Z</time>
      </trkpt>
      <trkpt lat="48.02066" lon="7.02801">
        <ele>700.2</ele>
        <time>2022-07-03T08:47:44.971Z</time>
      </trkpt>
      <trkpt lat="48.02074" lon="7.02809">
        <ele>697.9</ele>
        <time>2022-07-03T08:47:54.061Z</time>
      </trkpt>
      <trkpt lat="48.02081" lon="7.02817">
        <ele>694.6</ele>
        <time>2022-07-03T08:48:03.977Z</time>
      </trkpt>
      <trkpt lat="48.02089" lon="7.02821">
        <ele>692.8</ele>
        <time>2022-07-03T08:48:13.475Z</time>
      </trkpt>
      <trkpt lat="48.02095" lon="7.02819">
        <ele>694.5</ele>
        <time>2022-07-03T08:48:23.000Z</time>
      </trkpt>
      <trkpt lat="48.02104" lon="7.02815">
        <ele>698.2</ele>
        <time>2022-07-03T08:48:32.678Z</time>
      </trkpt>
      <trkpt lat="48.02116" lon="7.02812">
        <ele>701.5</ele>
        <time>2022-07-03T08:48:41.738Z</time>
      </trkpt>
      <trkpt lat="48.02124" lon="7.02811">
        <ele>703.4</ele>
        <time>2022-07-03T08:48:50.965Z</time>
      </trkpt>
      <trkpt lat="48.0213" lon="7.02809">
        <ele>705.1</ele>
        <time>2022-07-03T08:49:00.000Z</time>
      </trkpt>
      <trkpt lat="48.02143" lon="7.02808">
        <ele>707.9</ele>
        <time>2022-07-03T08:49:09.699Z</time>
      </trkpt>
      <trkpt lat="48.02153" lon="7.02805">
        <ele>712.1</ele>
        <time>2022-07-03T08:49:19.000Z</time>
      </trkpt>
      <trkpt lat="48.02164" lon="7.02807">
        <ele>714</ele>
        <time>2022-07-03T08:49:28.479Z</time>
      </trkpt>
      <trkpt lat="48.02167" lon="7.02809">
        <ele>714.5</ele>
        <time>2022-07-03T08:49:37.842Z</time>
      </trkpt>
      <trkpt lat="48.02168" lon="7.0281">
        <ele>714.6</ele>
        <time>2022-07-03T08:49:47.000Z</time>
      </trkpt>
      <trkpt lat="48.02167" lon="7.0281">
        <ele>714.2</ele>
        <time>2022-07-03T08:50:37.000Z</time>
      </trkpt>
      <trkpt lat="48.02165" lon="7.02808">
        <ele>713.9</ele>
        <time>2022-07-03T08:50:46.428Z</time>
      </trkpt>
      <trkpt lat="48.02169" lon="7.02819">
        <ele>713.3</ele>
        <time>2022-07-03T08:50:55.558Z</time>
      </trkpt>
      <trkpt lat="48.02166" lon="7.0282">
        <ele>712.3</ele>
        <time>2022-07-03T08:51:05.000Z</time>
      </trkpt>
      <trkpt lat="48.02166" lon="7.02818">
        <ele>712.5</ele>
        <time>2022-07-03T08:51:14.879Z</time>
      </trkpt>
      <trkpt lat="48.02169" lon="7.02827">
        <ele>711.9</ele>
        <time>2022-07-03T08:51:24.000Z</time>
      </trkpt>
      <trkpt lat="48.0217" lon="7.02835">
        <ele>710.9</ele>
        <time>2022-07-03T08:51:33.638Z</time>
      </trkpt>
      <trkpt lat="48.0217" lon="7.02843">
        <ele>709.9</ele>
        <time>2022-07-03T08:51:43.000Z</time>
      </trkpt>
      <trkpt lat="48.02171" lon="7.02844">
        <ele>710.2</ele>
        <time>2022-07-03T08:51:53.000Z</time>
      </trkpt>
      <trkpt lat="48.02176" lon="7.0285">
        <ele>712.2</ele>
        <time>2022-07-03T08:52:03.000Z</time>
      </trkpt>
      <trkpt lat="48.02182" lon="7.02858">
        <ele>714.9</ele>
        <time>2022-07-03T08:52:12.678Z</time>
      </trkpt>
      <trkpt lat="48.02185" lon="7.02862">
        <ele>716.7</ele>
        <time>2022-07-03T08:52:21.978Z</time>
      </trkpt>
      <trkpt lat="48.02185" lon="7.02875">
        <ele>724.6</ele>
        <time>2022-07-03T08:52:31.656Z</time>
      </trkpt>
      <trkpt lat="48.02185" lon="7.0288">
        <ele>727.7</ele>
        <time>2022-07-03T08:52:41.000Z</time>
      </trkpt>
      <trkpt lat="48.02192" lon="7.0288">
        <ele>732.8</ele>
        <time>2022-07-03T08:52:51.000Z</time>
      </trkpt>
      <trkpt lat="48.02199" lon="7.02876">
        <ele>734.9</ele>
        <time>2022-07-03T08:53:00.018Z</time>
      </trkpt>
      <trkpt lat="48.02204" lon="7.02865">
        <ele>730.8</ele>
        <time>2022-07-03T08:53:09.930Z</time>
      </trkpt>
      <trkpt lat="48.02209" lon="7.02857">
        <ele>731.3</ele>
        <time>2022-07-03T08:53:19.079Z</time>
      </trkpt>
      <trkpt lat="48.02216" lon="7.02844">
        <ele>732.8</ele>
        <time>2022-07-03T08:53:29.000Z</time>
      </trkpt>
      <trkpt lat="48.02217" lon="7.02834">
        <ele>730.6</ele>
        <time>2022-07-03T08:53:38.972Z</time>
      </trkpt>
      <trkpt lat="48.02213" lon="7.02824">
        <ele>730.1</ele>
        <time>2022-07-03T08:53:48.076Z</time>
      </trkpt>
      <trkpt lat="48.02207" lon="7.02814">
        <ele>729.7</ele>
        <time>2022-07-03T08:53:58.000Z</time>
      </trkpt>
      <trkpt lat="48.02205" lon="7.028">
        <ele>731.6</ele>
        <time>2022-07-03T08:54:08.015Z</time>
      </trkpt>
      <trkpt lat="48.02211" lon="7.02799">
        <ele>732.8</ele>
        <time>2022-07-03T08:54:17.574Z</time>
      </trkpt>
      <trkpt lat="48.02218" lon="7.02802">
        <ele>733.7</ele>
        <time>2022-07-03T08:54:26.859Z</time>
      </trkpt>
      <trkpt lat="48.02226" lon="7.02805">
        <ele>735.3</ele>
        <time>2022-07-03T08:54:35.998Z</time>
      </trkpt>
      <trkpt lat="48.0223" lon="7.02812">
        <ele>736.7</ele>
        <time>2022-07-03T08:54:45.000Z</time>
      </trkpt>
      <trkpt lat="48.02235" lon="7.02824">
        <ele>739.4</ele>
        <time>2022-07-03T08:54:54.738Z</time>
      </trkpt>
      <trkpt lat="48.02238" lon="7.02826">
        <ele>741.1</ele>
        <time>2022-07-03T08:55:04.000Z</time>
      </trkpt>
      <trkpt lat="48.02242" lon="7.02823">
        <ele>742.7</ele>
        <time>2022-07-03T08:55:13.679Z</time>
      </trkpt>
      <trkpt lat="48.02248" lon="7.02822">
        <ele>745.1</ele>
        <time>2022-07-03T08:55:22.959Z</time>
      </trkpt>
      <trkpt lat="48.02253" lon="7.02813">
        <ele>745.7</ele>
        <time>2022-07-03T08:55:32.000Z</time>
      </trkpt>
      <trkpt lat="48.02259" lon="7.02801">
        <ele>747.6</ele>
        <time>2022-07-03T08:55:42.000Z</time>
      </trkpt>
      <trkpt lat="48.02261" lon="7.02795">
        <ele>749</ele>
        <time>2022-07-03T08:55:51.972Z</time>
      </trkpt>
      <trkpt lat="48.02264" lon="7.028">
        <ele>749.8</ele>
        <time>2022-07-03T08:56:01.000Z</time>
      </trkpt>
      <trkpt lat="48.02269" lon="7.02804">
        <ele>752.1</ele>
        <time>2022-07-03T08:56:11.000Z</time>
      </trkpt>
      <trkpt lat="48.02272" lon="7.02808">
        <ele>753.6</ele>
        <time>2022-07-03T08:56:20.640Z</time>
      </trkpt>
      <trkpt lat="48.02277" lon="7.02807">
        <ele>755.7</ele>
        <time>2022-07-03T08:56:29.999Z</time>
      </trkpt>
      <trkpt lat="48.02277" lon="7.02795">
        <ele>755.9</ele>
        <time>2022-07-03T08:56:39.000Z</time>
      </trkpt>
      <trkpt lat="48.02276" lon="7.02782">
        <ele>756.1</ele>
        <time>2022-07-03T08:56:48.815Z</time>
      </trkpt>
      <trkpt lat="48.02275" lon="7.02771">
        <ele>756.6</ele>
        <time>2022-07-03T08:56:58.000Z</time>
      </trkpt>
      <trkpt lat="48.02276" lon="7.02758">
        <ele>758</ele>
        <time>2022-07-03T08:57:07.503Z</time>
      </trkpt>
      <trkpt lat="48.02278" lon="7.02746">
        <ele>759.4</ele>
        <time>2022-07-03T08:57:16.680Z</time>
      </trkpt>
      <trkpt lat="48.02277" lon="7.02733">
        <ele>760</ele>
        <time>2022-07-03T08:57:25.720Z</time>
      </trkpt>
      <trkpt lat="48.02281" lon="7.02723">
        <ele>761.8</ele>
        <time>2022-07-03T08:57:34.979Z</time>
      </trkpt>
      <trkpt lat="48.02287" lon="7.02715">
        <ele>763.2</ele>
        <time>2022-07-03T08:57:44.076Z</time>
      </trkpt>
      <trkpt lat="48.02292" lon="7.02705">
        <ele>764.1</ele>
        <time>2022-07-03T08:57:54.021Z</time>
      </trkpt>
      <trkpt lat="48.02299" lon="7.02693">
        <ele>765.5</ele>
        <time>2022-07-03T08:58:03.538Z</time>
      </trkpt>
      <trkpt lat="48.02307" lon="7.02687">
        <ele>766.6</ele>
        <time>2022-07-03T08:58:12.962Z</time>
      </trkpt>
      <trkpt lat="48.02313" lon="7.02695">
        <ele>768.1</ele>
        <time>2022-07-03T08:58:22.000Z</time>
      </trkpt>
      <trkpt lat="48.02317" lon="7.02705">
        <ele>769.2</ele>
        <time>2022-07-03T08:58:31.978Z</time>
      </trkpt>
      <trkpt lat="48.02322" lon="7.02702">
        <ele>769.8</ele>
        <time>2022-07-03T08:58:41.000Z</time>
      </trkpt>
      <trkpt lat="48.02331" lon="7.02686">
        <ele>770.5</ele>
        <time>2022-07-03T08:58:51.021Z</time>
      </trkpt>
      <trkpt lat="48.02339" lon="7.02676">
        <ele>772.8</ele>
        <time>2022-07-03T08:59:00.816Z</time>
      </trkpt>
      <trkpt lat="48.02346" lon="7.02663">
        <ele>775.2</ele>
        <time>2022-07-03T08:59:10.000Z</time>
      </trkpt>
      <trkpt lat="48.02354" lon="7.02644">
        <ele>778.2</ele>
        <time>2022-07-03T08:59:19.863Z</time>
      </trkpt>
      <trkpt lat="48.02357" lon="7.02634">
        <ele>779.2</ele>
        <time>2022-07-03T08:59:29.000Z</time>
      </trkpt>
      <trkpt lat="48.0236" lon="7.02624">
        <ele>779.5</ele>
        <time>2022-07-03T08:59:38.498Z</time>
      </trkpt>
      <trkpt lat="48.02363" lon="7.02607">
        <ele>779.6</ele>
        <time>2022-07-03T08:59:47.775Z</time>
      </trkpt>
      <trkpt lat="48.02367" lon="7.02596">
        <ele>780</ele>
        <time>2022-07-03T08:59:57.000Z</time>
      </trkpt>
      <trkpt lat="48.0237" lon="7.02575">
        <ele>780.8</ele>
        <time>2022-07-03T09:00:06.995Z</time>
      </trkpt>
      <trkpt lat="48.0237" lon="7.02555">
        <ele>782.8</ele>
        <time>2022-07-03T09:00:15.998Z</time>
      </trkpt>
      <trkpt lat="48.02367" lon="7.02546">
        <ele>782.7</ele>
        <time>2022-07-03T09:00:25.000Z</time>
      </trkpt>
      <trkpt lat="48.02361" lon="7.02529">
        <ele>781.8</ele>
        <time>2022-07-03T09:00:34.755Z</time>
      </trkpt>
      <trkpt lat="48.02356" lon="7.02519">
        <ele>782.1</ele>
        <time>2022-07-03T09:00:44.000Z</time>
      </trkpt>
      <trkpt lat="48.02352" lon="7.02501">
        <ele>783.2</ele>
        <time>2022-07-03T09:00:53.782Z</time>
      </trkpt>
      <trkpt lat="48.02351" lon="7.0249">
        <ele>784</ele>
        <time>2022-07-03T09:01:02.798Z</time>
      </trkpt>
      <trkpt lat="48.02353" lon="7.02478">
        <ele>786.3</ele>
        <time>2022-07-03T09:01:12.759Z</time>
      </trkpt>
      <trkpt lat="48.02357" lon="7.02465">
        <ele>789</ele>
        <time>2022-07-03T09:01:22.000Z</time>
      </trkpt>
      <trkpt lat="48.02357" lon="7.02451">
        <ele>789.6</ele>
        <time>2022-07-03T09:01:31.600Z</time>
      </trkpt>
      <trkpt lat="48.02352" lon="7.02435">
        <ele>790.4</ele>
        <time>2022-07-03T09:01:41.000Z</time>
      </trkpt>
      <trkpt lat="48.0235" lon="7.02423">
        <ele>791.8</ele>
        <time>2022-07-03T09:01:50.721Z</time>
      </trkpt>
      <trkpt lat="48.02347" lon="7.02414">
        <ele>792.3</ele>
        <time>2022-07-03T09:02:00.441Z</time>
      </trkpt>
      <trkpt lat="48.02344" lon="7.024">
        <ele>794</ele>
        <time>2022-07-03T09:02:10.000Z</time>
      </trkpt>
      <trkpt lat="48.02348" lon="7.02393">
        <ele>795.5</ele>
        <time>2022-07-03T09:02:19.722Z</time>
      </trkpt>
      <trkpt lat="48.0235" lon="7.02389">
        <ele>796.2</ele>
        <time>2022-07-03T09:02:29.000Z</time>
      </trkpt>
      <trkpt lat="48.02352" lon="7.02387">
        <ele>796.3</ele>
        <time>2022-07-03T09:02:39.000Z</time>
      </trkpt>
      <trkpt lat="48.02351" lon="7.02384">
        <ele>796.2</ele>
        <time>2022-07-03T09:02:48.639Z</time>
      </trkpt>
      <trkpt lat="48.02342" lon="7.02382">
        <ele>795.7</ele>
        <time>2022-07-03T09:02:58.000Z</time>
      </trkpt>
      <trkpt lat="48.02342" lon="7.02389">
        <ele>795.6</ele>
        <time>2022-07-03T09:03:08.000Z</time>
      </trkpt>
      <trkpt lat="48.02345" lon="7.0239">
        <ele>795.6</ele>
        <time>2022-07-03T09:03:18.016Z</time>
      </trkpt>
      <trkpt lat="48.02353" lon="7.02389">
        <ele>796.4</ele>
        <time>2022-07-03T09:03:27.677Z</time>
      </trkpt>
      <trkpt lat="48.02362" lon="7.02392">
        <ele>797.1</ele>
        <time>2022-07-03T09:03:37.000Z</time>
      </trkpt>
      <trkpt lat="48.02363" lon="7.0239">
        <ele>797.5</ele>
        <time>2022-07-03T09:03:47.000Z</time>
      </trkpt>
      <trkpt lat="48.02367" lon="7.0239">
        <ele>798.5</ele>
        <time>2022-07-03T09:04:14.000Z</time>
      </trkpt>
      <trkpt lat="48.02374" lon="7.02387">
        <ele>800.7</ele>
        <time>2022-07-03T09:04:24.000Z</time>
      </trkpt>
      <trkpt lat="48.02371" lon="7.02386">
        <ele>799.9</ele>
        <time>2022-07-03T09:05:22.000Z</time>
      </trkpt>
      <trkpt lat="48.02375" lon="7.02384">
        <ele>801.2</ele>
        <time>2022-07-03T09:05:32.000Z</time>
      </trkpt>
      <trkpt lat="48.02376" lon="7.02385">
        <ele>801.4</ele>
        <time>2022-07-03T09:05:49.077Z</time>
      </trkpt>
      <trkpt lat="48.02367" lon="7.02409">
        <ele>797</ele>
        <time>2022-07-03T09:05:58.974Z</time>
      </trkpt>
      <trkpt lat="48.02368" lon="7.02423">
        <ele>796.1</ele>
        <time>2022-07-03T09:06:09.000Z</time>
      </trkpt>
      <trkpt lat="48.02374" lon="7.02431">
        <ele>797.1</ele>
        <time>2022-07-03T09:06:18.519Z</time>
      </trkpt>
      <trkpt lat="48.0238" lon="7.02436">
        <ele>799</ele>
        <time>2022-07-03T09:06:27.949Z</time>
      </trkpt>
      <trkpt lat="48.02385" lon="7.02446">
        <ele>800.5</ele>
        <time>2022-07-03T09:06:37.000Z</time>
      </trkpt>
      <trkpt lat="48.02391" lon="7.0246">
        <ele>802.4</ele>
        <time>2022-07-03T09:06:46.719Z</time>
      </trkpt>
      <trkpt lat="48.0239" lon="7.02473">
        <ele>801.3</ele>
        <time>2022-07-03T09:06:56.000Z</time>
      </trkpt>
      <trkpt lat="48.02391" lon="7.0248">
        <ele>800.8</ele>
        <time>2022-07-03T09:07:06.000Z</time>
      </trkpt>
      <trkpt lat="48.02395" lon="7.02484">
        <ele>802.4</ele>
        <time>2022-07-03T09:07:15.621Z</time>
      </trkpt>
      <trkpt lat="48.02405" lon="7.02496">
        <ele>804.7</ele>
        <time>2022-07-03T09:07:25.000Z</time>
      </trkpt>
      <trkpt lat="48.02411" lon="7.02507">
        <ele>806</ele>
        <time>2022-07-03T09:07:34.978Z</time>
      </trkpt>
      <trkpt lat="48.02417" lon="7.02518">
        <ele>807.9</ele>
        <time>2022-07-03T09:07:44.057Z</time>
      </trkpt>
      <trkpt lat="48.02424" lon="7.02529">
        <ele>810.9</ele>
        <time>2022-07-03T09:07:53.539Z</time>
      </trkpt>
      <trkpt lat="48.02425" lon="7.02535">
        <ele>811.2</ele>
        <time>2022-07-03T09:08:02.741Z</time>
      </trkpt>
      <trkpt lat="48.02427" lon="7.02538">
        <ele>812.5</ele>
        <time>2022-07-03T09:08:12.000Z</time>
      </trkpt>
      <trkpt lat="48.02431" lon="7.02529">
        <ele>814.5</ele>
        <time>2022-07-03T09:08:21.718Z</time>
      </trkpt>
      <trkpt lat="48.02433" lon="7.02524">
        <ele>816</ele>
        <time>2022-07-03T09:08:31.000Z</time>
      </trkpt>
      <trkpt lat="48.02436" lon="7.02531">
        <ele>817.3</ele>
        <time>2022-07-03T09:08:40.999Z</time>
      </trkpt>
      <trkpt lat="48.02437" lon="7.02545">
        <ele>818</ele>
        <time>2022-07-03T09:08:50.617Z</time>
      </trkpt>
      <trkpt lat="48.02439" lon="7.02563">
        <ele>819.7</ele>
        <time>2022-07-03T09:08:59.977Z</time>
      </trkpt>
      <trkpt lat="48.02442" lon="7.0258">
        <ele>823.2</ele>
        <time>2022-07-03T09:09:09.000Z</time>
      </trkpt>
      <trkpt lat="48.02441" lon="7.02592">
        <ele>822.1</ele>
        <time>2022-07-03T09:09:18.718Z</time>
      </trkpt>
      <trkpt lat="48.02442" lon="7.026">
        <ele>822.2</ele>
        <time>2022-07-03T09:09:27.800Z</time>
      </trkpt>
      <trkpt lat="48.02445" lon="7.02611">
        <ele>824.6</ele>
        <time>2022-07-03T09:09:37.383Z</time>
      </trkpt>
      <trkpt lat="48.02449" lon="7.02624">
        <ele>824.8</ele>
        <time>2022-07-03T09:09:47.000Z</time>
      </trkpt>
      <trkpt lat="48.02453" lon="7.02631">
        <ele>826.1</ele>
        <time>2022-07-03T09:09:56.702Z</time>
      </trkpt>
      <trkpt lat="48.02459" lon="7.0264">
        <ele>829.3</ele>
        <time>2022-07-03T09:10:05.857Z</time>
      </trkpt>
      <trkpt lat="48.02462" lon="7.02635">
        <ele>832</ele>
        <time>2022-07-03T09:10:15.459Z</time>
      </trkpt>
      <trkpt lat="48.02463" lon="7.02621">
        <ele>835.3</ele>
        <time>2022-07-03T09:10:24.976Z</time>
      </trkpt>
      <trkpt lat="48.0246" lon="7.02611">
        <ele>835.2</ele>
        <time>2022-07-03T09:10:34.000Z</time>
      </trkpt>
      <trkpt lat="48.0246" lon="7.02603">
        <ele>835.5</ele>
        <time>2022-07-03T09:10:44.000Z</time>
      </trkpt>
      <trkpt lat="48.02464" lon="7.02593">
        <ele>838.1</ele>
        <time>2022-07-03T09:10:53.680Z</time>
      </trkpt>
      <trkpt lat="48.02468" lon="7.02583">
        <ele>841.2</ele>
        <time>2022-07-03T09:11:03.000Z</time>
      </trkpt>
      <trkpt lat="48.02472" lon="7.02576">
        <ele>843.6</ele>
        <time>2022-07-03T09:11:13.000Z</time>
      </trkpt>
      <trkpt lat="48.02474" lon="7.02574">
        <ele>844.8</ele>
        <time>2022-07-03T09:11:23.000Z</time>
      </trkpt>
      <trkpt lat="48.02475" lon="7.02575">
        <ele>845.7</ele>
        <time>2022-07-03T09:11:32.721Z</time>
      </trkpt>
      <trkpt lat="48.02476" lon="7.02573">
        <ele>846.5</ele>
        <time>2022-07-03T09:11:45.000Z</time>
      </trkpt>
      <trkpt lat="48.02477" lon="7.02571">
        <ele>847.1</ele>
        <time>2022-07-03T09:11:55.000Z</time>
      </trkpt>
      <trkpt lat="48.02477" lon="7.02562">
        <ele>846.8</ele>
        <time>2022-07-03T09:12:05.000Z</time>
      </trkpt>
      <trkpt lat="48.02476" lon="7.02563">
        <ele>846</ele>
        <time>2022-07-03T09:12:15.000Z</time>
      </trkpt>
      <trkpt lat="48.02477" lon="7.02569">
        <ele>847</ele>
        <time>2022-07-03T09:12:36.000Z</time>
      </trkpt>
      <trkpt lat="48.02478" lon="7.02576">
        <ele>847.9</ele>
        <time>2022-07-03T09:12:46.000Z</time>
      </trkpt>
      <trkpt lat="48.02476" lon="7.02575">
        <ele>846.4</ele>
        <time>2022-07-03T09:12:56.000Z</time>
      </trkpt>
      <trkpt lat="48.02471" lon="7.02578">
        <ele>842.6</ele>
        <time>2022-07-03T09:13:05.696Z</time>
      </trkpt>
      <trkpt lat="48.02468" lon="7.02592">
        <ele>840.9</ele>
        <time>2022-07-03T09:13:14.878Z</time>
      </trkpt>
      <trkpt lat="48.0247" lon="7.02606">
        <ele>842.4</ele>
        <time>2022-07-03T09:13:24.000Z</time>
      </trkpt>
      <trkpt lat="48.02471" lon="7.02614">
        <ele>842.7</ele>
        <time>2022-07-03T09:13:34.000Z</time>
      </trkpt>
      <trkpt lat="48.0247" lon="7.02621">
        <ele>840.6</ele>
        <time>2022-07-03T09:13:43.719Z</time>
      </trkpt>
      <trkpt lat="48.02471" lon="7.02616">
        <ele>842.4</ele>
        <time>2022-07-03T09:13:53.000Z</time>
      </trkpt>
      <trkpt lat="48.02467" lon="7.02614">
        <ele>839.6</ele>
        <time>2022-07-03T09:14:03.000Z</time>
      </trkpt>
      <trkpt lat="48.02467" lon="7.02615">
        <ele>839.6</ele>
        <time>2022-07-03T09:14:13.000Z</time>
      </trkpt>
      <trkpt lat="48.02467" lon="7.02614">
        <ele>840</ele>
        <time>2022-07-03T09:14:28.000Z</time>
      </trkpt>
      <trkpt lat="48.02472" lon="7.02599">
        <ele>843.9</ele>
        <time>2022-07-03T09:14:38.058Z</time>
      </trkpt>
      <trkpt lat="48.02476" lon="7.02589">
        <ele>846.6</ele>
        <time>2022-07-03T09:14:48.000Z</time>
      </trkpt>
      <trkpt lat="48.02478" lon="7.0258">
        <ele>848</ele>
        <time>2022-07-03T09:14:58.000Z</time>
      </trkpt>
      <trkpt lat="48.02483" lon="7.02568">
        <ele>851.4</ele>
        <time>2022-07-03T09:15:08.076Z</time>
      </trkpt>
      <trkpt lat="48.02485" lon="7.02556">
        <ele>853.3</ele>
        <time>2022-07-03T09:15:17.971Z</time>
      </trkpt>
      <trkpt lat="48.02487" lon="7.02547">
        <ele>854.5</ele>
        <time>2022-07-03T09:15:27.039Z</time>
      </trkpt>
      <trkpt lat="48.02489" lon="7.02556">
        <ele>856.5</ele>
        <time>2022-07-03T09:15:36.459Z</time>
      </trkpt>
      <trkpt lat="48.0249" lon="7.02568">
        <ele>857.6</ele>
        <time>2022-07-03T09:15:45.971Z</time>
      </trkpt>
      <trkpt lat="48.02492" lon="7.02579">
        <ele>859</ele>
        <time>2022-07-03T09:15:55.619Z</time>
      </trkpt>
      <trkpt lat="48.0249" lon="7.02593">
        <ele>857.5</ele>
        <time>2022-07-03T09:16:05.000Z</time>
      </trkpt>
      <trkpt lat="48.02496" lon="7.0259">
        <ele>862.2</ele>
        <time>2022-07-03T09:16:14.998Z</time>
      </trkpt>
      <trkpt lat="48.025" lon="7.0258">
        <ele>864.9</ele>
        <time>2022-07-03T09:16:24.000Z</time>
      </trkpt>
      <trkpt lat="48.02503" lon="7.0257">
        <ele>866.3</ele>
        <time>2022-07-03T09:16:34.000Z</time>
      </trkpt>
      <trkpt lat="48.02505" lon="7.02575">
        <ele>866.9</ele>
        <time>2022-07-03T09:16:43.079Z</time>
      </trkpt>
      <trkpt lat="48.02508" lon="7.0259">
        <ele>868.2</ele>
        <time>2022-07-03T09:16:52.861Z</time>
      </trkpt>
      <trkpt lat="48.02507" lon="7.02599">
        <ele>867.8</ele>
        <time>2022-07-03T09:17:01.975Z</time>
      </trkpt>
      <trkpt lat="48.02509" lon="7.02604">
        <ele>868.6</ele>
        <time>2022-07-03T09:17:11.000Z</time>
      </trkpt>
      <trkpt lat="48.02514" lon="7.02612">
        <ele>870.4</ele>
        <time>2022-07-03T09:17:21.000Z</time>
      </trkpt>
      <trkpt lat="48.02524" lon="7.02619">
        <ele>872.4</ele>
        <time>2022-07-03T09:17:30.359Z</time>
      </trkpt>
      <trkpt lat="48.02532" lon="7.02627">
        <ele>873.8</ele>
        <time>2022-07-03T09:17:40.000Z</time>
      </trkpt>
      <trkpt lat="48.02538" lon="7.02639">
        <ele>873.4</ele>
        <time>2022-07-03T09:17:49.561Z</time>
      </trkpt>
      <trkpt lat="48.02545" lon="7.02648">
        <ele>876.7</ele>
        <time>2022-07-03T09:17:58.578Z</time>
      </trkpt>
      <trkpt lat="48.0255" lon="7.02655">
        <ele>877.7</ele>
        <time>2022-07-03T09:18:08.083Z</time>
      </trkpt>
      <trkpt lat="48.02555" lon="7.02663">
        <ele>877.5</ele>
        <time>2022-07-03T09:18:17.797Z</time>
      </trkpt>
      <trkpt lat="48.02561" lon="7.02667">
        <ele>877.5</ele>
        <time>2022-07-03T09:18:27.617Z</time>
      </trkpt>
      <trkpt lat="48.02568" lon="7.0267">
        <ele>878.2</ele>
        <time>2022-07-03T09:18:37.000Z</time>
      </trkpt>
      <trkpt lat="48.02576" lon="7.02674">
        <ele>878.8</ele>
        <time>2022-07-03T09:18:46.501Z</time>
      </trkpt>
      <trkpt lat="48.02583" lon="7.02674">
        <ele>879</ele>
        <time>2022-07-03T09:18:55.558Z</time>
      </trkpt>
      <trkpt lat="48.02595" lon="7.02669">
        <ele>880.2</ele>
        <time>2022-07-03T09:19:04.638Z</time>
      </trkpt>
      <trkpt lat="48.02604" lon="7.02661">
        <ele>882.2</ele>
        <time>2022-07-03T09:19:13.858Z</time>
      </trkpt>
      <trkpt lat="48.02616" lon="7.02652">
        <ele>884.2</ele>
        <time>2022-07-03T09:19:24.000Z</time>
      </trkpt>
      <trkpt lat="48.02627" lon="7.02647">
        <ele>886.3</ele>
        <time>2022-07-03T09:19:34.016Z</time>
      </trkpt>
      <trkpt lat="48.02637" lon="7.02649">
        <ele>887.3</ele>
        <time>2022-07-03T09:19:43.340Z</time>
      </trkpt>
      <trkpt lat="48.02647" lon="7.02658">
        <ele>887.7</ele>
        <time>2022-07-03T09:19:52.998Z</time>
      </trkpt>
      <trkpt lat="48.02655" lon="7.02661">
        <ele>888.6</ele>
        <time>2022-07-03T09:20:02.678Z</time>
      </trkpt>
      <trkpt lat="48.02659" lon="7.02665">
        <ele>888.9</ele>
        <time>2022-07-03T09:20:11.819Z</time>
      </trkpt>
      <trkpt lat="48.02663" lon="7.02672">
        <ele>889.4</ele>
        <time>2022-07-03T09:20:21.000Z</time>
      </trkpt>
      <trkpt lat="48.0267" lon="7.02673">
        <ele>890.6</ele>
        <time>2022-07-03T09:20:30.339Z</time>
      </trkpt>
      <trkpt lat="48.0268" lon="7.02677">
        <ele>891.8</ele>
        <time>2022-07-03T09:20:39.858Z</time>
      </trkpt>
      <trkpt lat="48.02688" lon="7.02686">
        <ele>892.2</ele>
        <time>2022-07-03T09:20:49.000Z</time>
      </trkpt>
      <trkpt lat="48.02697" lon="7.02689">
        <ele>893</ele>
        <time>2022-07-03T09:20:59.079Z</time>
      </trkpt>
      <trkpt lat="48.02706" lon="7.0269">
        <ele>894.3</ele>
        <time>2022-07-03T09:21:08.677Z</time>
      </trkpt>
      <trkpt lat="48.02715" lon="7.02692">
        <ele>895.5</ele>
        <time>2022-07-03T09:21:17.678Z</time>
      </trkpt>
      <trkpt lat="48.02726" lon="7.02693">
        <ele>896.8</ele>
        <time>2022-07-03T09:21:26.821Z</time>
      </trkpt>
      <trkpt lat="48.02732" lon="7.02692">
        <ele>897.7</ele>
        <time>2022-07-03T09:21:37.018Z</time>
      </trkpt>
      <trkpt lat="48.02743" lon="7.02693">
        <ele>898.6</ele>
        <time>2022-07-03T09:21:46.973Z</time>
      </trkpt>
      <trkpt lat="48.0275" lon="7.02691">
        <ele>899.9</ele>
        <time>2022-07-03T09:21:56.000Z</time>
      </trkpt>
      <trkpt lat="48.02759" lon="7.0269">
        <ele>901.5</ele>
        <time>2022-07-03T09:22:05.676Z</time>
      </trkpt>
      <trkpt lat="48.02772" lon="7.02692">
        <ele>902.8</ele>
        <time>2022-07-03T09:22:14.799Z</time>
      </trkpt>
      <trkpt lat="48.02775" lon="7.02695">
        <ele>902.6</ele>
        <time>2022-07-03T09:22:23.800Z</time>
      </trkpt>
      <trkpt lat="48.02781" lon="7.02693">
        <ele>904</ele>
        <time>2022-07-03T09:22:33.000Z</time>
      </trkpt>
      <trkpt lat="48.0279" lon="7.02683">
        <ele>907.1</ele>
        <time>2022-07-03T09:22:42.477Z</time>
      </trkpt>
      <trkpt lat="48.02801" lon="7.02674">
        <ele>908.3</ele>
        <time>2022-07-03T09:22:52.000Z</time>
      </trkpt>
      <trkpt lat="48.02805" lon="7.02672">
        <ele>908.4</ele>
        <time>2022-07-03T09:23:01.878Z</time>
      </trkpt>
      <trkpt lat="48.02814" lon="7.02663">
        <ele>909.8</ele>
        <time>2022-07-03T09:23:12.000Z</time>
      </trkpt>
      <trkpt lat="48.02823" lon="7.02654">
        <ele>911.9</ele>
        <time>2022-07-03T09:23:22.062Z</time>
      </trkpt>
      <trkpt lat="48.02831" lon="7.02655">
        <ele>911.8</ele>
        <time>2022-07-03T09:23:31.618Z</time>
      </trkpt>
      <trkpt lat="48.02835" lon="7.02651">
        <ele>912.5</ele>
        <time>2022-07-03T09:23:41.000Z</time>
      </trkpt>
      <trkpt lat="48.02827" lon="7.02648">
        <ele>912.6</ele>
        <time>2022-07-03T09:23:50.678Z</time>
      </trkpt>
      <trkpt lat="48.0282" lon="7.02642">
        <ele>913.9</ele>
        <time>2022-07-03T09:24:00.079Z</time>
      </trkpt>
      <trkpt lat="48.02811" lon="7.02637">
        <ele>916.2</ele>
        <time>2022-07-03T09:24:09.966Z</time>
      </trkpt>
      <trkpt lat="48.02803" lon="7.02637">
        <ele>916.9</ele>
        <time>2022-07-03T09:24:19.820Z</time>
      </trkpt>
      <trkpt lat="48.02806" lon="7.02634">
        <ele>918.1</ele>
        <time>2022-07-03T09:24:29.099Z</time>
      </trkpt>
      <trkpt lat="48.02812" lon="7.02629">
        <ele>919.1</ele>
        <time>2022-07-03T09:24:38.719Z</time>
      </trkpt>
      <trkpt lat="48.0282" lon="7.02623">
        <ele>919.1</ele>
        <time>2022-07-03T09:24:48.000Z</time>
      </trkpt>
      <trkpt lat="48.02831" lon="7.0261">
        <ele>920</ele>
        <time>2022-07-03T09:24:57.761Z</time>
      </trkpt>
      <trkpt lat="48.02835" lon="7.02599">
        <ele>922.2</ele>
        <time>2022-07-03T09:25:07.000Z</time>
      </trkpt>
      <trkpt lat="48.02837" lon="7.02586">
        <ele>925.5</ele>
        <time>2022-07-03T09:25:16.557Z</time>
      </trkpt>
      <trkpt lat="48.0284" lon="7.02575">
        <ele>927.5</ele>
        <time>2022-07-03T09:25:26.000Z</time>
      </trkpt>
      <trkpt lat="48.02841" lon="7.02565">
        <ele>928.6</ele>
        <time>2022-07-03T09:25:36.000Z</time>
      </trkpt>
      <trkpt lat="48.02843" lon="7.02559">
        <ele>929.3</ele>
        <time>2022-07-03T09:25:45.459Z</time>
      </trkpt>
      <trkpt lat="48.02846" lon="7.02549">
        <ele>930.3</ele>
        <time>2022-07-03T09:25:55.000Z</time>
      </trkpt>
      <trkpt lat="48.02853" lon="7.02537">
        <ele>930.4</ele>
        <time>2022-07-03T09:26:05.000Z</time>
      </trkpt>
      <trkpt lat="48.02856" lon="7.02535">
        <ele>929.9</ele>
        <time>2022-07-03T09:26:15.000Z</time>
      </trkpt>
      <trkpt lat="48.02862" lon="7.02539">
        <ele>929</ele>
        <time>2022-07-03T09:26:25.000Z</time>
      </trkpt>
      <trkpt lat="48.02861" lon="7.02543">
        <ele>929</ele>
        <time>2022-07-03T09:26:35.000Z</time>
      </trkpt>
      <trkpt lat="48.02863" lon="7.02545">
        <ele>928.9</ele>
        <time>2022-07-03T09:26:46.000Z</time>
      </trkpt>
      <trkpt lat="48.02868" lon="7.02551">
        <ele>928.8</ele>
        <time>2022-07-03T09:26:56.000Z</time>
      </trkpt>
      <trkpt lat="48.02866" lon="7.0255">
        <ele>928.8</ele>
        <time>2022-07-03T09:27:06.000Z</time>
      </trkpt>
      <trkpt lat="48.02866" lon="7.02549">
        <ele>928.8</ele>
        <time>2022-07-03T09:27:42.000Z</time>
      </trkpt>
      <trkpt lat="48.02863" lon="7.02545">
        <ele>928.9</ele>
        <time>2022-07-03T09:27:52.000Z</time>
      </trkpt>
      <trkpt lat="48.0286" lon="7.02541">
        <ele>929.2</ele>
        <time>2022-07-03T09:32:53.000Z</time>
      </trkpt>
      <trkpt lat="48.02857" lon="7.02535">
        <ele>929.9</ele>
        <time>2022-07-03T09:33:02.145Z</time>
      </trkpt>
      <trkpt lat="48.02857" lon="7.02517">
        <ele>931.6</ele>
        <time>2022-07-03T09:33:11.839Z</time>
      </trkpt>
      <trkpt lat="48.02864" lon="7.02507">
        <ele>931.6</ele>
        <time>2022-07-03T09:33:20.842Z</time>
      </trkpt>
      <trkpt lat="48.02863" lon="7.02499">
        <ele>932.8</ele>
        <time>2022-07-03T09:33:30.000Z</time>
      </trkpt>
      <trkpt lat="48.02863" lon="7.02488">
        <ele>933.5</ele>
        <time>2022-07-03T09:33:39.861Z</time>
      </trkpt>
      <trkpt lat="48.02866" lon="7.02475">
        <ele>933.7</ele>
        <time>2022-07-03T09:33:48.969Z</time>
      </trkpt>
      <trkpt lat="48.02862" lon="7.02467">
        <ele>934.5</ele>
        <time>2022-07-03T09:33:58.039Z</time>
      </trkpt>
      <trkpt lat="48.02856" lon="7.02461">
        <ele>935.6</ele>
        <time>2022-07-03T09:34:07.841Z</time>
      </trkpt>
      <trkpt lat="48.02847" lon="7.02452">
        <ele>936.2</ele>
        <time>2022-07-03T09:34:16.974Z</time>
      </trkpt>
      <trkpt lat="48.02836" lon="7.02443">
        <ele>935.5</ele>
        <time>2022-07-03T09:34:26.060Z</time>
      </trkpt>
      <trkpt lat="48.02825" lon="7.02442">
        <ele>937.8</ele>
        <time>2022-07-03T09:34:35.461Z</time>
      </trkpt>
      <trkpt lat="48.02816" lon="7.02441">
        <ele>939.7</ele>
        <time>2022-07-03T09:34:44.998Z</time>
      </trkpt>
      <trkpt lat="48.02806" lon="7.02433">
        <ele>939.9</ele>
        <time>2022-07-03T09:34:54.000Z</time>
      </trkpt>
      <trkpt lat="48.02795" lon="7.02426">
        <ele>941.3</ele>
        <time>2022-07-03T09:35:03.973Z</time>
      </trkpt>
      <trkpt lat="48.02786" lon="7.02422">
        <ele>942.9</ele>
        <time>2022-07-03T09:35:13.079Z</time>
      </trkpt>
      <trkpt lat="48.02778" lon="7.0241">
        <ele>943.3</ele>
        <time>2022-07-03T09:35:22.278Z</time>
      </trkpt>
      <trkpt lat="48.02777" lon="7.024">
        <ele>943.3</ele>
        <time>2022-07-03T09:35:32.000Z</time>
      </trkpt>
      <trkpt lat="48.02772" lon="7.02384">
        <ele>944.9</ele>
        <time>2022-07-03T09:35:41.969Z</time>
      </trkpt>
      <trkpt lat="48.02772" lon="7.02374">
        <ele>945.5</ele>
        <time>2022-07-03T09:35:51.720Z</time>
      </trkpt>
      <trkpt lat="48.02773" lon="7.0236">
        <ele>946.2</ele>
        <time>2022-07-03T09:36:01.457Z</time>
      </trkpt>
      <trkpt lat="48.02778" lon="7.02352">
        <ele>945.5</ele>
        <time>2022-07-03T09:36:11.000Z</time>
      </trkpt>
      <trkpt lat="48.02786" lon="7.02345">
        <ele>946.9</ele>
        <time>2022-07-03T09:36:20.655Z</time>
      </trkpt>
      <trkpt lat="48.02789" lon="7.02336">
        <ele>949</ele>
        <time>2022-07-03T09:36:30.000Z</time>
      </trkpt>
      <trkpt lat="48.02792" lon="7.02331">
        <ele>950.1</ele>
        <time>2022-07-03T09:36:40.015Z</time>
      </trkpt>
      <trkpt lat="48.02792" lon="7.02325">
        <ele>951.8</ele>
        <time>2022-07-03T09:36:49.576Z</time>
      </trkpt>
      <trkpt lat="48.02795" lon="7.02322">
        <ele>952.3</ele>
        <time>2022-07-03T09:36:58.720Z</time>
      </trkpt>
      <trkpt lat="48.02802" lon="7.02315">
        <ele>953.2</ele>
        <time>2022-07-03T09:37:08.000Z</time>
      </trkpt>
      <trkpt lat="48.02806" lon="7.02308">
        <ele>954.3</ele>
        <time>2022-07-03T09:37:18.000Z</time>
      </trkpt>
      <trkpt lat="48.02804" lon="7.02304">
        <ele>955.9</ele>
        <time>2022-07-03T09:37:28.088Z</time>
      </trkpt>
      <trkpt lat="48.02803" lon="7.02301">
        <ele>957.1</ele>
        <time>2022-07-03T09:37:37.775Z</time>
      </trkpt>
      <trkpt lat="48.02802" lon="7.023">
        <ele>957.6</ele>
        <time>2022-07-03T09:37:46.978Z</time>
      </trkpt>
      <trkpt lat="48.02796" lon="7.02301">
        <ele>958.3</ele>
        <time>2022-07-03T09:37:56.700Z</time>
      </trkpt>
      <trkpt lat="48.02791" lon="7.02297">
        <ele>960.9</ele>
        <time>2022-07-03T09:38:05.955Z</time>
      </trkpt>
      <trkpt lat="48.02781" lon="7.02297">
        <ele>962.7</ele>
        <time>2022-07-03T09:38:15.659Z</time>
      </trkpt>
      <trkpt lat="48.02769" lon="7.02307">
        <ele>964.3</ele>
        <time>2022-07-03T09:38:24.857Z</time>
      </trkpt>
      <trkpt lat="48.02758" lon="7.02313">
        <ele>968.5</ele>
        <time>2022-07-03T09:38:34.000Z</time>
      </trkpt>
      <trkpt lat="48.02754" lon="7.02319">
        <ele>969</ele>
        <time>2022-07-03T09:38:43.459Z</time>
      </trkpt>
      <trkpt lat="48.02745" lon="7.02325">
        <ele>972.7</ele>
        <time>2022-07-03T09:38:52.973Z</time>
      </trkpt>
      <trkpt lat="48.02739" lon="7.02329">
        <ele>975.8</ele>
        <time>2022-07-03T09:39:02.000Z</time>
      </trkpt>
      <trkpt lat="48.02733" lon="7.02339">
        <ele>976</ele>
        <time>2022-07-03T09:39:11.420Z</time>
      </trkpt>
      <trkpt lat="48.0273" lon="7.02346">
        <ele>976.4</ele>
        <time>2022-07-03T09:39:20.455Z</time>
      </trkpt>
      <trkpt lat="48.02723" lon="7.02354">
        <ele>978.1</ele>
        <time>2022-07-03T09:39:30.000Z</time>
      </trkpt>
      <trkpt lat="48.02717" lon="7.02365">
        <ele>977.9</ele>
        <time>2022-07-03T09:39:39.858Z</time>
      </trkpt>
      <trkpt lat="48.02709" lon="7.02376">
        <ele>978.3</ele>
        <time>2022-07-03T09:39:49.679Z</time>
      </trkpt>
      <trkpt lat="48.02702" lon="7.02382">
        <ele>980.3</ele>
        <time>2022-07-03T09:39:58.996Z</time>
      </trkpt>
      <trkpt lat="48.02693" lon="7.02392">
        <ele>981.4</ele>
        <time>2022-07-03T09:40:08.000Z</time>
      </trkpt>
      <trkpt lat="48.02687" lon="7.02399">
        <ele>979.9</ele>
        <time>2022-07-03T09:40:18.061Z</time>
      </trkpt>
      <trkpt lat="48.02679" lon="7.02403">
        <ele>979.5</ele>
        <time>2022-07-03T09:40:27.781Z</time>
      </trkpt>
      <trkpt lat="48.02675" lon="7.02403">
        <ele>979.9</ele>
        <time>2022-07-03T09:40:37.000Z</time>
      </trkpt>
      <trkpt lat="48.0267" lon="7.024">
        <ele>981.3</ele>
        <time>2022-07-03T09:40:46.478Z</time>
      </trkpt>
      <trkpt lat="48.02662" lon="7.02393">
        <ele>984.4</ele>
        <time>2022-07-03T09:40:55.797Z</time>
      </trkpt>
      <trkpt lat="48.02653" lon="7.02388">
        <ele>985</ele>
        <time>2022-07-03T09:41:04.861Z</time>
      </trkpt>
      <trkpt lat="48.02643" lon="7.02386">
        <ele>984.3</ele>
        <time>2022-07-03T09:41:14.055Z</time>
      </trkpt>
      <trkpt lat="48.02634" lon="7.02381">
        <ele>985.2</ele>
        <time>2022-07-03T09:41:23.402Z</time>
      </trkpt>
      <trkpt lat="48.02628" lon="7.02377">
        <ele>986.3</ele>
        <time>2022-07-03T09:41:32.459Z</time>
      </trkpt>
      <trkpt lat="48.02629" lon="7.02371">
        <ele>989.1</ele>
        <time>2022-07-03T09:41:41.762Z</time>
      </trkpt>
      <trkpt lat="48.02631" lon="7.02373">
        <ele>988.4</ele>
        <time>2022-07-03T09:41:51.000Z</time>
      </trkpt>
      <trkpt lat="48.02634" lon="7.02381">
        <ele>985.2</ele>
        <time>2022-07-03T09:42:00.720Z</time>
      </trkpt>
      <trkpt lat="48.0264" lon="7.02381">
        <ele>986</ele>
        <time>2022-07-03T09:42:10.000Z</time>
      </trkpt>
      <trkpt lat="48.02649" lon="7.0238">
        <ele>988</ele>
        <time>2022-07-03T09:42:19.759Z</time>
      </trkpt>
      <trkpt lat="48.02657" lon="7.02378">
        <ele>990.3</ele>
        <time>2022-07-03T09:42:29.000Z</time>
      </trkpt>
      <trkpt lat="48.02666" lon="7.02374">
        <ele>993.4</ele>
        <time>2022-07-03T09:42:39.000Z</time>
      </trkpt>
      <trkpt lat="48.02675" lon="7.0237">
        <ele>993.3</ele>
        <time>2022-07-03T09:42:48.817Z</time>
      </trkpt>
      <trkpt lat="48.02679" lon="7.02361">
        <ele>995.5</ele>
        <time>2022-07-03T09:42:57.861Z</time>
      </trkpt>
      <trkpt lat="48.02683" lon="7.02351">
        <ele>997.8</ele>
        <time>2022-07-03T09:43:07.000Z</time>
      </trkpt>
      <trkpt lat="48.02692" lon="7.02337">
        <ele>1000.6</ele>
        <time>2022-07-03T09:43:17.000Z</time>
      </trkpt>
      <trkpt lat="48.02694" lon="7.02324">
        <ele>1003.9</ele>
        <time>2022-07-03T09:43:27.021Z</time>
      </trkpt>
      <trkpt lat="48.02699" lon="7.02314">
        <ele>1003.7</ele>
        <time>2022-07-03T09:43:36.978Z</time>
      </trkpt>
      <trkpt lat="48.02704" lon="7.02306">
        <ele>1003.7</ele>
        <time>2022-07-03T09:43:46.000Z</time>
      </trkpt>
      <trkpt lat="48.0271" lon="7.02298">
        <ele>1002.5</ele>
        <time>2022-07-03T09:43:55.979Z</time>
      </trkpt>
      <trkpt lat="48.02713" lon="7.02285">
        <ele>1003.9</ele>
        <time>2022-07-03T09:44:05.000Z</time>
      </trkpt>
      <trkpt lat="48.02718" lon="7.02277">
        <ele>1003.9</ele>
        <time>2022-07-03T09:44:14.557Z</time>
      </trkpt>
      <trkpt lat="48.02723" lon="7.02267">
        <ele>1005.1</ele>
        <time>2022-07-03T09:44:23.559Z</time>
      </trkpt>
      <trkpt lat="48.02725" lon="7.02259">
        <ele>1006.6</ele>
        <time>2022-07-03T09:44:32.999Z</time>
      </trkpt>
      <trkpt lat="48.02723" lon="7.02246">
        <ele>1011.8</ele>
        <time>2022-07-03T09:44:42.477Z</time>
      </trkpt>
      <trkpt lat="48.02718" lon="7.0224">
        <ele>1014.3</ele>
        <time>2022-07-03T09:44:51.840Z</time>
      </trkpt>
      <trkpt lat="48.02711" lon="7.02232">
        <ele>1017</ele>
        <time>2022-07-03T09:45:01.000Z</time>
      </trkpt>
      <trkpt lat="48.02701" lon="7.0223">
        <ele>1018.7</ele>
        <time>2022-07-03T09:45:10.646Z</time>
      </trkpt>
      <trkpt lat="48.02692" lon="7.02231">
        <ele>1019.6</ele>
        <time>2022-07-03T09:45:19.980Z</time>
      </trkpt>
      <trkpt lat="48.02683" lon="7.02241">
        <ele>1019.3</ele>
        <time>2022-07-03T09:45:29.520Z</time>
      </trkpt>
      <trkpt lat="48.02673" lon="7.02251">
        <ele>1019.8</ele>
        <time>2022-07-03T09:45:39.000Z</time>
      </trkpt>
      <trkpt lat="48.0266" lon="7.02259">
        <ele>1018.2</ele>
        <time>2022-07-03T09:45:48.976Z</time>
      </trkpt>
      <trkpt lat="48.02651" lon="7.02267">
        <ele>1015.8</ele>
        <time>2022-07-03T09:45:59.000Z</time>
      </trkpt>
      <trkpt lat="48.02649" lon="7.02268">
        <ele>1015.4</ele>
        <time>2022-07-03T09:46:09.000Z</time>
      </trkpt>
      <trkpt lat="48.02649" lon="7.02267">
        <ele>1015.2</ele>
        <time>2022-07-03T09:46:27.000Z</time>
      </trkpt>
      <trkpt lat="48.02654" lon="7.02268">
        <ele>1016.5</ele>
        <time>2022-07-03T09:47:07.000Z</time>
      </trkpt>
      <trkpt lat="48.0266" lon="7.02267">
        <ele>1018.1</ele>
        <time>2022-07-03T09:47:17.000Z</time>
      </trkpt>
      <trkpt lat="48.02659" lon="7.02267">
        <ele>1017.7</ele>
        <time>2022-07-03T09:47:45.318Z</time>
      </trkpt>
      <trkpt lat="48.02653" lon="7.02277">
        <ele>1016.9</ele>
        <time>2022-07-03T09:47:54.877Z</time>
      </trkpt>
      <trkpt lat="48.02647" lon="7.02285">
        <ele>1016.4</ele>
        <time>2022-07-03T09:48:04.000Z</time>
      </trkpt>
      <trkpt lat="48.02642" lon="7.02296">
        <ele>1016.9</ele>
        <time>2022-07-03T09:48:13.095Z</time>
      </trkpt>
      <trkpt lat="48.02633" lon="7.02305">
        <ele>1019</ele>
        <time>2022-07-03T09:48:22.839Z</time>
      </trkpt>
      <trkpt lat="48.0262" lon="7.0231">
        <ele>1019.2</ele>
        <time>2022-07-03T09:48:32.040Z</time>
      </trkpt>
      <trkpt lat="48.02611" lon="7.02308">
        <ele>1021.5</ele>
        <time>2022-07-03T09:48:41.679Z</time>
      </trkpt>
      <trkpt lat="48.02603" lon="7.0231">
        <ele>1020</ele>
        <time>2022-07-03T09:48:50.997Z</time>
      </trkpt>
      <trkpt lat="48.02594" lon="7.0231">
        <ele>1019</ele>
        <time>2022-07-03T09:49:00.717Z</time>
      </trkpt>
      <trkpt lat="48.02589" lon="7.02307">
        <ele>1020</ele>
        <time>2022-07-03T09:49:09.967Z</time>
      </trkpt>
      <trkpt lat="48.02584" lon="7.02305">
        <ele>1019.2</ele>
        <time>2022-07-03T09:49:19.000Z</time>
      </trkpt>
      <trkpt lat="48.02582" lon="7.02304">
        <ele>1016.7</ele>
        <time>2022-07-03T09:52:49.000Z</time>
      </trkpt>
      <trkpt lat="48.02529" lon="7.02338">
        <ele>943.4</ele>
        <time>2022-07-03T09:52:58.417Z</time>
      </trkpt>
      <trkpt lat="48.02524" lon="7.02333">
        <ele>938.4</ele>
        <time>2022-07-03T09:53:08.000Z</time>
      </trkpt>
      <trkpt lat="48.02537" lon="7.02322">
        <ele>951.1</ele>
        <time>2022-07-03T09:53:18.000Z</time>
      </trkpt>
      <trkpt lat="48.02546" lon="7.02311">
        <ele>963.9</ele>
        <time>2022-07-03T09:53:28.000Z</time>
      </trkpt>
      <trkpt lat="48.02557" lon="7.02305">
        <ele>981.8</ele>
        <time>2022-07-03T09:53:38.000Z</time>
      </trkpt>
      <trkpt lat="48.02567" lon="7.02303">
        <ele>992.4</ele>
        <time>2022-07-03T09:53:48.000Z</time>
      </trkpt>
      <trkpt lat="48.02568" lon="7.02306">
        <ele>997.1</ele>
        <time>2022-07-03T09:54:50.000Z</time>
      </trkpt>
      <trkpt lat="48.02568" lon="7.02305">
        <ele>997.5</ele>
        <time>2022-07-03T09:55:09.000Z</time>
      </trkpt>
      <trkpt lat="48.02568" lon="7.02303">
        <ele>993.9</ele>
        <time>2022-07-03T09:55:19.000Z</time>
      </trkpt>
      <trkpt lat="48.02572" lon="7.02302">
        <ele>999.3</ele>
        <time>2022-07-03T09:55:58.000Z</time>
      </trkpt>
      <trkpt lat="48.02578" lon="7.02301">
        <ele>1005.4</ele>
        <time>2022-07-03T09:56:08.000Z</time>
      </trkpt>
      <trkpt lat="48.0258" lon="7.02302">
        <ele>1010.6</ele>
        <time>2022-07-03T09:57:28.000Z</time>
      </trkpt>
      <trkpt lat="48.02584" lon="7.02303">
        <ele>1016.3</ele>
        <time>2022-07-03T09:57:38.000Z</time>
      </trkpt>
      <trkpt lat="48.02582" lon="7.02302">
        <ele>1013.5</ele>
        <time>2022-07-03T09:57:48.000Z</time>
      </trkpt>
      <trkpt lat="48.02584" lon="7.02303">
        <ele>1016.4</ele>
        <time>2022-07-03T09:58:26.000Z</time>
      </trkpt>
      <trkpt lat="48.02585" lon="7.02303">
        <ele>1016.6</ele>
        <time>2022-07-03T09:58:36.000Z</time>
      </trkpt>
      <trkpt lat="48.02585" lon="7.02302">
        <ele>1015.6</ele>
        <time>2022-07-03T09:58:57.000Z</time>
      </trkpt>
      <trkpt lat="48.02588" lon="7.02304">
        <ele>1018.5</ele>
        <time>2022-07-03T09:59:07.000Z</time>
      </trkpt>
      <trkpt lat="48.02585" lon="7.02306">
        <ele>1020</ele>
        <time>2022-07-03T09:59:17.000Z</time>
      </trkpt>
      <trkpt lat="48.02587" lon="7.02303">
        <ele>1017</ele>
        <time>2022-07-03T09:59:27.000Z</time>
      </trkpt>
      <trkpt lat="48.02587" lon="7.02298">
        <ele>1010.8</ele>
        <time>2022-07-03T09:59:37.000Z</time>
      </trkpt>
      <trkpt lat="48.02587" lon="7.02296">
        <ele>1007.6</ele>
        <time>2022-07-03T09:59:47.000Z</time>
      </trkpt>
      <trkpt lat="48.02587" lon="7.02298">
        <ele>1010.9</ele>
        <time>2022-07-03T10:00:10.000Z</time>
      </trkpt>
      <trkpt lat="48.02587" lon="7.02302">
        <ele>1015.2</ele>
        <time>2022-07-03T10:00:20.000Z</time>
      </trkpt>
      <trkpt lat="48.02583" lon="7.02303">
        <ele>1016.4</ele>
        <time>2022-07-03T10:00:29.698Z</time>
      </trkpt>
      <trkpt lat="48.02581" lon="7.02303">
        <ele>1013.1</ele>
        <time>2022-07-03T10:00:39.000Z</time>
      </trkpt>
      <trkpt lat="48.02582" lon="7.02302">
        <ele>1013</ele>
        <time>2022-07-03T10:01:21.000Z</time>
      </trkpt>
      <trkpt lat="48.02585" lon="7.02303">
        <ele>1016.8</ele>
        <time>2022-07-03T10:01:31.000Z</time>
      </trkpt>
      <trkpt lat="48.02586" lon="7.02304">
        <ele>1018</ele>
        <time>2022-07-03T10:01:47.000Z</time>
      </trkpt>
      <trkpt lat="48.02591" lon="7.0231">
        <ele>1018.5</ele>
        <time>2022-07-03T10:01:57.000Z</time>
      </trkpt>
      <trkpt lat="48.02589" lon="7.02308">
        <ele>1019.5</ele>
        <time>2022-07-03T10:02:06.699Z</time>
      </trkpt>
      <trkpt lat="48.02589" lon="7.02306">
        <ele>1020.3</ele>
        <time>2022-07-03T10:02:30.000Z</time>
      </trkpt>
      <trkpt lat="48.02591" lon="7.02302">
        <ele>1015.8</ele>
        <time>2022-07-03T10:02:40.000Z</time>
      </trkpt>
      <trkpt lat="48.02586" lon="7.02299">
        <ele>1011.2</ele>
        <time>2022-07-03T10:02:50.000Z</time>
      </trkpt>
      <trkpt lat="48.02585" lon="7.02302">
        <ele>1015.3</ele>
        <time>2022-07-03T10:03:00.000Z</time>
      </trkpt>
      <trkpt lat="48.02584" lon="7.02302">
        <ele>1014.8</ele>
        <time>2022-07-03T10:11:14.000Z</time>
      </trkpt>
      <trkpt lat="48.0258" lon="7.02307">
        <ele>1014.4</ele>
        <time>2022-07-03T10:11:24.000Z</time>
      </trkpt>
      <trkpt lat="48.02583" lon="7.02302">
        <ele>1014.4</ele>
        <time>2022-07-03T10:11:34.000Z</time>
      </trkpt>
      <trkpt lat="48.02584" lon="7.023">
        <ele>1012.4</ele>
        <time>2022-07-03T10:11:44.000Z</time>
      </trkpt>
      <trkpt lat="48.02584" lon="7.02302">
        <ele>1015.2</ele>
        <time>2022-07-03T10:12:02.000Z</time>
      </trkpt>
      <trkpt lat="48.02581" lon="7.02302">
        <ele>1011.5</ele>
        <time>2022-07-03T10:12:12.000Z</time>
      </trkpt>
      <trkpt lat="48.0258" lon="7.023">
        <ele>1008.6</ele>
        <time>2022-07-03T10:12:37.000Z</time>
      </trkpt>
      <trkpt lat="48.02579" lon="7.023">
        <ele>1005.4</ele>
        <time>2022-07-03T10:12:47.000Z</time>
      </trkpt>
      <trkpt lat="48.02581" lon="7.023">
        <ele>1009.2</ele>
        <time>2022-07-03T10:12:57.000Z</time>
      </trkpt>
      <trkpt lat="48.02585" lon="7.02307">
        <ele>1019.6</ele>
        <time>2022-07-03T10:21:55.000Z</time>
      </trkpt>
      <trkpt lat="48.02587" lon="7.0231">
        <ele>1018.1</ele>
        <time>2022-07-03T10:22:05.000Z</time>
      </trkpt>
      <trkpt lat="48.02579" lon="7.02301">
        <ele>1008.5</ele>
        <time>2022-07-03T10:22:15.000Z</time>
      </trkpt>
      <trkpt lat="48.02581" lon="7.02303">
        <ele>1013.6</ele>
        <time>2022-07-03T10:26:22.000Z</time>
      </trkpt>
      <trkpt lat="48.02587" lon="7.02308">
        <ele>1019.4</ele>
        <time>2022-07-03T10:26:32.100Z</time>
      </trkpt>
      <trkpt lat="48.02594" lon="7.02309">
        <ele>1019.5</ele>
        <time>2022-07-03T10:26:41.999Z</time>
      </trkpt>
      <trkpt lat="48.02602" lon="7.02309">
        <ele>1020.2</ele>
        <time>2022-07-03T10:26:51.624Z</time>
      </trkpt>
      <trkpt lat="48.02606" lon="7.02316">
        <ele>1016.7</ele>
        <time>2022-07-03T10:27:01.000Z</time>
      </trkpt>
      <trkpt lat="48.02612" lon="7.02316">
        <ele>1017.1</ele>
        <time>2022-07-03T10:27:10.539Z</time>
      </trkpt>
      <trkpt lat="48.0262" lon="7.02314">
        <ele>1017.5</ele>
        <time>2022-07-03T10:27:20.000Z</time>
      </trkpt>
      <trkpt lat="48.02629" lon="7.02312">
        <ele>1017.4</ele>
        <time>2022-07-03T10:27:29.638Z</time>
      </trkpt>
      <trkpt lat="48.02633" lon="7.02306">
        <ele>1019</ele>
        <time>2022-07-03T10:27:38.642Z</time>
      </trkpt>
      <trkpt lat="48.02637" lon="7.02298">
        <ele>1017</ele>
        <time>2022-07-03T10:27:48.059Z</time>
      </trkpt>
      <trkpt lat="48.02639" lon="7.0229">
        <ele>1016.3</ele>
        <time>2022-07-03T10:27:57.839Z</time>
      </trkpt>
      <trkpt lat="48.02644" lon="7.02283">
        <ele>1016.1</ele>
        <time>2022-07-03T10:28:07.000Z</time>
      </trkpt>
      <trkpt lat="48.0265" lon="7.02271">
        <ele>1016</ele>
        <time>2022-07-03T10:28:16.968Z</time>
      </trkpt>
      <trkpt lat="48.02654" lon="7.02264">
        <ele>1016.4</ele>
        <time>2022-07-03T10:28:26.000Z</time>
      </trkpt>
      <trkpt lat="48.02659" lon="7.0226">
        <ele>1017.9</ele>
        <time>2022-07-03T10:28:35.297Z</time>
      </trkpt>
      <trkpt lat="48.02665" lon="7.02252">
        <ele>1019.9</ele>
        <time>2022-07-03T10:28:44.703Z</time>
      </trkpt>
      <trkpt lat="48.02669" lon="7.02251">
        <ele>1020.6</ele>
        <time>2022-07-03T10:28:54.000Z</time>
      </trkpt>
      <trkpt lat="48.02672" lon="7.02244">
        <ele>1020.6</ele>
        <time>2022-07-03T10:29:03.680Z</time>
      </trkpt>
      <trkpt lat="48.02666" lon="7.02231">
        <ele>1022</ele>
        <time>2022-07-03T10:29:12.681Z</time>
      </trkpt>
      <trkpt lat="48.02658" lon="7.02222">
        <ele>1018.4</ele>
        <time>2022-07-03T10:29:21.778Z</time>
      </trkpt>
      <trkpt lat="48.02651" lon="7.02212">
        <ele>1019.1</ele>
        <time>2022-07-03T10:29:31.421Z</time>
      </trkpt>
      <trkpt lat="48.02645" lon="7.022">
        <ele>1020.8</ele>
        <time>2022-07-03T10:29:41.000Z</time>
      </trkpt>
      <trkpt lat="48.02633" lon="7.02185">
        <ele>1023.5</ele>
        <time>2022-07-03T10:29:50.759Z</time>
      </trkpt>
      <trkpt lat="48.02625" lon="7.02178">
        <ele>1022.7</ele>
        <time>2022-07-03T10:30:00.000Z</time>
      </trkpt>
      <trkpt lat="48.02616" lon="7.02173">
        <ele>1019.8</ele>
        <time>2022-07-03T10:30:10.000Z</time>
      </trkpt>
      <trkpt lat="48.02607" lon="7.02165">
        <ele>1017.3</ele>
        <time>2022-07-03T10:30:20.000Z</time>
      </trkpt>
      <trkpt lat="48.02604" lon="7.02157">
        <ele>1016.1</ele>
        <time>2022-07-03T10:30:29.042Z</time>
      </trkpt>
      <trkpt lat="48.02602" lon="7.02145">
        <ele>1016.2</ele>
        <time>2022-07-03T10:30:38.979Z</time>
      </trkpt>
      <trkpt lat="48.02599" lon="7.02134">
        <ele>1015.1</ele>
        <time>2022-07-03T10:30:48.406Z</time>
      </trkpt>
      <trkpt lat="48.02596" lon="7.02118">
        <ele>1016.2</ele>
        <time>2022-07-03T10:30:57.974Z</time>
      </trkpt>
      <trkpt lat="48.026" lon="7.02105">
        <ele>1023.3</ele>
        <time>2022-07-03T10:31:07.880Z</time>
      </trkpt>
      <trkpt lat="48.026" lon="7.02092">
        <ele>1021.8</ele>
        <time>2022-07-03T10:31:17.038Z</time>
      </trkpt>
      <trkpt lat="48.02602" lon="7.02078">
        <ele>1022.6</ele>
        <time>2022-07-03T10:31:26.540Z</time>
      </trkpt>
      <trkpt lat="48.02605" lon="7.02068">
        <ele>1024.4</ele>
        <time>2022-07-03T10:31:35.975Z</time>
      </trkpt>
      <trkpt lat="48.02606" lon="7.02056">
        <ele>1023.5</ele>
        <time>2022-07-03T10:31:45.000Z</time>
      </trkpt>
      <trkpt lat="48.02608" lon="7.02046">
        <ele>1023.2</ele>
        <time>2022-07-03T10:31:54.578Z</time>
      </trkpt>
      <trkpt lat="48.0261" lon="7.02039">
        <ele>1022.8</ele>
        <time>2022-07-03T10:32:03.741Z</time>
      </trkpt>
      <trkpt lat="48.02613" lon="7.02026">
        <ele>1022.4</ele>
        <time>2022-07-03T10:32:13.000Z</time>
      </trkpt>
      <trkpt lat="48.02618" lon="7.02012">
        <ele>1026.5</ele>
        <time>2022-07-03T10:32:22.974Z</time>
      </trkpt>
      <trkpt lat="48.02625" lon="7.02001">
        <ele>1032.4</ele>
        <time>2022-07-03T10:32:31.999Z</time>
      </trkpt>
      <trkpt lat="48.02631" lon="7.01995">
        <ele>1035.8</ele>
        <time>2022-07-03T10:32:41.000Z</time>
      </trkpt>
      <trkpt lat="48.02633" lon="7.01987">
        <ele>1034.8</ele>
        <time>2022-07-03T10:32:50.478Z</time>
      </trkpt>
      <trkpt lat="48.02636" lon="7.01978">
        <ele>1034.5</ele>
        <time>2022-07-03T10:32:59.580Z</time>
      </trkpt>
      <trkpt lat="48.02642" lon="7.01975">
        <ele>1040.5</ele>
        <time>2022-07-03T10:33:09.000Z</time>
      </trkpt>
      <trkpt lat="48.02649" lon="7.01968">
        <ele>1046.2</ele>
        <time>2022-07-03T10:33:18.967Z</time>
      </trkpt>
      <trkpt lat="48.02651" lon="7.01958">
        <ele>1044.2</ele>
        <time>2022-07-03T10:33:28.000Z</time>
      </trkpt>
      <trkpt lat="48.02652" lon="7.01954">
        <ele>1043.7</ele>
        <time>2022-07-03T10:33:38.000Z</time>
      </trkpt>
      <trkpt lat="48.02653" lon="7.01952">
        <ele>1044.5</ele>
        <time>2022-07-03T10:33:48.000Z</time>
      </trkpt>
      <trkpt lat="48.0265" lon="7.01955">
        <ele>1042.2</ele>
        <time>2022-07-03T10:33:58.000Z</time>
      </trkpt>
      <trkpt lat="48.02652" lon="7.01949">
        <ele>1042</ele>
        <time>2022-07-03T10:34:07.059Z</time>
      </trkpt>
      <trkpt lat="48.0266" lon="7.01947">
        <ele>1048.6</ele>
        <time>2022-07-03T10:34:17.000Z</time>
      </trkpt>
      <trkpt lat="48.02667" lon="7.01944">
        <ele>1053.9</ele>
        <time>2022-07-03T10:34:27.000Z</time>
      </trkpt>
      <trkpt lat="48.0267" lon="7.01937">
        <ele>1053</ele>
        <time>2022-07-03T10:34:37.019Z</time>
      </trkpt>
      <trkpt lat="48.02671" lon="7.01938">
        <ele>1054.7</ele>
        <time>2022-07-03T10:34:48.000Z</time>
      </trkpt>
      <trkpt lat="48.02676" lon="7.0193">
        <ele>1054</ele>
        <time>2022-07-03T10:34:58.000Z</time>
      </trkpt>
      <trkpt lat="48.02675" lon="7.01919">
        <ele>1042.7</ele>
        <time>2022-07-03T10:35:08.000Z</time>
      </trkpt>
      <trkpt lat="48.02677" lon="7.0191">
        <ele>1039.7</ele>
        <time>2022-07-03T10:35:17.437Z</time>
      </trkpt>
      <trkpt lat="48.0268" lon="7.01898">
        <ele>1038.1</ele>
        <time>2022-07-03T10:35:27.099Z</time>
      </trkpt>
      <trkpt lat="48.02681" lon="7.01892">
        <ele>1036.6</ele>
        <time>2022-07-03T10:35:36.561Z</time>
      </trkpt>
      <trkpt lat="48.02684" lon="7.01896">
        <ele>1040.8</ele>
        <time>2022-07-03T10:35:45.780Z</time>
      </trkpt>
      <trkpt lat="48.0269" lon="7.0189">
        <ele>1042</ele>
        <time>2022-07-03T10:35:55.000Z</time>
      </trkpt>
      <trkpt lat="48.02692" lon="7.01876">
        <ele>1037.6</ele>
        <time>2022-07-03T10:36:04.438Z</time>
      </trkpt>
      <trkpt lat="48.02696" lon="7.01867">
        <ele>1037.9</ele>
        <time>2022-07-03T10:36:14.000Z</time>
      </trkpt>
      <trkpt lat="48.02698" lon="7.01866">
        <ele>1039.5</ele>
        <time>2022-07-03T10:36:23.742Z</time>
      </trkpt>
      <trkpt lat="48.02699" lon="7.01862">
        <ele>1038.6</ele>
        <time>2022-07-03T10:36:33.000Z</time>
      </trkpt>
      <trkpt lat="48.02698" lon="7.01855">
        <ele>1035.3</ele>
        <time>2022-07-03T10:36:43.000Z</time>
      </trkpt>
      <trkpt lat="48.02696" lon="7.01856">
        <ele>1032.9</ele>
        <time>2022-07-03T10:36:53.000Z</time>
      </trkpt>
      <trkpt lat="48.02697" lon="7.01859">
        <ele>1034.8</ele>
        <time>2022-07-03T10:37:02.680Z</time>
      </trkpt>
      <trkpt lat="48.02694" lon="7.01853">
        <ele>1029.3</ele>
        <time>2022-07-03T10:37:12.000Z</time>
      </trkpt>
      <trkpt lat="48.02694" lon="7.01846">
        <ele>1026.3</ele>
        <time>2022-07-03T10:37:21.039Z</time>
      </trkpt>
      <trkpt lat="48.02694" lon="7.01836">
        <ele>1022.6</ele>
        <time>2022-07-03T10:37:30.100Z</time>
      </trkpt>
      <trkpt lat="48.02699" lon="7.01829">
        <ele>1028</ele>
        <time>2022-07-03T10:37:39.741Z</time>
      </trkpt>
      <trkpt lat="48.02699" lon="7.01822">
        <ele>1028.6</ele>
        <time>2022-07-03T10:37:49.000Z</time>
      </trkpt>
      <trkpt lat="48.02699" lon="7.01809">
        <ele>1028.3</ele>
        <time>2022-07-03T10:37:58.098Z</time>
      </trkpt>
      <trkpt lat="48.02698" lon="7.01798">
        <ele>1027.7</ele>
        <time>2022-07-03T10:38:07.842Z</time>
      </trkpt>
      <trkpt lat="48.02696" lon="7.0179">
        <ele>1026.1</ele>
        <time>2022-07-03T10:38:17.000Z</time>
      </trkpt>
      <trkpt lat="48.02697" lon="7.01788">
        <ele>1027</ele>
        <time>2022-07-03T10:38:26.682Z</time>
      </trkpt>
      <trkpt lat="48.02696" lon="7.01778">
        <ele>1027.4</ele>
        <time>2022-07-03T10:38:36.000Z</time>
      </trkpt>
      <trkpt lat="48.02695" lon="7.01764">
        <ele>1025.4</ele>
        <time>2022-07-03T10:38:46.000Z</time>
      </trkpt>
      <trkpt lat="48.02699" lon="7.01754">
        <ele>1027.3</ele>
        <time>2022-07-03T10:38:55.039Z</time>
      </trkpt>
      <trkpt lat="48.02704" lon="7.01743">
        <ele>1029.3</ele>
        <time>2022-07-03T10:39:05.000Z</time>
      </trkpt>
      <trkpt lat="48.02704" lon="7.01738">
        <ele>1028.8</ele>
        <time>2022-07-03T10:39:15.096Z</time>
      </trkpt>
      <trkpt lat="48.02708" lon="7.01723">
        <ele>1028.6</ele>
        <time>2022-07-03T10:39:25.000Z</time>
      </trkpt>
      <trkpt lat="48.02707" lon="7.01714">
        <ele>1026.5</ele>
        <time>2022-07-03T10:39:34.696Z</time>
      </trkpt>
      <trkpt lat="48.02712" lon="7.01711">
        <ele>1029.5</ele>
        <time>2022-07-03T10:39:44.000Z</time>
      </trkpt>
      <trkpt lat="48.02716" lon="7.01702">
        <ele>1030.8</ele>
        <time>2022-07-03T10:39:53.599Z</time>
      </trkpt>
      <trkpt lat="48.02718" lon="7.01688">
        <ele>1030.1</ele>
        <time>2022-07-03T10:40:02.959Z</time>
      </trkpt>
      <trkpt lat="48.02721" lon="7.01681">
        <ele>1031.4</ele>
        <time>2022-07-03T10:40:12.417Z</time>
      </trkpt>
      <trkpt lat="48.02726" lon="7.0167">
        <ele>1033.1</ele>
        <time>2022-07-03T10:40:21.856Z</time>
      </trkpt>
      <trkpt lat="48.02729" lon="7.01661">
        <ele>1033</ele>
        <time>2022-07-03T10:40:32.022Z</time>
      </trkpt>
      <trkpt lat="48.02731" lon="7.01653">
        <ele>1032.2</ele>
        <time>2022-07-03T10:40:41.720Z</time>
      </trkpt>
      <trkpt lat="48.02732" lon="7.01643">
        <ele>1030.4</ele>
        <time>2022-07-03T10:40:51.018Z</time>
      </trkpt>
      <trkpt lat="48.0274" lon="7.01636">
        <ele>1032.8</ele>
        <time>2022-07-03T10:41:01.000Z</time>
      </trkpt>
      <trkpt lat="48.0274" lon="7.01632">
        <ele>1032.7</ele>
        <time>2022-07-03T10:41:10.659Z</time>
      </trkpt>
      <trkpt lat="48.02741" lon="7.01629">
        <ele>1032.9</ele>
        <time>2022-07-03T10:41:19.760Z</time>
      </trkpt>
      <trkpt lat="48.02741" lon="7.01623">
        <ele>1033</ele>
        <time>2022-07-03T10:41:29.000Z</time>
      </trkpt>
      <trkpt lat="48.02739" lon="7.01614">
        <ele>1032.3</ele>
        <time>2022-07-03T10:41:38.781Z</time>
      </trkpt>
      <trkpt lat="48.02732" lon="7.01604">
        <ele>1033</ele>
        <time>2022-07-03T10:41:48.058Z</time>
      </trkpt>
      <trkpt lat="48.02728" lon="7.01596">
        <ele>1034.4</ele>
        <time>2022-07-03T10:41:57.974Z</time>
      </trkpt>
      <trkpt lat="48.0273" lon="7.01592">
        <ele>1035.8</ele>
        <time>2022-07-03T10:42:07.000Z</time>
      </trkpt>
      <trkpt lat="48.02726" lon="7.01587">
        <ele>1036.5</ele>
        <time>2022-07-03T10:42:16.972Z</time>
      </trkpt>
      <trkpt lat="48.02716" lon="7.01584">
        <ele>1036.4</ele>
        <time>2022-07-03T10:42:27.021Z</time>
      </trkpt>
      <trkpt lat="48.027" lon="7.01596">
        <ele>1033.7</ele>
        <time>2022-07-03T10:42:36.838Z</time>
      </trkpt>
      <trkpt lat="48.02699" lon="7.01588">
        <ele>1034.7</ele>
        <time>2022-07-03T10:42:46.000Z</time>
      </trkpt>
      <trkpt lat="48.02693" lon="7.01585">
        <ele>1035</ele>
        <time>2022-07-03T10:42:56.000Z</time>
      </trkpt>
      <trkpt lat="48.02688" lon="7.01582">
        <ele>1036.5</ele>
        <time>2022-07-03T10:43:05.859Z</time>
      </trkpt>
      <trkpt lat="48.02675" lon="7.01579">
        <ele>1039</ele>
        <time>2022-07-03T10:43:15.539Z</time>
      </trkpt>
      <trkpt lat="48.02665" lon="7.01578">
        <ele>1040.4</ele>
        <time>2022-07-03T10:43:24.720Z</time>
      </trkpt>
      <trkpt lat="48.02655" lon="7.01578">
        <ele>1040.1</ele>
        <time>2022-07-03T10:43:34.000Z</time>
      </trkpt>
      <trkpt lat="48.02646" lon="7.01578">
        <ele>1039.8</ele>
        <time>2022-07-03T10:43:43.458Z</time>
      </trkpt>
      <trkpt lat="48.02635" lon="7.01579">
        <ele>1038</ele>
        <time>2022-07-03T10:43:53.000Z</time>
      </trkpt>
      <trkpt lat="48.02625" lon="7.01575">
        <ele>1038.9</ele>
        <time>2022-07-03T10:44:02.417Z</time>
      </trkpt>
      <trkpt lat="48.02616" lon="7.01567">
        <ele>1040.4</ele>
        <time>2022-07-03T10:44:11.837Z</time>
      </trkpt>
      <trkpt lat="48.02607" lon="7.0156">
        <ele>1041.9</ele>
        <time>2022-07-03T10:44:21.000Z</time>
      </trkpt>
      <trkpt lat="48.02596" lon="7.01554">
        <ele>1043.9</ele>
        <time>2022-07-03T10:44:31.000Z</time>
      </trkpt>
      <trkpt lat="48.02594" lon="7.01547">
        <ele>1045.1</ele>
        <time>2022-07-03T10:44:40.078Z</time>
      </trkpt>
      <trkpt lat="48.02585" lon="7.01534">
        <ele>1043.7</ele>
        <time>2022-07-03T10:44:49.598Z</time>
      </trkpt>
      <trkpt lat="48.02572" lon="7.01527">
        <ele>1040.3</ele>
        <time>2022-07-03T10:44:59.000Z</time>
      </trkpt>
      <trkpt lat="48.02563" lon="7.01529">
        <ele>1037.9</ele>
        <time>2022-07-03T10:45:08.040Z</time>
      </trkpt>
      <trkpt lat="48.02552" lon="7.01527">
        <ele>1035.2</ele>
        <time>2022-07-03T10:45:17.967Z</time>
      </trkpt>
      <trkpt lat="48.02543" lon="7.01525">
        <ele>1032.6</ele>
        <time>2022-07-03T10:45:27.082Z</time>
      </trkpt>
      <trkpt lat="48.02533" lon="7.01526">
        <ele>1029.3</ele>
        <time>2022-07-03T10:45:36.540Z</time>
      </trkpt>
      <trkpt lat="48.0253" lon="7.01525">
        <ele>1028.5</ele>
        <time>2022-07-03T10:45:46.057Z</time>
      </trkpt>
      <trkpt lat="48.02534" lon="7.01523">
        <ele>1029.7</ele>
        <time>2022-07-03T10:45:55.696Z</time>
      </trkpt>
      <trkpt lat="48.02531" lon="7.01508">
        <ele>1027.9</ele>
        <time>2022-07-03T10:46:05.000Z</time>
      </trkpt>
      <trkpt lat="48.02526" lon="7.01493">
        <ele>1025.7</ele>
        <time>2022-07-03T10:46:14.058Z</time>
      </trkpt>
      <trkpt lat="48.02528" lon="7.01481">
        <ele>1026.2</ele>
        <time>2022-07-03T10:46:24.000Z</time>
      </trkpt>
      <trkpt lat="48.02526" lon="7.01472">
        <ele>1026.1</ele>
        <time>2022-07-03T10:46:34.000Z</time>
      </trkpt>
      <trkpt lat="48.02525" lon="7.01479">
        <ele>1026</ele>
        <time>2022-07-03T10:46:44.017Z</time>
      </trkpt>
      <trkpt lat="48.02518" lon="7.01483">
        <ele>1025.6</ele>
        <time>2022-07-03T10:46:54.000Z</time>
      </trkpt>
      <trkpt lat="48.02507" lon="7.01483">
        <ele>1025</ele>
        <time>2022-07-03T10:47:03.399Z</time>
      </trkpt>
      <trkpt lat="48.02498" lon="7.0148">
        <ele>1025.3</ele>
        <time>2022-07-03T10:47:12.720Z</time>
      </trkpt>
      <trkpt lat="48.02488" lon="7.0147">
        <ele>1027.6</ele>
        <time>2022-07-03T10:47:21.757Z</time>
      </trkpt>
      <trkpt lat="48.02475" lon="7.01463">
        <ele>1029.8</ele>
        <time>2022-07-03T10:47:30.780Z</time>
      </trkpt>
      <trkpt lat="48.02467" lon="7.01459">
        <ele>1031.5</ele>
        <time>2022-07-03T10:47:40.000Z</time>
      </trkpt>
      <trkpt lat="48.02458" lon="7.01466">
        <ele>1029.6</ele>
        <time>2022-07-03T10:47:50.000Z</time>
      </trkpt>
      <trkpt lat="48.02453" lon="7.0147">
        <ele>1028.9</ele>
        <time>2022-07-03T10:47:59.560Z</time>
      </trkpt>
      <trkpt lat="48.02449" lon="7.01467">
        <ele>1030</ele>
        <time>2022-07-03T10:48:08.659Z</time>
      </trkpt>
      <trkpt lat="48.02437" lon="7.01464">
        <ele>1031.1</ele>
        <time>2022-07-03T10:48:17.897Z</time>
      </trkpt>
      <trkpt lat="48.02428" lon="7.01465">
        <ele>1030.8</ele>
        <time>2022-07-03T10:48:27.057Z</time>
      </trkpt>
      <trkpt lat="48.02418" lon="7.01462">
        <ele>1030.8</ele>
        <time>2022-07-03T10:48:36.576Z</time>
      </trkpt>
      <trkpt lat="48.02409" lon="7.01466">
        <ele>1030.3</ele>
        <time>2022-07-03T10:48:45.639Z</time>
      </trkpt>
      <trkpt lat="48.02404" lon="7.01483">
        <ele>1029.8</ele>
        <time>2022-07-03T10:48:55.000Z</time>
      </trkpt>
      <trkpt lat="48.02403" lon="7.01499">
        <ele>1030</ele>
        <time>2022-07-03T10:49:04.640Z</time>
      </trkpt>
      <trkpt lat="48.02397" lon="7.01506">
        <ele>1029.2</ele>
        <time>2022-07-03T10:49:13.739Z</time>
      </trkpt>
      <trkpt lat="48.0239" lon="7.01509">
        <ele>1028.5</ele>
        <time>2022-07-03T10:49:23.056Z</time>
      </trkpt>
      <trkpt lat="48.02383" lon="7.01514">
        <ele>1029.9</ele>
        <time>2022-07-03T10:49:32.970Z</time>
      </trkpt>
      <trkpt lat="48.02373" lon="7.01522">
        <ele>1031.6</ele>
        <time>2022-07-03T10:49:43.000Z</time>
      </trkpt>
      <trkpt lat="48.02371" lon="7.01527">
        <ele>1030.9</ele>
        <time>2022-07-03T10:49:52.718Z</time>
      </trkpt>
      <trkpt lat="48.02367" lon="7.01534">
        <ele>1029.1</ele>
        <time>2022-07-03T10:50:01.819Z</time>
      </trkpt>
      <trkpt lat="48.02359" lon="7.01538">
        <ele>1030.2</ele>
        <time>2022-07-03T10:50:12.000Z</time>
      </trkpt>
      <trkpt lat="48.02356" lon="7.01551">
        <ele>1027.3</ele>
        <time>2022-07-03T10:50:21.319Z</time>
      </trkpt>
      <trkpt lat="48.02349" lon="7.01566">
        <ele>1027</ele>
        <time>2022-07-03T10:50:30.481Z</time>
      </trkpt>
      <trkpt lat="48.02347" lon="7.01581">
        <ele>1024.1</ele>
        <time>2022-07-03T10:50:40.000Z</time>
      </trkpt>
      <trkpt lat="48.02344" lon="7.01579">
        <ele>1025.6</ele>
        <time>2022-07-03T10:50:49.758Z</time>
      </trkpt>
      <trkpt lat="48.02339" lon="7.01587">
        <ele>1024.5</ele>
        <time>2022-07-03T10:50:59.000Z</time>
      </trkpt>
      <trkpt lat="48.02334" lon="7.01594">
        <ele>1023.5</ele>
        <time>2022-07-03T10:51:08.858Z</time>
      </trkpt>
      <trkpt lat="48.02328" lon="7.01594">
        <ele>1025</ele>
        <time>2022-07-03T10:51:18.000Z</time>
      </trkpt>
      <trkpt lat="48.02324" lon="7.01592">
        <ele>1027.5</ele>
        <time>2022-07-03T10:51:28.057Z</time>
      </trkpt>
      <trkpt lat="48.02317" lon="7.01599">
        <ele>1025.3</ele>
        <time>2022-07-03T10:51:38.000Z</time>
      </trkpt>
      <trkpt lat="48.02313" lon="7.01611">
        <ele>1019.6</ele>
        <time>2022-07-03T10:51:47.660Z</time>
      </trkpt>
      <trkpt lat="48.02307" lon="7.01616">
        <ele>1018.4</ele>
        <time>2022-07-03T10:51:56.974Z</time>
      </trkpt>
      <trkpt lat="48.02303" lon="7.01617">
        <ele>1019</ele>
        <time>2022-07-03T10:52:05.976Z</time>
      </trkpt>
      <trkpt lat="48.02299" lon="7.01617">
        <ele>1019.4</ele>
        <time>2022-07-03T10:52:15.377Z</time>
      </trkpt>
      <trkpt lat="48.02292" lon="7.0162">
        <ele>1019.9</ele>
        <time>2022-07-03T10:52:24.440Z</time>
      </trkpt>
      <trkpt lat="48.02286" lon="7.01622">
        <ele>1020</ele>
        <time>2022-07-03T10:52:33.598Z</time>
      </trkpt>
      <trkpt lat="48.02276" lon="7.01625">
        <ele>1020.6</ele>
        <time>2022-07-03T10:52:42.999Z</time>
      </trkpt>
      <trkpt lat="48.02269" lon="7.01624">
        <ele>1021.4</ele>
        <time>2022-07-03T10:52:52.397Z</time>
      </trkpt>
      <trkpt lat="48.02263" lon="7.01621">
        <ele>1022.9</ele>
        <time>2022-07-03T10:53:01.759Z</time>
      </trkpt>
      <trkpt lat="48.02257" lon="7.01618">
        <ele>1024.4</ele>
        <time>2022-07-03T10:53:11.000Z</time>
      </trkpt>
      <trkpt lat="48.02248" lon="7.01621">
        <ele>1023.2</ele>
        <time>2022-07-03T10:53:20.520Z</time>
      </trkpt>
      <trkpt lat="48.02238" lon="7.01621">
        <ele>1022.7</ele>
        <time>2022-07-03T10:53:30.076Z</time>
      </trkpt>
      <trkpt lat="48.0223" lon="7.01619">
        <ele>1023.4</ele>
        <time>2022-07-03T10:53:39.719Z</time>
      </trkpt>
      <trkpt lat="48.02226" lon="7.01619">
        <ele>1023.8</ele>
        <time>2022-07-03T10:53:49.000Z</time>
      </trkpt>
      <trkpt lat="48.02219" lon="7.01621">
        <ele>1022.3</ele>
        <time>2022-07-03T10:53:58.057Z</time>
      </trkpt>
      <trkpt lat="48.0221" lon="7.0162">
        <ele>1022</ele>
        <time>2022-07-03T10:54:08.000Z</time>
      </trkpt>
      <trkpt lat="48.02202" lon="7.01618">
        <ele>1022.4</ele>
        <time>2022-07-03T10:54:17.818Z</time>
      </trkpt>
      <trkpt lat="48.02196" lon="7.01614">
        <ele>1023</ele>
        <time>2022-07-03T10:54:27.317Z</time>
      </trkpt>
      <trkpt lat="48.02191" lon="7.01612">
        <ele>1023.6</ele>
        <time>2022-07-03T10:54:36.969Z</time>
      </trkpt>
      <trkpt lat="48.02183" lon="7.01611">
        <ele>1023.9</ele>
        <time>2022-07-03T10:54:46.000Z</time>
      </trkpt>
      <trkpt lat="48.02174" lon="7.01613">
        <ele>1023.5</ele>
        <time>2022-07-03T10:54:55.059Z</time>
      </trkpt>
      <trkpt lat="48.02167" lon="7.01621">
        <ele>1022.2</ele>
        <time>2022-07-03T10:55:05.040Z</time>
      </trkpt>
      <trkpt lat="48.02163" lon="7.01633">
        <ele>1022.9</ele>
        <time>2022-07-03T10:55:15.000Z</time>
      </trkpt>
      <trkpt lat="48.02163" lon="7.01649">
        <ele>1020</ele>
        <time>2022-07-03T10:55:24.979Z</time>
      </trkpt>
      <trkpt lat="48.02162" lon="7.01656">
        <ele>1020.1</ele>
        <time>2022-07-03T10:55:33.998Z</time>
      </trkpt>
      <trkpt lat="48.02161" lon="7.01661">
        <ele>1019.5</ele>
        <time>2022-07-03T10:55:43.000Z</time>
      </trkpt>
      <trkpt lat="48.0216" lon="7.01662">
        <ele>1020</ele>
        <time>2022-07-03T10:55:58.901Z</time>
      </trkpt>
      <trkpt lat="48.0215" lon="7.01671">
        <ele>1024</ele>
        <time>2022-07-03T10:56:08.000Z</time>
      </trkpt>
      <trkpt lat="48.02143" lon="7.01682">
        <ele>1023.8</ele>
        <time>2022-07-03T10:56:17.057Z</time>
      </trkpt>
      <trkpt lat="48.02141" lon="7.01688">
        <ele>1021.5</ele>
        <time>2022-07-03T10:56:27.081Z</time>
      </trkpt>
      <trkpt lat="48.02138" lon="7.0169">
        <ele>1022</ele>
        <time>2022-07-03T10:56:36.238Z</time>
      </trkpt>
      <trkpt lat="48.02134" lon="7.01696">
        <ele>1021.1</ele>
        <time>2022-07-03T10:56:45.898Z</time>
      </trkpt>
      <trkpt lat="48.02124" lon="7.017">
        <ele>1024.5</ele>
        <time>2022-07-03T10:56:55.980Z</time>
      </trkpt>
      <trkpt lat="48.02116" lon="7.01703">
        <ele>1027.5</ele>
        <time>2022-07-03T10:57:05.000Z</time>
      </trkpt>
      <trkpt lat="48.02111" lon="7.01704">
        <ele>1029.2</ele>
        <time>2022-07-03T10:57:14.062Z</time>
      </trkpt>
      <trkpt lat="48.0211" lon="7.01705">
        <ele>1029.4</ele>
        <time>2022-07-03T10:57:23.098Z</time>
      </trkpt>
      <trkpt lat="48.02106" lon="7.0171">
        <ele>1028.9</ele>
        <time>2022-07-03T10:57:33.040Z</time>
      </trkpt>
      <trkpt lat="48.021" lon="7.01717">
        <ele>1027.6</ele>
        <time>2022-07-03T10:57:42.759Z</time>
      </trkpt>
      <trkpt lat="48.02094" lon="7.01722">
        <ele>1027.3</ele>
        <time>2022-07-03T10:57:53.039Z</time>
      </trkpt>
      <trkpt lat="48.02087" lon="7.01724">
        <ele>1029.6</ele>
        <time>2022-07-03T10:58:02.782Z</time>
      </trkpt>
      <trkpt lat="48.02081" lon="7.01728">
        <ele>1029.6</ele>
        <time>2022-07-03T10:58:12.000Z</time>
      </trkpt>
      <trkpt lat="48.02075" lon="7.01731">
        <ele>1029.8</ele>
        <time>2022-07-03T10:58:21.078Z</time>
      </trkpt>
      <trkpt lat="48.02066" lon="7.01737">
        <ele>1028</ele>
        <time>2022-07-03T10:58:30.518Z</time>
      </trkpt>
      <trkpt lat="48.02058" lon="7.01736">
        <ele>1030.4</ele>
        <time>2022-07-03T10:58:40.000Z</time>
      </trkpt>
      <trkpt lat="48.02051" lon="7.01734">
        <ele>1032.5</ele>
        <time>2022-07-03T10:58:50.000Z</time>
      </trkpt>
      <trkpt lat="48.02046" lon="7.01734">
        <ele>1032.8</ele>
        <time>2022-07-03T10:58:59.660Z</time>
      </trkpt>
      <trkpt lat="48.02045" lon="7.01736">
        <ele>1031.5</ele>
        <time>2022-07-03T10:59:09.000Z</time>
      </trkpt>
      <trkpt lat="48.02043" lon="7.01729">
        <ele>1036.5</ele>
        <time>2022-07-03T10:59:19.020Z</time>
      </trkpt>
      <trkpt lat="48.02038" lon="7.01726">
        <ele>1037.9</ele>
        <time>2022-07-03T10:59:28.699Z</time>
      </trkpt>
      <trkpt lat="48.02041" lon="7.01728">
        <ele>1036.9</ele>
        <time>2022-07-03T10:59:38.000Z</time>
      </trkpt>
      <trkpt lat="48.02044" lon="7.01733">
        <ele>1033.9</ele>
        <time>2022-07-03T10:59:48.000Z</time>
      </trkpt>
      <trkpt lat="48.02046" lon="7.01728">
        <ele>1037</ele>
        <time>2022-07-03T10:59:58.000Z</time>
      </trkpt>
      <trkpt lat="48.02044" lon="7.0172">
        <ele>1042.8</ele>
        <time>2022-07-03T11:00:08.000Z</time>
      </trkpt>
      <trkpt lat="48.02044" lon="7.01712">
        <ele>1048</ele>
        <time>2022-07-03T11:00:18.000Z</time>
      </trkpt>
      <trkpt lat="48.02039" lon="7.01708">
        <ele>1050.1</ele>
        <time>2022-07-03T11:00:28.079Z</time>
      </trkpt>
      <trkpt lat="48.02031" lon="7.01709">
        <ele>1048.3</ele>
        <time>2022-07-03T11:00:37.737Z</time>
      </trkpt>
      <trkpt lat="48.02028" lon="7.01705">
        <ele>1050.6</ele>
        <time>2022-07-03T11:00:47.000Z</time>
      </trkpt>
      <trkpt lat="48.02027" lon="7.01705">
        <ele>1051.5</ele>
        <time>2022-07-03T11:01:00.799Z</time>
      </trkpt>
      <trkpt lat="48.02022" lon="7.01708">
        <ele>1052.6</ele>
        <time>2022-07-03T11:01:10.000Z</time>
      </trkpt>
      <trkpt lat="48.02017" lon="7.01713">
        <ele>1052.5</ele>
        <time>2022-07-03T11:01:19.622Z</time>
      </trkpt>
      <trkpt lat="48.0201" lon="7.01719">
        <ele>1053.1</ele>
        <time>2022-07-03T11:01:28.718Z</time>
      </trkpt>
      <trkpt lat="48.02004" lon="7.01731">
        <ele>1050.9</ele>
        <time>2022-07-03T11:01:38.000Z</time>
      </trkpt>
      <trkpt lat="48.02" lon="7.01736">
        <ele>1050.2</ele>
        <time>2022-07-03T11:01:47.818Z</time>
      </trkpt>
      <trkpt lat="48.01998" lon="7.0174">
        <ele>1048.2</ele>
        <time>2022-07-03T11:01:57.000Z</time>
      </trkpt>
      <trkpt lat="48.01994" lon="7.01742">
        <ele>1048.2</ele>
        <time>2022-07-03T11:02:06.540Z</time>
      </trkpt>
      <trkpt lat="48.01993" lon="7.01744">
        <ele>1047.4</ele>
        <time>2022-07-03T11:02:38.000Z</time>
      </trkpt>
      <trkpt lat="48.01986" lon="7.01745">
        <ele>1049.6</ele>
        <time>2022-07-03T11:02:47.558Z</time>
      </trkpt>
      <trkpt lat="48.01979" lon="7.01745">
        <ele>1052.4</ele>
        <time>2022-07-03T11:02:56.840Z</time>
      </trkpt>
      <trkpt lat="48.01972" lon="7.01744">
        <ele>1055.9</ele>
        <time>2022-07-03T11:03:06.000Z</time>
      </trkpt>
      <trkpt lat="48.01966" lon="7.0174">
        <ele>1057.6</ele>
        <time>2022-07-03T11:03:16.000Z</time>
      </trkpt>
      <trkpt lat="48.01959" lon="7.01737">
        <ele>1059.3</ele>
        <time>2022-07-03T11:03:25.738Z</time>
      </trkpt>
      <trkpt lat="48.01955" lon="7.01731">
        <ele>1062.1</ele>
        <time>2022-07-03T11:03:35.000Z</time>
      </trkpt>
      <trkpt lat="48.01948" lon="7.01724">
        <ele>1065.3</ele>
        <time>2022-07-03T11:03:44.021Z</time>
      </trkpt>
      <trkpt lat="48.01937" lon="7.01721">
        <ele>1066.9</ele>
        <time>2022-07-03T11:03:54.000Z</time>
      </trkpt>
      <trkpt lat="48.01929" lon="7.01721">
        <ele>1067.1</ele>
        <time>2022-07-03T11:04:03.101Z</time>
      </trkpt>
      <trkpt lat="48.01921" lon="7.01722">
        <ele>1066.4</ele>
        <time>2022-07-03T11:04:12.781Z</time>
      </trkpt>
      <trkpt lat="48.01914" lon="7.01725">
        <ele>1065.2</ele>
        <time>2022-07-03T11:04:21.859Z</time>
      </trkpt>
      <trkpt lat="48.01909" lon="7.01725">
        <ele>1066.3</ele>
        <time>2022-07-03T11:04:31.000Z</time>
      </trkpt>
      <trkpt lat="48.01903" lon="7.01727">
        <ele>1066.7</ele>
        <time>2022-07-03T11:04:40.637Z</time>
      </trkpt>
      <trkpt lat="48.01894" lon="7.01731">
        <ele>1066.7</ele>
        <time>2022-07-03T11:04:49.821Z</time>
      </trkpt>
      <trkpt lat="48.0189" lon="7.01734">
        <ele>1066.4</ele>
        <time>2022-07-03T11:04:59.000Z</time>
      </trkpt>
      <trkpt lat="48.01885" lon="7.0175">
        <ele>1063.2</ele>
        <time>2022-07-03T11:05:09.000Z</time>
      </trkpt>
      <trkpt lat="48.01881" lon="7.01758">
        <ele>1062.8</ele>
        <time>2022-07-03T11:05:18.972Z</time>
      </trkpt>
      <trkpt lat="48.01873" lon="7.01764">
        <ele>1065.6</ele>
        <time>2022-07-03T11:05:28.516Z</time>
      </trkpt>
      <trkpt lat="48.01866" lon="7.01773">
        <ele>1066.8</ele>
        <time>2022-07-03T11:05:38.000Z</time>
      </trkpt>
      <trkpt lat="48.0186" lon="7.01782">
        <ele>1066.7</ele>
        <time>2022-07-03T11:05:47.636Z</time>
      </trkpt>
      <trkpt lat="48.01855" lon="7.01783">
        <ele>1068.1</ele>
        <time>2022-07-03T11:05:56.861Z</time>
      </trkpt>
      <trkpt lat="48.01849" lon="7.01786">
        <ele>1068.8</ele>
        <time>2022-07-03T11:06:06.000Z</time>
      </trkpt>
      <trkpt lat="48.01842" lon="7.01788">
        <ele>1070.9</ele>
        <time>2022-07-03T11:06:15.520Z</time>
      </trkpt>
      <trkpt lat="48.01836" lon="7.0179">
        <ele>1071.9</ele>
        <time>2022-07-03T11:06:24.718Z</time>
      </trkpt>
      <trkpt lat="48.01831" lon="7.0179">
        <ele>1074.2</ele>
        <time>2022-07-03T11:06:33.799Z</time>
      </trkpt>
      <trkpt lat="48.01821" lon="7.01793">
        <ele>1077.7</ele>
        <time>2022-07-03T11:06:43.000Z</time>
      </trkpt>
      <trkpt lat="48.01814" lon="7.01803">
        <ele>1077.3</ele>
        <time>2022-07-03T11:06:52.398Z</time>
      </trkpt>
      <trkpt lat="48.01801" lon="7.01813">
        <ele>1080</ele>
        <time>2022-07-03T11:07:01.741Z</time>
      </trkpt>
      <trkpt lat="48.01795" lon="7.01831">
        <ele>1076.2</ele>
        <time>2022-07-03T11:07:11.000Z</time>
      </trkpt>
      <trkpt lat="48.01791" lon="7.01841">
        <ele>1075.8</ele>
        <time>2022-07-03T11:07:20.862Z</time>
      </trkpt>
      <trkpt lat="48.01794" lon="7.01852">
        <ele>1075.1</ele>
        <time>2022-07-03T11:07:30.000Z</time>
      </trkpt>
      <trkpt lat="48.01793" lon="7.01854">
        <ele>1075.1</ele>
        <time>2022-07-03T11:10:09.000Z</time>
      </trkpt>
      <trkpt lat="48.01789" lon="7.01866">
        <ele>1075.1</ele>
        <time>2022-07-03T11:10:18.957Z</time>
      </trkpt>
      <trkpt lat="48.01788" lon="7.01869">
        <ele>1075.1</ele>
        <time>2022-07-03T11:10:28.000Z</time>
      </trkpt>
      <trkpt lat="48.01788" lon="7.01871">
        <ele>1075.1</ele>
        <time>2022-07-03T11:10:51.000Z</time>
      </trkpt>
      <trkpt lat="48.0178" lon="7.01875">
        <ele>1075.4</ele>
        <time>2022-07-03T11:11:01.000Z</time>
      </trkpt>
      <trkpt lat="48.01784" lon="7.0187">
        <ele>1075.3</ele>
        <time>2022-07-03T11:11:11.000Z</time>
      </trkpt>
      <trkpt lat="48.01784" lon="7.01872">
        <ele>1075.2</ele>
        <time>2022-07-03T11:11:26.000Z</time>
      </trkpt>
      <trkpt lat="48.01787" lon="7.01875">
        <ele>1075</ele>
        <time>2022-07-03T11:11:36.000Z</time>
      </trkpt>
      <trkpt lat="48.01784" lon="7.0188">
        <ele>1075</ele>
        <time>2022-07-03T11:11:46.000Z</time>
      </trkpt>
      <trkpt lat="48.01786" lon="7.01875">
        <ele>1075.1</ele>
        <time>2022-07-03T11:11:56.000Z</time>
      </trkpt>
      <trkpt lat="48.01788" lon="7.01874">
        <ele>1075</ele>
        <time>2022-07-03T11:12:06.000Z</time>
      </trkpt>
      <trkpt lat="48.01789" lon="7.01872">
        <ele>1075</ele>
        <time>2022-07-03T11:12:21.000Z</time>
      </trkpt>
      <trkpt lat="48.01791" lon="7.0187">
        <ele>1074.9</ele>
        <time>2022-07-03T11:12:31.000Z</time>
      </trkpt>
      <trkpt lat="48.01787" lon="7.01875">
        <ele>1075</ele>
        <time>2022-07-03T11:12:41.000Z</time>
      </trkpt>
      <trkpt lat="48.01784" lon="7.0188">
        <ele>1075</ele>
        <time>2022-07-03T11:12:51.000Z</time>
      </trkpt>
      <trkpt lat="48.01782" lon="7.01899">
        <ele>1074</ele>
        <time>2022-07-03T11:13:01.000Z</time>
      </trkpt>
      <trkpt lat="48.01782" lon="7.01896">
        <ele>1074.3</ele>
        <time>2022-07-03T11:13:11.000Z</time>
      </trkpt>
      <trkpt lat="48.01783" lon="7.01894">
        <ele>1074.4</ele>
        <time>2022-07-03T11:16:33.000Z</time>
      </trkpt>
      <trkpt lat="48.01776" lon="7.01876">
        <ele>1074.9</ele>
        <time>2022-07-03T11:16:42.969Z</time>
      </trkpt>
      <trkpt lat="48.01772" lon="7.0186">
        <ele>1074.6</ele>
        <time>2022-07-03T11:16:52.000Z</time>
      </trkpt>
      <trkpt lat="48.01767" lon="7.01848">
        <ele>1074.2</ele>
        <time>2022-07-03T11:17:02.000Z</time>
      </trkpt>
      <trkpt lat="48.01761" lon="7.01841">
        <ele>1073.6</ele>
        <time>2022-07-03T11:17:11.801Z</time>
      </trkpt>
      <trkpt lat="48.01758" lon="7.01835">
        <ele>1073.5</ele>
        <time>2022-07-03T11:17:21.000Z</time>
      </trkpt>
      <trkpt lat="48.01753" lon="7.01826">
        <ele>1074.9</ele>
        <time>2022-07-03T11:17:30.957Z</time>
      </trkpt>
      <trkpt lat="48.01745" lon="7.0182">
        <ele>1073.8</ele>
        <time>2022-07-03T11:17:40.000Z</time>
      </trkpt>
      <trkpt lat="48.01741" lon="7.01819">
        <ele>1072.3</ele>
        <time>2022-07-03T11:17:50.080Z</time>
      </trkpt>
      <trkpt lat="48.01741" lon="7.01817">
        <ele>1073</ele>
        <time>2022-07-03T11:18:02.000Z</time>
      </trkpt>
      <trkpt lat="48.01742" lon="7.01806">
        <ele>1076.9</ele>
        <time>2022-07-03T11:18:11.016Z</time>
      </trkpt>
      <trkpt lat="48.0174" lon="7.018">
        <ele>1077.8</ele>
        <time>2022-07-03T11:18:20.356Z</time>
      </trkpt>
      <trkpt lat="48.01731" lon="7.01796">
        <ele>1075.4</ele>
        <time>2022-07-03T11:18:30.000Z</time>
      </trkpt>
      <trkpt lat="48.01724" lon="7.01792">
        <ele>1074.2</ele>
        <time>2022-07-03T11:18:39.598Z</time>
      </trkpt>
      <trkpt lat="48.01718" lon="7.0179">
        <ele>1071.7</ele>
        <time>2022-07-03T11:18:48.800Z</time>
      </trkpt>
      <trkpt lat="48.01708" lon="7.01788">
        <ele>1068</ele>
        <time>2022-07-03T11:18:58.000Z</time>
      </trkpt>
      <trkpt lat="48.01699" lon="7.01779">
        <ele>1065.9</ele>
        <time>2022-07-03T11:19:07.522Z</time>
      </trkpt>
      <trkpt lat="48.01694" lon="7.0177">
        <ele>1066.5</ele>
        <time>2022-07-03T11:19:16.779Z</time>
      </trkpt>
      <trkpt lat="48.01685" lon="7.01757">
        <ele>1066.5</ele>
        <time>2022-07-03T11:19:26.000Z</time>
      </trkpt>
      <trkpt lat="48.0168" lon="7.01746">
        <ele>1067.1</ele>
        <time>2022-07-03T11:19:35.621Z</time>
      </trkpt>
      <trkpt lat="48.01673" lon="7.01739">
        <ele>1066.3</ele>
        <time>2022-07-03T11:19:45.095Z</time>
      </trkpt>
      <trkpt lat="48.01667" lon="7.01724">
        <ele>1066.8</ele>
        <time>2022-07-03T11:19:54.538Z</time>
      </trkpt>
      <trkpt lat="48.0166" lon="7.01713">
        <ele>1067.1</ele>
        <time>2022-07-03T11:20:04.000Z</time>
      </trkpt>
      <trkpt lat="48.01649" lon="7.01702">
        <ele>1064.7</ele>
        <time>2022-07-03T11:20:13.096Z</time>
      </trkpt>
      <trkpt lat="48.0164" lon="7.01691">
        <ele>1063.5</ele>
        <time>2022-07-03T11:20:23.099Z</time>
      </trkpt>
      <trkpt lat="48.01637" lon="7.01682">
        <ele>1064.8</ele>
        <time>2022-07-03T11:20:32.602Z</time>
      </trkpt>
      <trkpt lat="48.01633" lon="7.01674">
        <ele>1065.8</ele>
        <time>2022-07-03T11:20:41.978Z</time>
      </trkpt>
      <trkpt lat="48.01626" lon="7.01659">
        <ele>1068.1</ele>
        <time>2022-07-03T11:20:51.000Z</time>
      </trkpt>
      <trkpt lat="48.0162" lon="7.01651">
        <ele>1067.9</ele>
        <time>2022-07-03T11:21:00.380Z</time>
      </trkpt>
      <trkpt lat="48.01612" lon="7.01644">
        <ele>1067</ele>
        <time>2022-07-03T11:21:09.678Z</time>
      </trkpt>
      <trkpt lat="48.01603" lon="7.01636">
        <ele>1066.8</ele>
        <time>2022-07-03T11:21:18.836Z</time>
      </trkpt>
      <trkpt lat="48.01591" lon="7.01631">
        <ele>1065.4</ele>
        <time>2022-07-03T11:21:28.000Z</time>
      </trkpt>
      <trkpt lat="48.01584" lon="7.01626">
        <ele>1065.1</ele>
        <time>2022-07-03T11:21:37.020Z</time>
      </trkpt>
      <trkpt lat="48.01575" lon="7.01621">
        <ele>1065</ele>
        <time>2022-07-03T11:21:47.000Z</time>
      </trkpt>
      <trkpt lat="48.01562" lon="7.01613">
        <ele>1064.3</ele>
        <time>2022-07-03T11:21:57.019Z</time>
      </trkpt>
      <trkpt lat="48.01552" lon="7.01607">
        <ele>1064.3</ele>
        <time>2022-07-03T11:22:06.604Z</time>
      </trkpt>
      <trkpt lat="48.01545" lon="7.01601">
        <ele>1065.3</ele>
        <time>2022-07-03T11:22:16.116Z</time>
      </trkpt>
      <trkpt lat="48.01536" lon="7.01595">
        <ele>1066.4</ele>
        <time>2022-07-03T11:22:25.615Z</time>
      </trkpt>
      <trkpt lat="48.01526" lon="7.01591">
        <ele>1066</ele>
        <time>2022-07-03T11:22:34.701Z</time>
      </trkpt>
      <trkpt lat="48.01518" lon="7.01589">
        <ele>1065.2</ele>
        <time>2022-07-03T11:22:43.800Z</time>
      </trkpt>
      <trkpt lat="48.01507" lon="7.01585">
        <ele>1064.3</ele>
        <time>2022-07-03T11:22:53.000Z</time>
      </trkpt>
      <trkpt lat="48.01499" lon="7.01579">
        <ele>1064.5</ele>
        <time>2022-07-03T11:23:02.719Z</time>
      </trkpt>
      <trkpt lat="48.01491" lon="7.0157">
        <ele>1066.4</ele>
        <time>2022-07-03T11:23:11.796Z</time>
      </trkpt>
      <trkpt lat="48.01483" lon="7.01564">
        <ele>1067.1</ele>
        <time>2022-07-03T11:23:21.000Z</time>
      </trkpt>
      <trkpt lat="48.01471" lon="7.01562">
        <ele>1065.7</ele>
        <time>2022-07-03T11:23:30.019Z</time>
      </trkpt>
      <trkpt lat="48.01458" lon="7.0156">
        <ele>1065.5</ele>
        <time>2022-07-03T11:23:39.838Z</time>
      </trkpt>
      <trkpt lat="48.01449" lon="7.01558">
        <ele>1065.5</ele>
        <time>2022-07-03T11:23:49.000Z</time>
      </trkpt>
      <trkpt lat="48.01446" lon="7.01562">
        <ele>1063.6</ele>
        <time>2022-07-03T11:23:59.000Z</time>
      </trkpt>
      <trkpt lat="48.01444" lon="7.01562">
        <ele>1063.8</ele>
        <time>2022-07-03T11:24:16.897Z</time>
      </trkpt>
      <trkpt lat="48.01434" lon="7.01561">
        <ele>1064.6</ele>
        <time>2022-07-03T11:24:26.000Z</time>
      </trkpt>
      <trkpt lat="48.01432" lon="7.01562">
        <ele>1064.3</ele>
        <time>2022-07-03T11:24:36.000Z</time>
      </trkpt>
      <trkpt lat="48.0143" lon="7.01559">
        <ele>1065.2</ele>
        <time>2022-07-03T11:24:57.000Z</time>
      </trkpt>
      <trkpt lat="48.01415" lon="7.01557">
        <ele>1066.9</ele>
        <time>2022-07-03T11:25:06.822Z</time>
      </trkpt>
      <trkpt lat="48.01404" lon="7.01562">
        <ele>1066.6</ele>
        <time>2022-07-03T11:25:16.059Z</time>
      </trkpt>
      <trkpt lat="48.014" lon="7.01564">
        <ele>1066.7</ele>
        <time>2022-07-03T11:25:25.775Z</time>
      </trkpt>
      <trkpt lat="48.0139" lon="7.0157">
        <ele>1066.1</ele>
        <time>2022-07-03T11:25:35.000Z</time>
      </trkpt>
      <trkpt lat="48.01377" lon="7.0158">
        <ele>1065.8</ele>
        <time>2022-07-03T11:25:45.000Z</time>
      </trkpt>
      <trkpt lat="48.01368" lon="7.01585">
        <ele>1065.8</ele>
        <time>2022-07-03T11:25:54.136Z</time>
      </trkpt>
      <trkpt lat="48.01366" lon="7.01586">
        <ele>1065.9</ele>
        <time>2022-07-03T11:26:04.000Z</time>
      </trkpt>
      <trkpt lat="48.01364" lon="7.01592">
        <ele>1063.9</ele>
        <time>2022-07-03T11:26:14.000Z</time>
      </trkpt>
      <trkpt lat="48.01366" lon="7.01596">
        <ele>1062</ele>
        <time>2022-07-03T11:26:24.000Z</time>
      </trkpt>
      <trkpt lat="48.01365" lon="7.01595">
        <ele>1062.6</ele>
        <time>2022-07-03T11:26:38.000Z</time>
      </trkpt>
      <trkpt lat="48.01362" lon="7.01589">
        <ele>1065.7</ele>
        <time>2022-07-03T11:26:47.021Z</time>
      </trkpt>
      <trkpt lat="48.01363" lon="7.01587">
        <ele>1066.1</ele>
        <time>2022-07-03T11:26:57.000Z</time>
      </trkpt>
      <trkpt lat="48.01368" lon="7.01586">
        <ele>1065.6</ele>
        <time>2022-07-03T11:27:07.000Z</time>
      </trkpt>
      <trkpt lat="48.01367" lon="7.01588">
        <ele>1065</ele>
        <time>2022-07-03T11:27:20.837Z</time>
      </trkpt>
      <trkpt lat="48.0136" lon="7.01594">
        <ele>1063.7</ele>
        <time>2022-07-03T11:27:30.000Z</time>
      </trkpt>
      <trkpt lat="48.01353" lon="7.01597">
        <ele>1063</ele>
        <time>2022-07-03T11:27:40.017Z</time>
      </trkpt>
      <trkpt lat="48.01346" lon="7.01602">
        <ele>1061.5</ele>
        <time>2022-07-03T11:27:50.000Z</time>
      </trkpt>
      <trkpt lat="48.01345" lon="7.01602">
        <ele>1061.5</ele>
        <time>2022-07-03T11:28:00.000Z</time>
      </trkpt>
      <trkpt lat="48.01345" lon="7.016">
        <ele>1062</ele>
        <time>2022-07-03T11:28:10.000Z</time>
      </trkpt>
      <trkpt lat="48.01334" lon="7.01595">
        <ele>1064.2</ele>
        <time>2022-07-03T11:28:20.000Z</time>
      </trkpt>
      <trkpt lat="48.01337" lon="7.016">
        <ele>1062.4</ele>
        <time>2022-07-03T11:28:48.000Z</time>
      </trkpt>
      <trkpt lat="48.0134" lon="7.01603">
        <ele>1061.4</ele>
        <time>2022-07-03T11:28:58.000Z</time>
      </trkpt>
      <trkpt lat="48.01343" lon="7.01606">
        <ele>1060</ele>
        <time>2022-07-03T11:29:08.000Z</time>
      </trkpt>
      <trkpt lat="48.01348" lon="7.01604">
        <ele>1060.7</ele>
        <time>2022-07-03T11:29:18.000Z</time>
      </trkpt>
      <trkpt lat="48.01348" lon="7.01606">
        <ele>1059.7</ele>
        <time>2022-07-03T11:29:28.000Z</time>
      </trkpt>
      <trkpt lat="48.01349" lon="7.01601">
        <ele>1061.6</ele>
        <time>2022-07-03T11:29:39.000Z</time>
      </trkpt>
      <trkpt lat="48.0135" lon="7.01599">
        <ele>1062.3</ele>
        <time>2022-07-03T11:29:49.000Z</time>
      </trkpt>
      <trkpt lat="48.01345" lon="7.01602">
        <ele>1061.6</ele>
        <time>2022-07-03T11:29:59.000Z</time>
      </trkpt>
      <trkpt lat="48.01345" lon="7.0161">
        <ele>1058.5</ele>
        <time>2022-07-03T11:30:09.000Z</time>
      </trkpt>
      <trkpt lat="48.01341" lon="7.01617">
        <ele>1056.9</ele>
        <time>2022-07-03T11:30:19.000Z</time>
      </trkpt>
      <trkpt lat="48.01338" lon="7.0161">
        <ele>1059.2</ele>
        <time>2022-07-03T11:30:29.000Z</time>
      </trkpt>
      <trkpt lat="48.01339" lon="7.01612">
        <ele>1058.5</ele>
        <time>2022-07-03T11:30:38.059Z</time>
      </trkpt>
      <trkpt lat="48.01333" lon="7.01593">
        <ele>1064.7</ele>
        <time>2022-07-03T11:30:47.818Z</time>
      </trkpt>
      <trkpt lat="48.01324" lon="7.01588">
        <ele>1063.9</ele>
        <time>2022-07-03T11:30:57.120Z</time>
      </trkpt>
      <trkpt lat="48.01311" lon="7.01579">
        <ele>1063.9</ele>
        <time>2022-07-03T11:31:06.960Z</time>
      </trkpt>
      <trkpt lat="48.01301" lon="7.01569">
        <ele>1065.5</ele>
        <time>2022-07-03T11:31:16.000Z</time>
      </trkpt>
      <trkpt lat="48.0129" lon="7.01563">
        <ele>1065</ele>
        <time>2022-07-03T11:31:26.000Z</time>
      </trkpt>
      <trkpt lat="48.01282" lon="7.01552">
        <ele>1067.4</ele>
        <time>2022-07-03T11:31:36.000Z</time>
      </trkpt>
      <trkpt lat="48.01275" lon="7.01546">
        <ele>1068</ele>
        <time>2022-07-03T11:31:45.479Z</time>
      </trkpt>
      <trkpt lat="48.01269" lon="7.01543">
        <ele>1067.7</ele>
        <time>2022-07-03T11:31:55.021Z</time>
      </trkpt>
      <trkpt lat="48.01261" lon="7.01534">
        <ele>1068.8</ele>
        <time>2022-07-03T11:32:05.000Z</time>
      </trkpt>
      <trkpt lat="48.01252" lon="7.01524">
        <ele>1069.3</ele>
        <time>2022-07-03T11:32:15.000Z</time>
      </trkpt>
      <trkpt lat="48.01243" lon="7.01521">
        <ele>1067.1</ele>
        <time>2022-07-03T11:32:24.977Z</time>
      </trkpt>
      <trkpt lat="48.01235" lon="7.01509">
        <ele>1067.7</ele>
        <time>2022-07-03T11:32:34.096Z</time>
      </trkpt>
      <trkpt lat="48.01227" lon="7.01495">
        <ele>1068.4</ele>
        <time>2022-07-03T11:32:43.757Z</time>
      </trkpt>
      <trkpt lat="48.01225" lon="7.01484">
        <ele>1069.1</ele>
        <time>2022-07-03T11:32:53.000Z</time>
      </trkpt>
      <trkpt lat="48.01222" lon="7.01474">
        <ele>1069.6</ele>
        <time>2022-07-03T11:33:02.778Z</time>
      </trkpt>
      <trkpt lat="48.01218" lon="7.01457">
        <ele>1069.1</ele>
        <time>2022-07-03T11:33:11.997Z</time>
      </trkpt>
      <trkpt lat="48.01216" lon="7.01441">
        <ele>1068.7</ele>
        <time>2022-07-03T11:33:21.000Z</time>
      </trkpt>
      <trkpt lat="48.01216" lon="7.01424">
        <ele>1069.5</ele>
        <time>2022-07-03T11:33:30.737Z</time>
      </trkpt>
      <trkpt lat="48.01215" lon="7.01409">
        <ele>1069.3</ele>
        <time>2022-07-03T11:33:39.975Z</time>
      </trkpt>
      <trkpt lat="48.01211" lon="7.01393">
        <ele>1068.3</ele>
        <time>2022-07-03T11:33:49.000Z</time>
      </trkpt>
      <trkpt lat="48.01211" lon="7.01377">
        <ele>1069.8</ele>
        <time>2022-07-03T11:33:59.077Z</time>
      </trkpt>
      <trkpt lat="48.0121" lon="7.01366">
        <ele>1070.3</ele>
        <time>2022-07-03T11:34:08.518Z</time>
      </trkpt>
      <trkpt lat="48.0121" lon="7.01358">
        <ele>1070.9</ele>
        <time>2022-07-03T11:34:17.717Z</time>
      </trkpt>
      <trkpt lat="48.01213" lon="7.01342">
        <ele>1073.3</ele>
        <time>2022-07-03T11:34:27.000Z</time>
      </trkpt>
      <trkpt lat="48.01214" lon="7.01329">
        <ele>1073.9</ele>
        <time>2022-07-03T11:34:36.060Z</time>
      </trkpt>
      <trkpt lat="48.01213" lon="7.01312">
        <ele>1072.8</ele>
        <time>2022-07-03T11:34:45.458Z</time>
      </trkpt>
      <trkpt lat="48.01215" lon="7.01298">
        <ele>1074.5</ele>
        <time>2022-07-03T11:34:55.019Z</time>
      </trkpt>
      <trkpt lat="48.01219" lon="7.01284">
        <ele>1076.4</ele>
        <time>2022-07-03T11:35:04.098Z</time>
      </trkpt>
      <trkpt lat="48.0122" lon="7.01268">
        <ele>1076</ele>
        <time>2022-07-03T11:35:13.721Z</time>
      </trkpt>
      <trkpt lat="48.01224" lon="7.01257">
        <ele>1077.3</ele>
        <time>2022-07-03T11:35:23.000Z</time>
      </trkpt>
      <trkpt lat="48.01232" lon="7.01254">
        <ele>1080.8</ele>
        <time>2022-07-03T11:35:32.936Z</time>
      </trkpt>
      <trkpt lat="48.01228" lon="7.01246">
        <ele>1078.1</ele>
        <time>2022-07-03T11:35:41.999Z</time>
      </trkpt>
      <trkpt lat="48.01229" lon="7.01242">
        <ele>1077.7</ele>
        <time>2022-07-03T11:35:51.000Z</time>
      </trkpt>
      <trkpt lat="48.01235" lon="7.01224">
        <ele>1076.6</ele>
        <time>2022-07-03T11:36:00.538Z</time>
      </trkpt>
      <trkpt lat="48.01243" lon="7.01206">
        <ele>1074.2</ele>
        <time>2022-07-03T11:36:10.019Z</time>
      </trkpt>
      <trkpt lat="48.01251" lon="7.01188">
        <ele>1073.1</ele>
        <time>2022-07-03T11:36:19.821Z</time>
      </trkpt>
      <trkpt lat="48.01256" lon="7.01174">
        <ele>1072.2</ele>
        <time>2022-07-03T11:36:29.000Z</time>
      </trkpt>
      <trkpt lat="48.01255" lon="7.01163">
        <ele>1068.5</ele>
        <time>2022-07-03T11:36:38.539Z</time>
      </trkpt>
      <trkpt lat="48.01243" lon="7.01168">
        <ele>1063.7</ele>
        <time>2022-07-03T11:36:48.022Z</time>
      </trkpt>
      <trkpt lat="48.01239" lon="7.01166">
        <ele>1060.8</ele>
        <time>2022-07-03T11:36:57.878Z</time>
      </trkpt>
      <trkpt lat="48.01247" lon="7.01155">
        <ele>1061.4</ele>
        <time>2022-07-03T11:37:07.480Z</time>
      </trkpt>
      <trkpt lat="48.01251" lon="7.01144">
        <ele>1059.9</ele>
        <time>2022-07-03T11:37:16.577Z</time>
      </trkpt>
      <trkpt lat="48.01246" lon="7.01141">
        <ele>1056.3</ele>
        <time>2022-07-03T11:37:25.780Z</time>
      </trkpt>
      <trkpt lat="48.01234" lon="7.01146">
        <ele>1051.3</ele>
        <time>2022-07-03T11:37:34.974Z</time>
      </trkpt>
      <trkpt lat="48.01226" lon="7.01152">
        <ele>1048.5</ele>
        <time>2022-07-03T11:37:44.038Z</time>
      </trkpt>
      <trkpt lat="48.01226" lon="7.01146">
        <ele>1046.6</ele>
        <time>2022-07-03T11:37:53.858Z</time>
      </trkpt>
      <trkpt lat="48.01232" lon="7.01138">
        <ele>1047.1</ele>
        <time>2022-07-03T11:38:03.000Z</time>
      </trkpt>
      <trkpt lat="48.01239" lon="7.01129">
        <ele>1048.1</ele>
        <time>2022-07-03T11:38:12.858Z</time>
      </trkpt>
      <trkpt lat="48.01247" lon="7.01114">
        <ele>1046.9</ele>
        <time>2022-07-03T11:38:22.000Z</time>
      </trkpt>
      <trkpt lat="48.01255" lon="7.01101">
        <ele>1046.8</ele>
        <time>2022-07-03T11:38:31.841Z</time>
      </trkpt>
      <trkpt lat="48.01259" lon="7.01089">
        <ele>1044.5</ele>
        <time>2022-07-03T11:38:41.000Z</time>
      </trkpt>
      <trkpt lat="48.01263" lon="7.0108">
        <ele>1042.4</ele>
        <time>2022-07-03T11:38:51.000Z</time>
      </trkpt>
      <trkpt lat="48.01269" lon="7.01068">
        <ele>1040.8</ele>
        <time>2022-07-03T11:39:00.857Z</time>
      </trkpt>
      <trkpt lat="48.01278" lon="7.01061">
        <ele>1041.8</ele>
        <time>2022-07-03T11:39:10.258Z</time>
      </trkpt>
      <trkpt lat="48.01286" lon="7.01058">
        <ele>1044.2</ele>
        <time>2022-07-03T11:39:19.678Z</time>
      </trkpt>
      <trkpt lat="48.01293" lon="7.0105">
        <ele>1045.8</ele>
        <time>2022-07-03T11:39:29.000Z</time>
      </trkpt>
      <trkpt lat="48.01294" lon="7.01041">
        <ele>1043.7</ele>
        <time>2022-07-03T11:39:39.000Z</time>
      </trkpt>
      <trkpt lat="48.01294" lon="7.01032">
        <ele>1040.8</ele>
        <time>2022-07-03T11:39:48.660Z</time>
      </trkpt>
      <trkpt lat="48.01296" lon="7.01017">
        <ele>1038</ele>
        <time>2022-07-03T11:39:58.099Z</time>
      </trkpt>
      <trkpt lat="48.01298" lon="7.01003">
        <ele>1035.8</ele>
        <time>2022-07-03T11:40:07.763Z</time>
      </trkpt>
      <trkpt lat="48.01295" lon="7.00987">
        <ele>1030.5</ele>
        <time>2022-07-03T11:40:17.000Z</time>
      </trkpt>
      <trkpt lat="48.01295" lon="7.00975">
        <ele>1027</ele>
        <time>2022-07-03T11:40:27.077Z</time>
      </trkpt>
      <trkpt lat="48.01296" lon="7.00967">
        <ele>1025.8</ele>
        <time>2022-07-03T11:40:37.000Z</time>
      </trkpt>
      <trkpt lat="48.01295" lon="7.00966">
        <ele>1024.4</ele>
        <time>2022-07-03T11:40:47.000Z</time>
      </trkpt>
      <trkpt lat="48.01292" lon="7.00964">
        <ele>1021.9</ele>
        <time>2022-07-03T11:40:56.555Z</time>
      </trkpt>
      <trkpt lat="48.01295" lon="7.00955">
        <ele>1021.3</ele>
        <time>2022-07-03T11:41:05.949Z</time>
      </trkpt>
      <trkpt lat="48.01305" lon="7.00945">
        <ele>1025.5</ele>
        <time>2022-07-03T11:41:15.000Z</time>
      </trkpt>
      <trkpt lat="48.0131" lon="7.00931">
        <ele>1024.3</ele>
        <time>2022-07-03T11:41:24.819Z</time>
      </trkpt>
      <trkpt lat="48.01316" lon="7.00915">
        <ele>1023</ele>
        <time>2022-07-03T11:41:35.118Z</time>
      </trkpt>
      <trkpt lat="48.01321" lon="7.00909">
        <ele>1023.2</ele>
        <time>2022-07-03T11:41:45.000Z</time>
      </trkpt>
      <trkpt lat="48.01327" lon="7.00904">
        <ele>1024.1</ele>
        <time>2022-07-03T11:41:55.080Z</time>
      </trkpt>
      <trkpt lat="48.01339" lon="7.00894">
        <ele>1026</ele>
        <time>2022-07-03T11:42:04.859Z</time>
      </trkpt>
      <trkpt lat="48.01343" lon="7.00886">
        <ele>1024.3</ele>
        <time>2022-07-03T11:42:13.969Z</time>
      </trkpt>
      <trkpt lat="48.01339" lon="7.00883">
        <ele>1021.1</ele>
        <time>2022-07-03T11:42:24.000Z</time>
      </trkpt>
      <trkpt lat="48.01333" lon="7.0088">
        <ele>1016.7</ele>
        <time>2022-07-03T11:42:33.061Z</time>
      </trkpt>
      <trkpt lat="48.01336" lon="7.00873">
        <ele>1014.7</ele>
        <time>2022-07-03T11:42:42.977Z</time>
      </trkpt>
      <trkpt lat="48.01338" lon="7.00867">
        <ele>1013.2</ele>
        <time>2022-07-03T11:42:52.060Z</time>
      </trkpt>
      <trkpt lat="48.01342" lon="7.00865">
        <ele>1014.4</ele>
        <time>2022-07-03T11:43:01.096Z</time>
      </trkpt>
      <trkpt lat="48.01346" lon="7.00851">
        <ele>1012.6</ele>
        <time>2022-07-03T11:43:10.540Z</time>
      </trkpt>
      <trkpt lat="48.01347" lon="7.0084">
        <ele>1011.2</ele>
        <time>2022-07-03T11:43:19.971Z</time>
      </trkpt>
      <trkpt lat="48.01346" lon="7.00827">
        <ele>1010.2</ele>
        <time>2022-07-03T11:43:29.000Z</time>
      </trkpt>
      <trkpt lat="48.0134" lon="7.00814">
        <ele>1007.1</ele>
        <time>2022-07-03T11:43:38.478Z</time>
      </trkpt>
      <trkpt lat="48.01335" lon="7.00802">
        <ele>1005.3</ele>
        <time>2022-07-03T11:43:48.000Z</time>
      </trkpt>
      <trkpt lat="48.0133" lon="7.00792">
        <ele>1004.9</ele>
        <time>2022-07-03T11:43:57.963Z</time>
      </trkpt>
      <trkpt lat="48.01325" lon="7.00785">
        <ele>1002.7</ele>
        <time>2022-07-03T11:44:07.000Z</time>
      </trkpt>
      <trkpt lat="48.01326" lon="7.00785">
        <ele>1003.5</ele>
        <time>2022-07-03T11:44:19.000Z</time>
      </trkpt>
      <trkpt lat="48.01328" lon="7.00787">
        <ele>1004.5</ele>
        <time>2022-07-03T11:44:29.056Z</time>
      </trkpt>
      <trkpt lat="48.01324" lon="7.0078">
        <ele>1003.7</ele>
        <time>2022-07-03T11:44:38.100Z</time>
      </trkpt>
      <trkpt lat="48.01315" lon="7.00755">
        <ele>1002.8</ele>
        <time>2022-07-03T11:44:47.500Z</time>
      </trkpt>
      <trkpt lat="48.01315" lon="7.00744">
        <ele>1004.7</ele>
        <time>2022-07-03T11:44:56.758Z</time>
      </trkpt>
      <trkpt lat="48.01304" lon="7.00738">
        <ele>997.1</ele>
        <time>2022-07-03T11:45:06.000Z</time>
      </trkpt>
      <trkpt lat="48.01298" lon="7.00736">
        <ele>993</ele>
        <time>2022-07-03T11:45:16.000Z</time>
      </trkpt>
      <trkpt lat="48.013" lon="7.00737">
        <ele>994</ele>
        <time>2022-07-03T11:45:26.000Z</time>
      </trkpt>
      <trkpt lat="48.01301" lon="7.00735">
        <ele>995.2</ele>
        <time>2022-07-03T11:45:50.102Z</time>
      </trkpt>
      <trkpt lat="48.013" lon="7.0072">
        <ele>996.9</ele>
        <time>2022-07-03T11:46:00.000Z</time>
      </trkpt>
      <trkpt lat="48.01294" lon="7.00709">
        <ele>992.1</ele>
        <time>2022-07-03T11:46:09.800Z</time>
      </trkpt>
      <trkpt lat="48.01292" lon="7.00703">
        <ele>990</ele>
        <time>2022-07-03T11:46:18.897Z</time>
      </trkpt>
      <trkpt lat="48.01293" lon="7.00695">
        <ele>990.3</ele>
        <time>2022-07-03T11:46:27.941Z</time>
      </trkpt>
      <trkpt lat="48.01297" lon="7.00682">
        <ele>992.7</ele>
        <time>2022-07-03T11:46:37.519Z</time>
      </trkpt>
      <trkpt lat="48.01293" lon="7.00675">
        <ele>988.1</ele>
        <time>2022-07-03T11:46:47.022Z</time>
      </trkpt>
      <trkpt lat="48.0129" lon="7.00666">
        <ele>983.7</ele>
        <time>2022-07-03T11:46:57.000Z</time>
      </trkpt>
      <trkpt lat="48.01289" lon="7.00665">
        <ele>981.9</ele>
        <time>2022-07-03T11:47:06.020Z</time>
      </trkpt>
      <trkpt lat="48.01292" lon="7.00652">
        <ele>980.8</ele>
        <time>2022-07-03T11:47:15.979Z</time>
      </trkpt>
      <trkpt lat="48.01296" lon="7.00635">
        <ele>978.3</ele>
        <time>2022-07-03T11:47:25.636Z</time>
      </trkpt>
      <trkpt lat="48.01299" lon="7.00621">
        <ele>976.5</ele>
        <time>2022-07-03T11:47:34.977Z</time>
      </trkpt>
      <trkpt lat="48.013" lon="7.00616">
        <ele>975.4</ele>
        <time>2022-07-03T11:47:44.000Z</time>
      </trkpt>
      <trkpt lat="48.01301" lon="7.00601">
        <ele>971.8</ele>
        <time>2022-07-03T11:47:53.539Z</time>
      </trkpt>
      <trkpt lat="48.01303" lon="7.00592">
        <ele>971.3</ele>
        <time>2022-07-03T11:48:03.000Z</time>
      </trkpt>
      <trkpt lat="48.01307" lon="7.00581">
        <ele>970.3</ele>
        <time>2022-07-03T11:48:13.017Z</time>
      </trkpt>
      <trkpt lat="48.01312" lon="7.00568">
        <ele>965.7</ele>
        <time>2022-07-03T11:48:22.383Z</time>
      </trkpt>
      <trkpt lat="48.01317" lon="7.00554">
        <ele>963</ele>
        <time>2022-07-03T11:48:32.000Z</time>
      </trkpt>
      <trkpt lat="48.0132" lon="7.00537">
        <ele>963.1</ele>
        <time>2022-07-03T11:48:41.040Z</time>
      </trkpt>
      <trkpt lat="48.01324" lon="7.00524">
        <ele>963.5</ele>
        <time>2022-07-03T11:48:50.620Z</time>
      </trkpt>
      <trkpt lat="48.01328" lon="7.00516">
        <ele>964.4</ele>
        <time>2022-07-03T11:49:00.000Z</time>
      </trkpt>
      <trkpt lat="48.01334" lon="7.005">
        <ele>964.1</ele>
        <time>2022-07-03T11:49:09.075Z</time>
      </trkpt>
      <trkpt lat="48.01335" lon="7.0049">
        <ele>963.6</ele>
        <time>2022-07-03T11:49:18.538Z</time>
      </trkpt>
      <trkpt lat="48.01336" lon="7.00477">
        <ele>961.7</ele>
        <time>2022-07-03T11:49:27.639Z</time>
      </trkpt>
      <trkpt lat="48.01331" lon="7.00464">
        <ele>955.5</ele>
        <time>2022-07-03T11:49:37.000Z</time>
      </trkpt>
      <trkpt lat="48.01337" lon="7.00454">
        <ele>957.6</ele>
        <time>2022-07-03T11:49:47.000Z</time>
      </trkpt>
      <trkpt lat="48.0134" lon="7.00453">
        <ele>959.6</ele>
        <time>2022-07-03T11:49:57.000Z</time>
      </trkpt>
      <trkpt lat="48.01343" lon="7.00456">
        <ele>962.1</ele>
        <time>2022-07-03T11:50:17.000Z</time>
      </trkpt>
      <trkpt lat="48.01347" lon="7.00459">
        <ele>966.3</ele>
        <time>2022-07-03T11:50:27.000Z</time>
      </trkpt>
      <trkpt lat="48.01341" lon="7.00461">
        <ele>962.3</ele>
        <time>2022-07-03T11:52:56.000Z</time>
      </trkpt>
      <trkpt lat="48.0134" lon="7.00462">
        <ele>961.6</ele>
        <time>2022-07-03T11:53:06.000Z</time>
      </trkpt>
      <trkpt lat="48.01345" lon="7.00456">
        <ele>963.5</ele>
        <time>2022-07-03T11:53:15.019Z</time>
      </trkpt>
      <trkpt lat="48.01348" lon="7.00446">
        <ele>963.5</ele>
        <time>2022-07-03T11:53:24.662Z</time>
      </trkpt>
      <trkpt lat="48.0135" lon="7.00433">
        <ele>961</ele>
        <time>2022-07-03T11:53:33.738Z</time>
      </trkpt>
      <trkpt lat="48.01355" lon="7.00423">
        <ele>960.8</ele>
        <time>2022-07-03T11:53:43.000Z</time>
      </trkpt>
      <trkpt lat="48.01359" lon="7.00416">
        <ele>961.6</ele>
        <time>2022-07-03T11:53:52.858Z</time>
      </trkpt>
      <trkpt lat="48.01362" lon="7.00416">
        <ele>963.4</ele>
        <time>2022-07-03T11:54:02.000Z</time>
      </trkpt>
      <trkpt lat="48.01366" lon="7.00408">
        <ele>963.4</ele>
        <time>2022-07-03T11:54:11.042Z</time>
      </trkpt>
      <trkpt lat="48.01373" lon="7.00391">
        <ele>963</ele>
        <time>2022-07-03T11:54:20.097Z</time>
      </trkpt>
      <trkpt lat="48.01382" lon="7.00372">
        <ele>967.2</ele>
        <time>2022-07-03T11:54:30.000Z</time>
      </trkpt>
      <trkpt lat="48.01383" lon="7.00363">
        <ele>967.4</ele>
        <time>2022-07-03T11:54:39.017Z</time>
      </trkpt>
      <trkpt lat="48.01381" lon="7.00359">
        <ele>965.8</ele>
        <time>2022-07-03T11:54:49.000Z</time>
      </trkpt>
      <trkpt lat="48.0138" lon="7.00361">
        <ele>965.4</ele>
        <time>2022-07-03T11:55:06.000Z</time>
      </trkpt>
      <trkpt lat="48.01377" lon="7.0036">
        <ele>963.4</ele>
        <time>2022-07-03T11:55:16.000Z</time>
      </trkpt>
      <trkpt lat="48.01377" lon="7.00351">
        <ele>962.7</ele>
        <time>2022-07-03T11:55:25.598Z</time>
      </trkpt>
      <trkpt lat="48.01373" lon="7.00331">
        <ele>959.4</ele>
        <time>2022-07-03T11:55:34.799Z</time>
      </trkpt>
      <trkpt lat="48.01375" lon="7.00317">
        <ele>961.2</ele>
        <time>2022-07-03T11:55:44.416Z</time>
      </trkpt>
      <trkpt lat="48.01374" lon="7.00298">
        <ele>962.5</ele>
        <time>2022-07-03T11:55:53.678Z</time>
      </trkpt>
      <trkpt lat="48.01373" lon="7.00282">
        <ele>963.7</ele>
        <time>2022-07-03T11:56:03.101Z</time>
      </trkpt>
      <trkpt lat="48.01368" lon="7.00274">
        <ele>961.9</ele>
        <time>2022-07-03T11:56:12.999Z</time>
      </trkpt>
      <trkpt lat="48.01365" lon="7.00268">
        <ele>961.2</ele>
        <time>2022-07-03T11:56:22.000Z</time>
      </trkpt>
      <trkpt lat="48.01361" lon="7.00258">
        <ele>960.9</ele>
        <time>2022-07-03T11:56:31.839Z</time>
      </trkpt>
      <trkpt lat="48.01352" lon="7.00247">
        <ele>961.1</ele>
        <time>2022-07-03T11:56:41.498Z</time>
      </trkpt>
      <trkpt lat="48.01346" lon="7.00246">
        <ele>958.9</ele>
        <time>2022-07-03T11:56:50.819Z</time>
      </trkpt>
      <trkpt lat="48.01341" lon="7.00252">
        <ele>955.4</ele>
        <time>2022-07-03T11:57:00.000Z</time>
      </trkpt>
      <trkpt lat="48.01334" lon="7.00252">
        <ele>953</ele>
        <time>2022-07-03T11:57:10.000Z</time>
      </trkpt>
      <trkpt lat="48.01329" lon="7.00245">
        <ele>951.8</ele>
        <time>2022-07-03T11:57:20.080Z</time>
      </trkpt>
      <trkpt lat="48.01323" lon="7.00237">
        <ele>950.5</ele>
        <time>2022-07-03T11:57:30.000Z</time>
      </trkpt>
      <trkpt lat="48.01318" lon="7.00232">
        <ele>949.6</ele>
        <time>2022-07-03T11:57:39.019Z</time>
      </trkpt>
      <trkpt lat="48.0131" lon="7.00228">
        <ele>946.7</ele>
        <time>2022-07-03T11:57:48.582Z</time>
      </trkpt>
      <trkpt lat="48.01302" lon="7.0022">
        <ele>946.4</ele>
        <time>2022-07-03T11:57:57.839Z</time>
      </trkpt>
      <trkpt lat="48.01295" lon="7.00217">
        <ele>945.3</ele>
        <time>2022-07-03T11:58:07.019Z</time>
      </trkpt>
      <trkpt lat="48.01287" lon="7.0022">
        <ele>941.5</ele>
        <time>2022-07-03T11:58:17.000Z</time>
      </trkpt>
      <trkpt lat="48.01281" lon="7.00225">
        <ele>937.2</ele>
        <time>2022-07-03T11:58:27.000Z</time>
      </trkpt>
      <trkpt lat="48.01278" lon="7.00215">
        <ele>940.1</ele>
        <time>2022-07-03T11:58:37.000Z</time>
      </trkpt>
      <trkpt lat="48.01274" lon="7.00212">
        <ele>940.3</ele>
        <time>2022-07-03T11:58:47.000Z</time>
      </trkpt>
      <trkpt lat="48.01272" lon="7.00216">
        <ele>937.5</ele>
        <time>2022-07-03T11:58:56.778Z</time>
      </trkpt>
      <trkpt lat="48.01269" lon="7.00215">
        <ele>936.6</ele>
        <time>2022-07-03T11:59:06.018Z</time>
      </trkpt>
      <trkpt lat="48.01257" lon="7.00207">
        <ele>936.9</ele>
        <time>2022-07-03T11:59:15.698Z</time>
      </trkpt>
      <trkpt lat="48.01253" lon="7.00207">
        <ele>936</ele>
        <time>2022-07-03T11:59:24.878Z</time>
      </trkpt>
      <trkpt lat="48.01248" lon="7.00215">
        <ele>928.9</ele>
        <time>2022-07-03T11:59:34.000Z</time>
      </trkpt>
      <trkpt lat="48.01245" lon="7.0022">
        <ele>924.8</ele>
        <time>2022-07-03T11:59:44.000Z</time>
      </trkpt>
      <trkpt lat="48.01242" lon="7.0022">
        <ele>923.3</ele>
        <time>2022-07-03T11:59:54.000Z</time>
      </trkpt>
      <trkpt lat="48.01239" lon="7.00212">
        <ele>927.3</ele>
        <time>2022-07-03T12:00:03.099Z</time>
      </trkpt>
      <trkpt lat="48.01239" lon="7.0021">
        <ele>928.9</ele>
        <time>2022-07-03T12:00:13.000Z</time>
      </trkpt>
      <trkpt lat="48.0124" lon="7.00203">
        <ele>933.5</ele>
        <time>2022-07-03T12:00:23.000Z</time>
      </trkpt>
      <trkpt lat="48.01237" lon="7.00192">
        <ele>939.5</ele>
        <time>2022-07-03T12:00:33.000Z</time>
      </trkpt>
      <trkpt lat="48.01239" lon="7.00187">
        <ele>942.7</ele>
        <time>2022-07-03T12:00:42.959Z</time>
      </trkpt>
      <trkpt lat="48.01238" lon="7.00188">
        <ele>941.6</ele>
        <time>2022-07-03T12:00:52.000Z</time>
      </trkpt>
      <trkpt lat="48.0123" lon="7.00188">
        <ele>939</ele>
        <time>2022-07-03T12:01:01.537Z</time>
      </trkpt>
      <trkpt lat="48.01221" lon="7.00191">
        <ele>934.3</ele>
        <time>2022-07-03T12:01:11.000Z</time>
      </trkpt>
      <trkpt lat="48.01217" lon="7.00185">
        <ele>936.1</ele>
        <time>2022-07-03T12:01:20.801Z</time>
      </trkpt>
      <trkpt lat="48.01215" lon="7.00175">
        <ele>940.2</ele>
        <time>2022-07-03T12:01:30.000Z</time>
      </trkpt>
      <trkpt lat="48.01208" lon="7.00171">
        <ele>940.1</ele>
        <time>2022-07-03T12:01:39.018Z</time>
      </trkpt>
      <trkpt lat="48.01193" lon="7.00166">
        <ele>937.8</ele>
        <time>2022-07-03T12:01:49.000Z</time>
      </trkpt>
      <trkpt lat="48.01184" lon="7.00164">
        <ele>939</ele>
        <time>2022-07-03T12:01:59.000Z</time>
      </trkpt>
      <trkpt lat="48.01176" lon="7.00164">
        <ele>938.5</ele>
        <time>2022-07-03T12:02:09.000Z</time>
      </trkpt>
      <trkpt lat="48.01164" lon="7.00174">
        <ele>935</ele>
        <time>2022-07-03T12:02:18.979Z</time>
      </trkpt>
      <trkpt lat="48.01155" lon="7.00181">
        <ele>933.2</ele>
        <time>2022-07-03T12:02:28.660Z</time>
      </trkpt>
      <trkpt lat="48.01145" lon="7.00186">
        <ele>931.9</ele>
        <time>2022-07-03T12:02:38.000Z</time>
      </trkpt>
      <trkpt lat="48.0114" lon="7.00184">
        <ele>933.6</ele>
        <time>2022-07-03T12:02:47.540Z</time>
      </trkpt>
      <trkpt lat="48.01131" lon="7.00185">
        <ele>932.3</ele>
        <time>2022-07-03T12:02:57.000Z</time>
      </trkpt>
      <trkpt lat="48.01125" lon="7.00187">
        <ele>930.3</ele>
        <time>2022-07-03T12:03:06.721Z</time>
      </trkpt>
      <trkpt lat="48.01124" lon="7.00188">
        <ele>929.9</ele>
        <time>2022-07-03T12:03:16.000Z</time>
      </trkpt>
      <trkpt lat="48.01123" lon="7.00189">
        <ele>929.2</ele>
        <time>2022-07-03T12:04:03.420Z</time>
      </trkpt>
      <trkpt lat="48.01113" lon="7.0019">
        <ele>927.8</ele>
        <time>2022-07-03T12:04:12.760Z</time>
      </trkpt>
      <trkpt lat="48.01096" lon="7.00184">
        <ele>929.5</ele>
        <time>2022-07-03T12:04:23.077Z</time>
      </trkpt>
      <trkpt lat="48.01087" lon="7.00183">
        <ele>929</ele>
        <time>2022-07-03T12:04:33.061Z</time>
      </trkpt>
      <trkpt lat="48.01081" lon="7.00176">
        <ele>930.1</ele>
        <time>2022-07-03T12:04:42.640Z</time>
      </trkpt>
      <trkpt lat="48.01077" lon="7.00164">
        <ele>932.4</ele>
        <time>2022-07-03T12:04:52.059Z</time>
      </trkpt>
      <trkpt lat="48.01075" lon="7.00155">
        <ele>933.8</ele>
        <time>2022-07-03T12:05:01.117Z</time>
      </trkpt>
      <trkpt lat="48.01071" lon="7.00152">
        <ele>932.8</ele>
        <time>2022-07-03T12:05:11.000Z</time>
      </trkpt>
      <trkpt lat="48.01064" lon="7.00141">
        <ele>932.7</ele>
        <time>2022-07-03T12:05:20.398Z</time>
      </trkpt>
      <trkpt lat="48.01059" lon="7.00125">
        <ele>933.7</ele>
        <time>2022-07-03T12:05:29.758Z</time>
      </trkpt>
      <trkpt lat="48.01056" lon="7.00114">
        <ele>934.4</ele>
        <time>2022-07-03T12:05:39.179Z</time>
      </trkpt>
      <trkpt lat="48.01053" lon="7.00101">
        <ele>935.9</ele>
        <time>2022-07-03T12:05:49.000Z</time>
      </trkpt>
      <trkpt lat="48.01052" lon="7.00088">
        <ele>937.5</ele>
        <time>2022-07-03T12:05:58.278Z</time>
      </trkpt>
      <trkpt lat="48.01047" lon="7.00077">
        <ele>937.6</ele>
        <time>2022-07-03T12:06:07.438Z</time>
      </trkpt>
      <trkpt lat="48.01041" lon="7.00064">
        <ele>937.2</ele>
        <time>2022-07-03T12:06:16.621Z</time>
      </trkpt>
      <trkpt lat="48.01035" lon="7.00057">
        <ele>936.1</ele>
        <time>2022-07-03T12:06:25.839Z</time>
      </trkpt>
      <trkpt lat="48.01031" lon="7.00044">
        <ele>935.6</ele>
        <time>2022-07-03T12:06:35.440Z</time>
      </trkpt>
      <trkpt lat="48.01035" lon="7.00034">
        <ele>937.5</ele>
        <time>2022-07-03T12:06:44.972Z</time>
      </trkpt>
      <trkpt lat="48.01033" lon="7.00015">
        <ele>937.7</ele>
        <time>2022-07-03T12:06:54.000Z</time>
      </trkpt>
      <trkpt lat="48.01032" lon="6.99996">
        <ele>938.2</ele>
        <time>2022-07-03T12:07:03.618Z</time>
      </trkpt>
      <trkpt lat="48.0103" lon="6.99973">
        <ele>937</ele>
        <time>2022-07-03T12:07:13.058Z</time>
      </trkpt>
      <trkpt lat="48.01032" lon="6.99963">
        <ele>937.9</ele>
        <time>2022-07-03T12:07:22.376Z</time>
      </trkpt>
      <trkpt lat="48.01029" lon="6.99951">
        <ele>936.6</ele>
        <time>2022-07-03T12:07:31.638Z</time>
      </trkpt>
      <trkpt lat="48.01026" lon="6.99934">
        <ele>935.9</ele>
        <time>2022-07-03T12:07:40.761Z</time>
      </trkpt>
      <trkpt lat="48.01024" lon="6.99912">
        <ele>934.8</ele>
        <time>2022-07-03T12:07:50.000Z</time>
      </trkpt>
      <trkpt lat="48.01024" lon="6.99891">
        <ele>932.2</ele>
        <time>2022-07-03T12:07:59.839Z</time>
      </trkpt>
      <trkpt lat="48.01032" lon="6.99875">
        <ele>932</ele>
        <time>2022-07-03T12:08:08.897Z</time>
      </trkpt>
      <trkpt lat="48.01038" lon="6.99861">
        <ele>931.2</ele>
        <time>2022-07-03T12:08:18.947Z</time>
      </trkpt>
      <trkpt lat="48.01043" lon="6.99852">
        <ele>929.3</ele>
        <time>2022-07-03T12:08:27.967Z</time>
      </trkpt>
      <trkpt lat="48.01052" lon="6.99845">
        <ele>929.3</ele>
        <time>2022-07-03T12:08:37.000Z</time>
      </trkpt>
      <trkpt lat="48.01062" lon="6.99841">
        <ele>932.1</ele>
        <time>2022-07-03T12:08:46.682Z</time>
      </trkpt>
      <trkpt lat="48.01072" lon="6.99828">
        <ele>931.6</ele>
        <time>2022-07-03T12:08:56.000Z</time>
      </trkpt>
      <trkpt lat="48.01075" lon="6.99824">
        <ele>931.4</ele>
        <time>2022-07-03T12:09:05.965Z</time>
      </trkpt>
      <trkpt lat="48.01081" lon="6.9981">
        <ele>928.8</ele>
        <time>2022-07-03T12:09:16.079Z</time>
      </trkpt>
      <trkpt lat="48.01093" lon="6.99805">
        <ele>932.7</ele>
        <time>2022-07-03T12:09:25.879Z</time>
      </trkpt>
      <trkpt lat="48.01102" lon="6.99802">
        <ele>935.9</ele>
        <time>2022-07-03T12:09:35.000Z</time>
      </trkpt>
      <trkpt lat="48.01106" lon="6.9979">
        <ele>932</ele>
        <time>2022-07-03T12:09:45.000Z</time>
      </trkpt>
      <trkpt lat="48.01106" lon="6.99787">
        <ele>930.8</ele>
        <time>2022-07-03T12:09:55.000Z</time>
      </trkpt>
      <trkpt lat="48.01105" lon="6.99788">
        <ele>931.1</ele>
        <time>2022-07-03T12:10:05.000Z</time>
      </trkpt>
      <trkpt lat="48.011" lon="6.9978">
        <ele>925.9</ele>
        <time>2022-07-03T12:10:15.000Z</time>
      </trkpt>
      <trkpt lat="48.01103" lon="6.99782">
        <ele>927.8</ele>
        <time>2022-07-03T12:10:25.000Z</time>
      </trkpt>
      <trkpt lat="48.01104" lon="6.99781">
        <ele>927.3</ele>
        <time>2022-07-03T12:10:40.000Z</time>
      </trkpt>
      <trkpt lat="48.01095" lon="6.99784">
        <ele>926.3</ele>
        <time>2022-07-03T12:10:49.116Z</time>
      </trkpt>
      <trkpt lat="48.01094" lon="6.99779">
        <ele>924.3</ele>
        <time>2022-07-03T12:10:58.341Z</time>
      </trkpt>
      <trkpt lat="48.01089" lon="6.99783">
        <ele>923.7</ele>
        <time>2022-07-03T12:11:07.979Z</time>
      </trkpt>
      <trkpt lat="48.0108" lon="6.99787">
        <ele>922.5</ele>
        <time>2022-07-03T12:11:17.000Z</time>
      </trkpt>
      <trkpt lat="48.01073" lon="6.99794">
        <ele>922.2</ele>
        <time>2022-07-03T12:11:27.000Z</time>
      </trkpt>
      <trkpt lat="48.01062" lon="6.99787">
        <ele>917.4</ele>
        <time>2022-07-03T12:11:36.978Z</time>
      </trkpt>
      <trkpt lat="48.01049" lon="6.99782">
        <ele>912.5</ele>
        <time>2022-07-03T12:11:47.122Z</time>
      </trkpt>
      <trkpt lat="48.01039" lon="6.99779">
        <ele>907.6</ele>
        <time>2022-07-03T12:11:56.520Z</time>
      </trkpt>
      <trkpt lat="48.01034" lon="6.99779">
        <ele>905.8</ele>
        <time>2022-07-03T12:12:05.538Z</time>
      </trkpt>
      <trkpt lat="48.01024" lon="6.99778">
        <ele>903.7</ele>
        <time>2022-07-03T12:12:15.000Z</time>
      </trkpt>
      <trkpt lat="48.01017" lon="6.99782">
        <ele>905.4</ele>
        <time>2022-07-03T12:12:24.820Z</time>
      </trkpt>
      <trkpt lat="48.01004" lon="6.99787">
        <ele>905.8</ele>
        <time>2022-07-03T12:12:34.056Z</time>
      </trkpt>
      <trkpt lat="48.00989" lon="6.99789">
        <ele>905.9</ele>
        <time>2022-07-03T12:12:43.967Z</time>
      </trkpt>
      <trkpt lat="48.00978" lon="6.99798">
        <ele>902.6</ele>
        <time>2022-07-03T12:12:53.000Z</time>
      </trkpt>
      <trkpt lat="48.00969" lon="6.99803">
        <ele>900.4</ele>
        <time>2022-07-03T12:13:02.798Z</time>
      </trkpt>
      <trkpt lat="48.00959" lon="6.99806">
        <ele>899.8</ele>
        <time>2022-07-03T12:13:12.000Z</time>
      </trkpt>
      <trkpt lat="48.00955" lon="6.99813">
        <ele>897.9</ele>
        <time>2022-07-03T12:13:22.000Z</time>
      </trkpt>
      <trkpt lat="48.00953" lon="6.99823">
        <ele>894.6</ele>
        <time>2022-07-03T12:13:31.538Z</time>
      </trkpt>
      <trkpt lat="48.00947" lon="6.99834">
        <ele>889.7</ele>
        <time>2022-07-03T12:13:40.798Z</time>
      </trkpt>
      <trkpt lat="48.00938" lon="6.99845">
        <ele>889</ele>
        <time>2022-07-03T12:13:50.000Z</time>
      </trkpt>
      <trkpt lat="48.00923" lon="6.99849">
        <ele>889.3</ele>
        <time>2022-07-03T12:14:00.059Z</time>
      </trkpt>
      <trkpt lat="48.00916" lon="6.99851">
        <ele>889.1</ele>
        <time>2022-07-03T12:14:09.858Z</time>
      </trkpt>
      <trkpt lat="48.00909" lon="6.99857">
        <ele>887.3</ele>
        <time>2022-07-03T12:14:19.540Z</time>
      </trkpt>
      <trkpt lat="48.00906" lon="6.99857">
        <ele>886.9</ele>
        <time>2022-07-03T12:14:28.558Z</time>
      </trkpt>
      <trkpt lat="48.009" lon="6.99862">
        <ele>885</ele>
        <time>2022-07-03T12:14:37.741Z</time>
      </trkpt>
      <trkpt lat="48.00892" lon="6.99874">
        <ele>881.1</ele>
        <time>2022-07-03T12:14:46.799Z</time>
      </trkpt>
      <trkpt lat="48.00888" lon="6.99885">
        <ele>878</ele>
        <time>2022-07-03T12:14:56.000Z</time>
      </trkpt>
      <trkpt lat="48.00889" lon="6.99901">
        <ele>872.9</ele>
        <time>2022-07-03T12:15:05.477Z</time>
      </trkpt>
      <trkpt lat="48.00888" lon="6.99918">
        <ele>868</ele>
        <time>2022-07-03T12:15:14.875Z</time>
      </trkpt>
      <trkpt lat="48.00888" lon="6.99932">
        <ele>868.4</ele>
        <time>2022-07-03T12:15:24.436Z</time>
      </trkpt>
      <trkpt lat="48.00887" lon="6.99941">
        <ele>868.5</ele>
        <time>2022-07-03T12:15:33.520Z</time>
      </trkpt>
      <trkpt lat="48.00884" lon="6.99948">
        <ele>867.9</ele>
        <time>2022-07-03T12:15:42.656Z</time>
      </trkpt>
      <trkpt lat="48.00879" lon="6.99956">
        <ele>866.6</ele>
        <time>2022-07-03T12:15:51.998Z</time>
      </trkpt>
      <trkpt lat="48.00872" lon="6.99964">
        <ele>864.5</ele>
        <time>2022-07-03T12:16:01.880Z</time>
      </trkpt>
      <trkpt lat="48.00868" lon="6.9998">
        <ele>863.7</ele>
        <time>2022-07-03T12:16:10.977Z</time>
      </trkpt>
      <trkpt lat="48.00852" lon="6.99987">
        <ele>860.7</ele>
        <time>2022-07-03T12:16:20.000Z</time>
      </trkpt>
      <trkpt lat="48.0084" lon="6.99987">
        <ele>859</ele>
        <time>2022-07-03T12:16:29.075Z</time>
      </trkpt>
      <trkpt lat="48.00839" lon="6.99993">
        <ele>858.6</ele>
        <time>2022-07-03T12:16:38.520Z</time>
      </trkpt>
      <trkpt lat="48.00833" lon="6.99998">
        <ele>857.1</ele>
        <time>2022-07-03T12:16:47.719Z</time>
      </trkpt>
      <trkpt lat="48.00831" lon="7.00006">
        <ele>857.6</ele>
        <time>2022-07-03T12:16:57.000Z</time>
      </trkpt>
      <trkpt lat="48.00822" lon="7.00011">
        <ele>856.8</ele>
        <time>2022-07-03T12:17:07.081Z</time>
      </trkpt>
      <trkpt lat="48.00811" lon="7.0002">
        <ele>855</ele>
        <time>2022-07-03T12:17:16.970Z</time>
      </trkpt>
      <trkpt lat="48.00801" lon="7.00028">
        <ele>852.9</ele>
        <time>2022-07-03T12:17:26.000Z</time>
      </trkpt>
      <trkpt lat="48.0079" lon="7.00035">
        <ele>851.7</ele>
        <time>2022-07-03T12:17:35.057Z</time>
      </trkpt>
      <trkpt lat="48.00781" lon="7.00043">
        <ele>850.6</ele>
        <time>2022-07-03T12:17:44.658Z</time>
      </trkpt>
      <trkpt lat="48.00766" lon="7.00046">
        <ele>848.2</ele>
        <time>2022-07-03T12:17:53.975Z</time>
      </trkpt>
      <trkpt lat="48.0075" lon="7.00048">
        <ele>845.4</ele>
        <time>2022-07-03T12:18:03.999Z</time>
      </trkpt>
      <trkpt lat="48.00737" lon="7.00047">
        <ele>842.3</ele>
        <time>2022-07-03T12:18:13.000Z</time>
      </trkpt>
      <trkpt lat="48.00729" lon="7.00055">
        <ele>840</ele>
        <time>2022-07-03T12:18:22.105Z</time>
      </trkpt>
      <trkpt lat="48.00723" lon="7.00069">
        <ele>842.2</ele>
        <time>2022-07-03T12:18:31.780Z</time>
      </trkpt>
      <trkpt lat="48.00716" lon="7.00077">
        <ele>842.2</ele>
        <time>2022-07-03T12:18:41.079Z</time>
      </trkpt>
      <trkpt lat="48.00704" lon="7.00082">
        <ele>839.9</ele>
        <time>2022-07-03T12:18:50.970Z</time>
      </trkpt>
      <trkpt lat="48.00696" lon="7.00086">
        <ele>838.6</ele>
        <time>2022-07-03T12:19:00.000Z</time>
      </trkpt>
      <trkpt lat="48.00686" lon="7.00085">
        <ele>835.8</ele>
        <time>2022-07-03T12:19:09.036Z</time>
      </trkpt>
      <trkpt lat="48.00673" lon="7.00085">
        <ele>832.4</ele>
        <time>2022-07-03T12:19:18.575Z</time>
      </trkpt>
      <trkpt lat="48.00658" lon="7.00084">
        <ele>828.9</ele>
        <time>2022-07-03T12:19:28.060Z</time>
      </trkpt>
      <trkpt lat="48.0065" lon="7.00081">
        <ele>827.6</ele>
        <time>2022-07-03T12:19:37.837Z</time>
      </trkpt>
      <trkpt lat="48.00647" lon="7.00079">
        <ele>827.3</ele>
        <time>2022-07-03T12:19:46.862Z</time>
      </trkpt>
      <trkpt lat="48.00639" lon="7.00085">
        <ele>826.7</ele>
        <time>2022-07-03T12:19:56.000Z</time>
      </trkpt>
      <trkpt lat="48.00623" lon="7.0009">
        <ele>827.4</ele>
        <time>2022-07-03T12:20:05.999Z</time>
      </trkpt>
      <trkpt lat="48.00607" lon="7.00099">
        <ele>829.1</ele>
        <time>2022-07-03T12:20:15.542Z</time>
      </trkpt>
      <trkpt lat="48.006" lon="7.00096">
        <ele>828.9</ele>
        <time>2022-07-03T12:20:24.678Z</time>
      </trkpt>
      <trkpt lat="48.00597" lon="7.00093">
        <ele>828.4</ele>
        <time>2022-07-03T12:20:34.000Z</time>
      </trkpt>
      <trkpt lat="48.00594" lon="7.00093">
        <ele>828.5</ele>
        <time>2022-07-03T12:20:44.000Z</time>
      </trkpt>
      <trkpt lat="48.00595" lon="7.00096">
        <ele>829.2</ele>
        <time>2022-07-03T12:21:01.000Z</time>
      </trkpt>
      <trkpt lat="48.00594" lon="7.00098">
        <ele>829.6</ele>
        <time>2022-07-03T12:21:11.054Z</time>
      </trkpt>
      <trkpt lat="48.00598" lon="7.00089">
        <ele>827.5</ele>
        <time>2022-07-03T12:21:20.618Z</time>
      </trkpt>
      <trkpt lat="48.00598" lon="7.00085">
        <ele>826.8</ele>
        <time>2022-07-03T12:21:30.035Z</time>
      </trkpt>
      <trkpt lat="48.00588" lon="7.00079">
        <ele>824.9</ele>
        <time>2022-07-03T12:21:39.537Z</time>
      </trkpt>
      <trkpt lat="48.00566" lon="7.00069">
        <ele>818</ele>
        <time>2022-07-03T12:21:49.054Z</time>
      </trkpt>
      <trkpt lat="48.00552" lon="7.00073">
        <ele>819</ele>
        <time>2022-07-03T12:21:58.858Z</time>
      </trkpt>
      <trkpt lat="48.00545" lon="7.00071">
        <ele>817.2</ele>
        <time>2022-07-03T12:22:08.000Z</time>
      </trkpt>
      <trkpt lat="48.00539" lon="7.00073">
        <ele>816.8</ele>
        <time>2022-07-03T12:22:18.000Z</time>
      </trkpt>
      <trkpt lat="48.00534" lon="7.00071">
        <ele>815.6</ele>
        <time>2022-07-03T12:22:27.398Z</time>
      </trkpt>
      <trkpt lat="48.00531" lon="7.00077">
        <ele>815.9</ele>
        <time>2022-07-03T12:22:36.697Z</time>
      </trkpt>
      <trkpt lat="48.00528" lon="7.0008">
        <ele>815.6</ele>
        <time>2022-07-03T12:22:46.000Z</time>
      </trkpt>
      <trkpt lat="48.00518" lon="7.00076">
        <ele>811.8</ele>
        <time>2022-07-03T12:22:55.480Z</time>
      </trkpt>
      <trkpt lat="48.00512" lon="7.00066">
        <ele>808.7</ele>
        <time>2022-07-03T12:23:05.000Z</time>
      </trkpt>
      <trkpt lat="48.00513" lon="7.00054">
        <ele>807.3</ele>
        <time>2022-07-03T12:23:14.540Z</time>
      </trkpt>
      <trkpt lat="48.0052" lon="7.00045">
        <ele>807.5</ele>
        <time>2022-07-03T12:23:23.599Z</time>
      </trkpt>
      <trkpt lat="48.00525" lon="7.00035">
        <ele>806.1</ele>
        <time>2022-07-03T12:23:32.615Z</time>
      </trkpt>
      <trkpt lat="48.00525" lon="7.00026">
        <ele>803.2</ele>
        <time>2022-07-03T12:23:42.000Z</time>
      </trkpt>
      <trkpt lat="48.00527" lon="7.0002">
        <ele>801.1</ele>
        <time>2022-07-03T12:23:51.816Z</time>
      </trkpt>
      <trkpt lat="48.00524" lon="7.0002">
        <ele>800.2</ele>
        <time>2022-07-03T12:24:00.839Z</time>
      </trkpt>
      <trkpt lat="48.00508" lon="7.00023">
        <ele>796.5</ele>
        <time>2022-07-03T12:24:10.440Z</time>
      </trkpt>
      <trkpt lat="48.00494" lon="7.00029">
        <ele>793.4</ele>
        <time>2022-07-03T12:24:19.979Z</time>
      </trkpt>
      <trkpt lat="48.00489" lon="7.00034">
        <ele>792.3</ele>
        <time>2022-07-03T12:24:29.420Z</time>
      </trkpt>
      <trkpt lat="48.00479" lon="7.00039">
        <ele>790.2</ele>
        <time>2022-07-03T12:24:38.979Z</time>
      </trkpt>
      <trkpt lat="48.00468" lon="7.0004">
        <ele>786.8</ele>
        <time>2022-07-03T12:24:48.000Z</time>
      </trkpt>
      <trkpt lat="48.00465" lon="7.0004">
        <ele>786.6</ele>
        <time>2022-07-03T12:24:57.618Z</time>
      </trkpt>
      <trkpt lat="48.00459" lon="7.00037">
        <ele>783.3</ele>
        <time>2022-07-03T12:25:06.878Z</time>
      </trkpt>
      <trkpt lat="48.00447" lon="7.00035">
        <ele>780.1</ele>
        <time>2022-07-03T12:25:15.972Z</time>
      </trkpt>
      <trkpt lat="48.00438" lon="7.0004">
        <ele>779.9</ele>
        <time>2022-07-03T12:25:25.000Z</time>
      </trkpt>
      <trkpt lat="48.00429" lon="7.00043">
        <ele>779</ele>
        <time>2022-07-03T12:25:34.358Z</time>
      </trkpt>
      <trkpt lat="48.00422" lon="7.00046">
        <ele>777.8</ele>
        <time>2022-07-03T12:25:44.018Z</time>
      </trkpt>
      <trkpt lat="48.00412" lon="7.00045">
        <ele>775.1</ele>
        <time>2022-07-03T12:25:53.097Z</time>
      </trkpt>
      <trkpt lat="48.00404" lon="7.00053">
        <ele>773.3</ele>
        <time>2022-07-03T12:26:02.877Z</time>
      </trkpt>
      <trkpt lat="48.00396" lon="7.00061">
        <ele>771.1</ele>
        <time>2022-07-03T12:26:12.000Z</time>
      </trkpt>
      <trkpt lat="48.00391" lon="7.00063">
        <ele>769.3</ele>
        <time>2022-07-03T12:26:21.837Z</time>
      </trkpt>
      <trkpt lat="48.00376" lon="7.00062">
        <ele>766.7</ele>
        <time>2022-07-03T12:26:31.057Z</time>
      </trkpt>
      <trkpt lat="48.00368" lon="7.00067">
        <ele>765.6</ele>
        <time>2022-07-03T12:26:40.597Z</time>
      </trkpt>
      <trkpt lat="48.00374" lon="7.00064">
        <ele>766.4</ele>
        <time>2022-07-03T12:26:50.000Z</time>
      </trkpt>
      <trkpt lat="48.00374" lon="7.00063">
        <ele>766.5</ele>
        <time>2022-07-03T12:26:59.517Z</time>
      </trkpt>
      <trkpt lat="48.00367" lon="7.00066">
        <ele>765.4</ele>
        <time>2022-07-03T12:27:08.880Z</time>
      </trkpt>
      <trkpt lat="48.0036" lon="7.00078">
        <ele>763.7</ele>
        <time>2022-07-03T12:27:18.537Z</time>
      </trkpt>
      <trkpt lat="48.00357" lon="7.00093">
        <ele>763.3</ele>
        <time>2022-07-03T12:27:27.881Z</time>
      </trkpt>
      <trkpt lat="48.0035" lon="7.00106">
        <ele>761.1</ele>
        <time>2022-07-03T12:27:37.000Z</time>
      </trkpt>
      <trkpt lat="48.00345" lon="7.00119">
        <ele>759.9</ele>
        <time>2022-07-03T12:27:46.978Z</time>
      </trkpt>
      <trkpt lat="48.00343" lon="7.00135">
        <ele>760.3</ele>
        <time>2022-07-03T12:27:56.000Z</time>
      </trkpt>
      <trkpt lat="48.00337" lon="7.00152">
        <ele>757.2</ele>
        <time>2022-07-03T12:28:05.520Z</time>
      </trkpt>
      <trkpt lat="48.00333" lon="7.00165">
        <ele>754.9</ele>
        <time>2022-07-03T12:28:14.980Z</time>
      </trkpt>
      <trkpt lat="48.00329" lon="7.00163">
        <ele>753.2</ele>
        <time>2022-07-03T12:28:24.000Z</time>
      </trkpt>
      <trkpt lat="48.00326" lon="7.0015">
        <ele>751.6</ele>
        <time>2022-07-03T12:28:33.379Z</time>
      </trkpt>
      <trkpt lat="48.00324" lon="7.00136">
        <ele>750.5</ele>
        <time>2022-07-03T12:28:42.502Z</time>
      </trkpt>
      <trkpt lat="48.00323" lon="7.00126">
        <ele>749.7</ele>
        <time>2022-07-03T12:28:51.578Z</time>
      </trkpt>
      <trkpt lat="48.00322" lon="7.00109">
        <ele>748.8</ele>
        <time>2022-07-03T12:29:01.000Z</time>
      </trkpt>
      <trkpt lat="48.00327" lon="7.00077">
        <ele>749.2</ele>
        <time>2022-07-03T12:29:10.677Z</time>
      </trkpt>
      <trkpt lat="48.00332" lon="7.00056">
        <ele>752.5</ele>
        <time>2022-07-03T12:29:20.000Z</time>
      </trkpt>
      <trkpt lat="48.00321" lon="7.00048">
        <ele>746.2</ele>
        <time>2022-07-03T12:29:29.745Z</time>
      </trkpt>
      <trkpt lat="48.00316" lon="7.00043">
        <ele>744</ele>
        <time>2022-07-03T12:29:39.018Z</time>
      </trkpt>
      <trkpt lat="48.00321" lon="7.00034">
        <ele>745.3</ele>
        <time>2022-07-03T12:29:48.538Z</time>
      </trkpt>
      <trkpt lat="48.0032" lon="7.00023">
        <ele>744.2</ele>
        <time>2022-07-03T12:29:57.558Z</time>
      </trkpt>
      <trkpt lat="48.00305" lon="7.00013">
        <ele>738.8</ele>
        <time>2022-07-03T12:30:07.076Z</time>
      </trkpt>
      <trkpt lat="48.00287" lon="7.0001">
        <ele>735.1</ele>
        <time>2022-07-03T12:30:17.060Z</time>
      </trkpt>
      <trkpt lat="48.00271" lon="7.00009">
        <ele>732.2</ele>
        <time>2022-07-03T12:30:26.680Z</time>
      </trkpt>
      <trkpt lat="48.00263" lon="7.00013">
        <ele>730.8</ele>
        <time>2022-07-03T12:30:36.000Z</time>
      </trkpt>
      <trkpt lat="48.00252" lon="7.00021">
        <ele>728.7</ele>
        <time>2022-07-03T12:30:45.976Z</time>
      </trkpt>
      <trkpt lat="48.00244" lon="7.00029">
        <ele>726.8</ele>
        <time>2022-07-03T12:30:55.000Z</time>
      </trkpt>
      <trkpt lat="48.00234" lon="7.00036">
        <ele>725</ele>
        <time>2022-07-03T12:31:04.580Z</time>
      </trkpt>
      <trkpt lat="48.00219" lon="7.0004">
        <ele>722.1</ele>
        <time>2022-07-03T12:31:14.082Z</time>
      </trkpt>
      <trkpt lat="48.00205" lon="7.00048">
        <ele>719.2</ele>
        <time>2022-07-03T12:31:23.977Z</time>
      </trkpt>
      <trkpt lat="48.00199" lon="7.00053">
        <ele>718.7</ele>
        <time>2022-07-03T12:31:33.638Z</time>
      </trkpt>
      <trkpt lat="48.00195" lon="7.0006">
        <ele>717.9</ele>
        <time>2022-07-03T12:31:43.100Z</time>
      </trkpt>
      <trkpt lat="48.00187" lon="7.00067">
        <ele>715.2</ele>
        <time>2022-07-03T12:31:52.618Z</time>
      </trkpt>
      <trkpt lat="48.0018" lon="7.00073">
        <ele>712.3</ele>
        <time>2022-07-03T12:32:01.837Z</time>
      </trkpt>
      <trkpt lat="48.00177" lon="7.00086">
        <ele>710.4</ele>
        <time>2022-07-03T12:32:10.895Z</time>
      </trkpt>
      <trkpt lat="48.00174" lon="7.0011">
        <ele>707.7</ele>
        <time>2022-07-03T12:32:20.038Z</time>
      </trkpt>
      <trkpt lat="48.0017" lon="7.00126">
        <ele>704.5</ele>
        <time>2022-07-03T12:32:29.815Z</time>
      </trkpt>
      <trkpt lat="48.00163" lon="7.00139">
        <ele>700.5</ele>
        <time>2022-07-03T12:32:39.000Z</time>
      </trkpt>
      <trkpt lat="48.00157" lon="7.00153">
        <ele>698.7</ele>
        <time>2022-07-03T12:32:48.976Z</time>
      </trkpt>
      <trkpt lat="48.00162" lon="7.00175">
        <ele>698.2</ele>
        <time>2022-07-03T12:32:58.000Z</time>
      </trkpt>
      <trkpt lat="48.00167" lon="7.00195">
        <ele>698.1</ele>
        <time>2022-07-03T12:33:07.817Z</time>
      </trkpt>
      <trkpt lat="48.00167" lon="7.0021">
        <ele>695.8</ele>
        <time>2022-07-03T12:33:17.000Z</time>
      </trkpt>
      <trkpt lat="48.00167" lon="7.0023">
        <ele>693</ele>
        <time>2022-07-03T12:33:26.875Z</time>
      </trkpt>
      <trkpt lat="48.00164" lon="7.00243">
        <ele>690.4</ele>
        <time>2022-07-03T12:33:36.401Z</time>
      </trkpt>
      <trkpt lat="48.00168" lon="7.00254">
        <ele>689.8</ele>
        <time>2022-07-03T12:33:45.655Z</time>
      </trkpt>
      <trkpt lat="48.00163" lon="7.00262">
        <ele>687.8</ele>
        <time>2022-07-03T12:33:54.980Z</time>
      </trkpt>
      <trkpt lat="48.00161" lon="7.00256">
        <ele>688.1</ele>
        <time>2022-07-03T12:34:04.475Z</time>
      </trkpt>
      <trkpt lat="48.00159" lon="7.00241">
        <ele>689.5</ele>
        <time>2022-07-03T12:34:13.659Z</time>
      </trkpt>
      <trkpt lat="48.00158" lon="7.00226">
        <ele>691.4</ele>
        <time>2022-07-03T12:34:23.000Z</time>
      </trkpt>
      <trkpt lat="48.00152" lon="7.00215">
        <ele>691.4</ele>
        <time>2022-07-03T12:34:32.015Z</time>
      </trkpt>
      <trkpt lat="48.00142" lon="7.00219">
        <ele>688.3</ele>
        <time>2022-07-03T12:34:42.000Z</time>
      </trkpt>
      <trkpt lat="48.00133" lon="7.00238">
        <ele>685</ele>
        <time>2022-07-03T12:34:51.096Z</time>
      </trkpt>
      <trkpt lat="48.00136" lon="7.00255">
        <ele>683.3</ele>
        <time>2022-07-03T12:35:00.699Z</time>
      </trkpt>
      <trkpt lat="48.0014" lon="7.00269">
        <ele>681.6</ele>
        <time>2022-07-03T12:35:10.016Z</time>
      </trkpt>
      <trkpt lat="48.00144" lon="7.00287">
        <ele>680.3</ele>
        <time>2022-07-03T12:35:19.478Z</time>
      </trkpt>
      <trkpt lat="48.00145" lon="7.00302">
        <ele>678.8</ele>
        <time>2022-07-03T12:35:28.538Z</time>
      </trkpt>
      <trkpt lat="48.00145" lon="7.00315">
        <ele>676.7</ele>
        <time>2022-07-03T12:35:37.839Z</time>
      </trkpt>
      <trkpt lat="48.00143" lon="7.0033">
        <ele>673.6</ele>
        <time>2022-07-03T12:35:47.118Z</time>
      </trkpt>
      <trkpt lat="48.00147" lon="7.00346">
        <ele>672.9</ele>
        <time>2022-07-03T12:35:56.598Z</time>
      </trkpt>
      <trkpt lat="48.00151" lon="7.00356">
        <ele>672.6</ele>
        <time>2022-07-03T12:36:05.818Z</time>
      </trkpt>
      <trkpt lat="48.00152" lon="7.00369">
        <ele>671.1</ele>
        <time>2022-07-03T12:36:15.000Z</time>
      </trkpt>
      <trkpt lat="48.00159" lon="7.00387">
        <ele>671</ele>
        <time>2022-07-03T12:36:24.598Z</time>
      </trkpt>
      <trkpt lat="48.00166" lon="7.00402">
        <ele>670.3</ele>
        <time>2022-07-03T12:36:33.976Z</time>
      </trkpt>
      <trkpt lat="48.00173" lon="7.00418">
        <ele>669</ele>
        <time>2022-07-03T12:36:43.000Z</time>
      </trkpt>
      <trkpt lat="48.00175" lon="7.00431">
        <ele>666.5</ele>
        <time>2022-07-03T12:36:52.660Z</time>
      </trkpt>
      <trkpt lat="48.00176" lon="7.00446">
        <ele>663.5</ele>
        <time>2022-07-03T12:37:02.059Z</time>
      </trkpt>
      <trkpt lat="48.0018" lon="7.00464">
        <ele>662.1</ele>
        <time>2022-07-03T12:37:11.857Z</time>
      </trkpt>
      <trkpt lat="48.00183" lon="7.00481">
        <ele>660.7</ele>
        <time>2022-07-03T12:37:20.898Z</time>
      </trkpt>
      <trkpt lat="48.00187" lon="7.00498">
        <ele>659.6</ele>
        <time>2022-07-03T12:37:30.000Z</time>
      </trkpt>
      <trkpt lat="48.00189" lon="7.00515">
        <ele>657.5</ele>
        <time>2022-07-03T12:37:39.967Z</time>
      </trkpt>
      <trkpt lat="48.00189" lon="7.00529">
        <ele>655.3</ele>
        <time>2022-07-03T12:37:49.481Z</time>
      </trkpt>
      <trkpt lat="48.0019" lon="7.00546">
        <ele>654.4</ele>
        <time>2022-07-03T12:37:59.080Z</time>
      </trkpt>
      <trkpt lat="48.00191" lon="7.00564">
        <ele>652.9</ele>
        <time>2022-07-03T12:38:08.715Z</time>
      </trkpt>
      <trkpt lat="48.00194" lon="7.0058">
        <ele>651.4</ele>
        <time>2022-07-03T12:38:18.000Z</time>
      </trkpt>
      <trkpt lat="48.00192" lon="7.00599">
        <ele>649.8</ele>
        <time>2022-07-03T12:38:27.696Z</time>
      </trkpt>
      <trkpt lat="48.00189" lon="7.00615">
        <ele>648.6</ele>
        <time>2022-07-03T12:38:37.116Z</time>
      </trkpt>
      <trkpt lat="48.00187" lon="7.00626">
        <ele>648.1</ele>
        <time>2022-07-03T12:38:46.515Z</time>
      </trkpt>
      <trkpt lat="48.00187" lon="7.00628">
        <ele>648</ele>
        <time>2022-07-03T12:38:55.558Z</time>
      </trkpt>
      <trkpt lat="48.00186" lon="7.00642">
        <ele>647.2</ele>
        <time>2022-07-03T12:39:04.783Z</time>
      </trkpt>
      <trkpt lat="48.00187" lon="7.00662">
        <ele>645.8</ele>
        <time>2022-07-03T12:39:14.096Z</time>
      </trkpt>
      <trkpt lat="48.00186" lon="7.00678">
        <ele>645</ele>
        <time>2022-07-03T12:39:23.599Z</time>
      </trkpt>
      <trkpt lat="48.00187" lon="7.00694">
        <ele>644.5</ele>
        <time>2022-07-03T12:39:33.016Z</time>
      </trkpt>
      <trkpt lat="48.00185" lon="7.00713">
        <ele>643.2</ele>
        <time>2022-07-03T12:39:42.338Z</time>
      </trkpt>
      <trkpt lat="48.00189" lon="7.00731">
        <ele>642.5</ele>
        <time>2022-07-03T12:39:51.399Z</time>
      </trkpt>
      <trkpt lat="48.00189" lon="7.00754">
        <ele>641.5</ele>
        <time>2022-07-03T12:40:00.719Z</time>
      </trkpt>
      <trkpt lat="48.00191" lon="7.0077">
        <ele>640.5</ele>
        <time>2022-07-03T12:40:10.000Z</time>
      </trkpt>
      <trkpt lat="48.00191" lon="7.00787">
        <ele>639.3</ele>
        <time>2022-07-03T12:40:19.660Z</time>
      </trkpt>
      <trkpt lat="48.00189" lon="7.008">
        <ele>638.4</ele>
        <time>2022-07-03T12:40:28.819Z</time>
      </trkpt>
      <trkpt lat="48.00186" lon="7.00814">
        <ele>637.7</ele>
        <time>2022-07-03T12:40:38.000Z</time>
      </trkpt>
      <trkpt lat="48.00185" lon="7.0083">
        <ele>637.1</ele>
        <time>2022-07-03T12:40:47.968Z</time>
      </trkpt>
      <trkpt lat="48.00187" lon="7.00846">
        <ele>636.2</ele>
        <time>2022-07-03T12:40:57.357Z</time>
      </trkpt>
      <trkpt lat="48.00186" lon="7.00855">
        <ele>635.6</ele>
        <time>2022-07-03T12:41:07.000Z</time>
      </trkpt>
      <trkpt lat="48.00192" lon="7.00882">
        <ele>633.9</ele>
        <time>2022-07-03T12:41:16.781Z</time>
      </trkpt>
      <trkpt lat="48.00197" lon="7.00902">
        <ele>632.7</ele>
        <time>2022-07-03T12:41:25.979Z</time>
      </trkpt>
      <trkpt lat="48.00202" lon="7.00924">
        <ele>632.2</ele>
        <time>2022-07-03T12:41:35.000Z</time>
      </trkpt>
      <trkpt lat="48.00203" lon="7.00944">
        <ele>631.3</ele>
        <time>2022-07-03T12:41:45.000Z</time>
      </trkpt>
      <trkpt lat="48.00206" lon="7.0096">
        <ele>630.4</ele>
        <time>2022-07-03T12:41:54.118Z</time>
      </trkpt>
      <trkpt lat="48.0021" lon="7.00977">
        <ele>629.3</ele>
        <time>2022-07-03T12:42:03.952Z</time>
      </trkpt>
      <trkpt lat="48.00211" lon="7.00991">
        <ele>628.7</ele>
        <time>2022-07-03T12:42:13.000Z</time>
      </trkpt>
      <trkpt lat="48.00208" lon="7.01011">
        <ele>628.9</ele>
        <time>2022-07-03T12:42:22.599Z</time>
      </trkpt>
      <trkpt lat="48.0021" lon="7.0103">
        <ele>629.3</ele>
        <time>2022-07-03T12:42:31.968Z</time>
      </trkpt>
      <trkpt lat="48.00214" lon="7.01048">
        <ele>628</ele>
        <time>2022-07-03T12:42:41.000Z</time>
      </trkpt>
      <trkpt lat="48.00216" lon="7.01065">
        <ele>626.8</ele>
        <time>2022-07-03T12:42:50.656Z</time>
      </trkpt>
      <trkpt lat="48.0022" lon="7.0108">
        <ele>624</ele>
        <time>2022-07-03T12:42:59.977Z</time>
      </trkpt>
      <trkpt lat="48.00227" lon="7.011">
        <ele>623.4</ele>
        <time>2022-07-03T12:43:09.000Z</time>
      </trkpt>
      <trkpt lat="48.00232" lon="7.01115">
        <ele>623.6</ele>
        <time>2022-07-03T12:43:18.459Z</time>
      </trkpt>
      <trkpt lat="48.00236" lon="7.01133">
        <ele>623</ele>
        <time>2022-07-03T12:43:27.760Z</time>
      </trkpt>
      <trkpt lat="48.0024" lon="7.01144">
        <ele>622.2</ele>
        <time>2022-07-03T12:43:36.976Z</time>
      </trkpt>
      <trkpt lat="48.00243" lon="7.01159">
        <ele>620.9</ele>
        <time>2022-07-03T12:43:46.000Z</time>
      </trkpt>
      <trkpt lat="48.00239" lon="7.0118">
        <ele>620.4</ele>
        <time>2022-07-03T12:43:55.442Z</time>
      </trkpt>
      <trkpt lat="48.0025" lon="7.01194">
        <ele>618.1</ele>
        <time>2022-07-03T12:44:04.678Z</time>
      </trkpt>
      <trkpt lat="48.00255" lon="7.0121">
        <ele>617.9</ele>
        <time>2022-07-03T12:44:14.019Z</time>
      </trkpt>
      <trkpt lat="48.0026" lon="7.01227">
        <ele>617.5</ele>
        <time>2022-07-03T12:44:23.759Z</time>
      </trkpt>
      <trkpt lat="48.00266" lon="7.01241">
        <ele>617.3</ele>
        <time>2022-07-03T12:44:33.082Z</time>
      </trkpt>
      <trkpt lat="48.00272" lon="7.01254">
        <ele>616</ele>
        <time>2022-07-03T12:44:42.718Z</time>
      </trkpt>
      <trkpt lat="48.00276" lon="7.01268">
        <ele>614.9</ele>
        <time>2022-07-03T12:44:52.281Z</time>
      </trkpt>
      <trkpt lat="48.00282" lon="7.01279">
        <ele>614.4</ele>
        <time>2022-07-03T12:45:01.479Z</time>
      </trkpt>
      <trkpt lat="48.00286" lon="7.01293">
        <ele>613.8</ele>
        <time>2022-07-03T12:45:10.880Z</time>
      </trkpt>
      <trkpt lat="48.00287" lon="7.01311">
        <ele>613</ele>
        <time>2022-07-03T12:45:20.000Z</time>
      </trkpt>
      <trkpt lat="48.00294" lon="7.01325">
        <ele>612.5</ele>
        <time>2022-07-03T12:45:29.060Z</time>
      </trkpt>
      <trkpt lat="48.00305" lon="7.01336">
        <ele>610.9</ele>
        <time>2022-07-03T12:45:38.858Z</time>
      </trkpt>
      <trkpt lat="48.00306" lon="7.01348">
        <ele>610</ele>
        <time>2022-07-03T12:45:48.056Z</time>
      </trkpt>
      <trkpt lat="48.00315" lon="7.01359">
        <ele>609.6</ele>
        <time>2022-07-03T12:45:58.000Z</time>
      </trkpt>
      <trkpt lat="48.00322" lon="7.01369">
        <ele>609.1</ele>
        <time>2022-07-03T12:46:07.057Z</time>
      </trkpt>
      <trkpt lat="48.00331" lon="7.01381">
        <ele>607.9</ele>
        <time>2022-07-03T12:46:17.000Z</time>
      </trkpt>
      <trkpt lat="48.0034" lon="7.01394">
        <ele>607.3</ele>
        <time>2022-07-03T12:46:26.739Z</time>
      </trkpt>
      <trkpt lat="48.00347" lon="7.01415">
        <ele>605.6</ele>
        <time>2022-07-03T12:46:35.997Z</time>
      </trkpt>
      <trkpt lat="48.00351" lon="7.01426">
        <ele>605.2</ele>
        <time>2022-07-03T12:46:45.000Z</time>
      </trkpt>
      <trkpt lat="48.00352" lon="7.01441">
        <ele>603.9</ele>
        <time>2022-07-03T12:46:54.856Z</time>
      </trkpt>
      <trkpt lat="48.00357" lon="7.01454">
        <ele>603</ele>
        <time>2022-07-03T12:47:04.000Z</time>
      </trkpt>
      <trkpt lat="48.0037" lon="7.01467">
        <ele>602.5</ele>
        <time>2022-07-03T12:47:14.000Z</time>
      </trkpt>
      <trkpt lat="48.00382" lon="7.01485">
        <ele>601.9</ele>
        <time>2022-07-03T12:47:23.501Z</time>
      </trkpt>
      <trkpt lat="48.00387" lon="7.01495">
        <ele>600.2</ele>
        <time>2022-07-03T12:47:32.899Z</time>
      </trkpt>
      <trkpt lat="48.004" lon="7.01506">
        <ele>601.3</ele>
        <time>2022-07-03T12:47:42.898Z</time>
      </trkpt>
      <trkpt lat="48.00408" lon="7.01512">
        <ele>601.6</ele>
        <time>2022-07-03T12:47:52.096Z</time>
      </trkpt>
      <trkpt lat="48.00412" lon="7.01525">
        <ele>598.9</ele>
        <time>2022-07-03T12:48:02.038Z</time>
      </trkpt>
      <trkpt lat="48.00423" lon="7.01542">
        <ele>598</ele>
        <time>2022-07-03T12:48:11.943Z</time>
      </trkpt>
      <trkpt lat="48.00433" lon="7.01562">
        <ele>597</ele>
        <time>2022-07-03T12:48:21.818Z</time>
      </trkpt>
      <trkpt lat="48.00446" lon="7.01577">
        <ele>594.4</ele>
        <time>2022-07-03T12:48:31.058Z</time>
      </trkpt>
      <trkpt lat="48.00451" lon="7.01586">
        <ele>593.6</ele>
        <time>2022-07-03T12:48:40.340Z</time>
      </trkpt>
      <trkpt lat="48.0046" lon="7.01602">
        <ele>593.2</ele>
        <time>2022-07-03T12:48:49.416Z</time>
      </trkpt>
      <trkpt lat="48.00468" lon="7.0161">
        <ele>592</ele>
        <time>2022-07-03T12:48:59.000Z</time>
      </trkpt>
      <trkpt lat="48.00476" lon="7.01636">
        <ele>590.3</ele>
        <time>2022-07-03T12:49:08.860Z</time>
      </trkpt>
      <trkpt lat="48.00481" lon="7.01658">
        <ele>589.6</ele>
        <time>2022-07-03T12:49:18.019Z</time>
      </trkpt>
      <trkpt lat="48.00481" lon="7.0167">
        <ele>589.2</ele>
        <time>2022-07-03T12:49:27.559Z</time>
      </trkpt>
      <trkpt lat="48.00483" lon="7.01674">
        <ele>589.1</ele>
        <time>2022-07-03T12:49:36.678Z</time>
      </trkpt>
      <trkpt lat="48.00484" lon="7.01687">
        <ele>588.7</ele>
        <time>2022-07-03T12:49:46.000Z</time>
      </trkpt>
      <trkpt lat="48.00494" lon="7.01714">
        <ele>587.6</ele>
        <time>2022-07-03T12:49:56.017Z</time>
      </trkpt>
      <trkpt lat="48.00501" lon="7.01737">
        <ele>587.5</ele>
        <time>2022-07-03T12:50:05.500Z</time>
      </trkpt>
      <trkpt lat="48.0049" lon="7.01751">
        <ele>585.5</ele>
        <time>2022-07-03T12:50:14.537Z</time>
      </trkpt>
      <trkpt lat="48.00485" lon="7.01768">
        <ele>584.2</ele>
        <time>2022-07-03T12:50:23.640Z</time>
      </trkpt>
      <trkpt lat="48.00487" lon="7.01785">
        <ele>583.8</ele>
        <time>2022-07-03T12:50:32.971Z</time>
      </trkpt>
      <trkpt lat="48.00492" lon="7.01799">
        <ele>583.4</ele>
        <time>2022-07-03T12:50:42.100Z</time>
      </trkpt>
      <trkpt lat="48.00498" lon="7.01813">
        <ele>582.3</ele>
        <time>2022-07-03T12:50:51.821Z</time>
      </trkpt>
      <trkpt lat="48.00501" lon="7.01831">
        <ele>580.3</ele>
        <time>2022-07-03T12:51:01.000Z</time>
      </trkpt>
      <trkpt lat="48.00506" lon="7.01841">
        <ele>579.8</ele>
        <time>2022-07-03T12:51:10.099Z</time>
      </trkpt>
      <trkpt lat="48.00519" lon="7.01853">
        <ele>579.9</ele>
        <time>2022-07-03T12:51:19.839Z</time>
      </trkpt>
      <trkpt lat="48.00523" lon="7.01864">
        <ele>579.3</ele>
        <time>2022-07-03T12:51:29.020Z</time>
      </trkpt>
      <trkpt lat="48.00524" lon="7.01884">
        <ele>578</ele>
        <time>2022-07-03T12:51:38.717Z</time>
      </trkpt>
      <trkpt lat="48.00527" lon="7.01904">
        <ele>576.9</ele>
        <time>2022-07-03T12:51:47.841Z</time>
      </trkpt>
      <trkpt lat="48.00531" lon="7.01916">
        <ele>576.1</ele>
        <time>2022-07-03T12:51:56.978Z</time>
      </trkpt>
      <trkpt lat="48.00535" lon="7.01931">
        <ele>575</ele>
        <time>2022-07-03T12:52:06.000Z</time>
      </trkpt>
      <trkpt lat="48.0054" lon="7.01947">
        <ele>574.1</ele>
        <time>2022-07-03T12:52:15.115Z</time>
      </trkpt>
      <trkpt lat="48.00535" lon="7.01963">
        <ele>572.9</ele>
        <time>2022-07-03T12:52:24.555Z</time>
      </trkpt>
      <trkpt lat="48.0054" lon="7.01978">
        <ele>572.6</ele>
        <time>2022-07-03T12:52:33.720Z</time>
      </trkpt>
      <trkpt lat="48.00549" lon="7.02005">
        <ele>572.3</ele>
        <time>2022-07-03T12:52:42.908Z</time>
      </trkpt>
      <trkpt lat="48.00551" lon="7.02028">
        <ele>571.7</ele>
        <time>2022-07-03T12:52:52.159Z</time>
      </trkpt>
      <trkpt lat="48.00559" lon="7.02046">
        <ele>571.2</ele>
        <time>2022-07-03T12:53:01.775Z</time>
      </trkpt>
      <trkpt lat="48.00566" lon="7.0206">
        <ele>570.5</ele>
        <time>2022-07-03T12:53:11.001Z</time>
      </trkpt>
      <trkpt lat="48.00576" lon="7.02075">
        <ele>570.1</ele>
        <time>2022-07-03T12:53:20.971Z</time>
      </trkpt>
      <trkpt lat="48.0058" lon="7.02085">
        <ele>569.9</ele>
        <time>2022-07-03T12:53:30.058Z</time>
      </trkpt>
      <trkpt lat="48.00583" lon="7.02102">
        <ele>569.3</ele>
        <time>2022-07-03T12:53:39.121Z</time>
      </trkpt>
      <trkpt lat="48.00584" lon="7.02118">
        <ele>568.8</ele>
        <time>2022-07-03T12:53:48.836Z</time>
      </trkpt>
      <trkpt lat="48.0058" lon="7.02131">
        <ele>568.3</ele>
        <time>2022-07-03T12:53:58.015Z</time>
      </trkpt>
      <trkpt lat="48.00579" lon="7.02152">
        <ele>567.1</ele>
        <time>2022-07-03T12:54:07.819Z</time>
      </trkpt>
      <trkpt lat="48.00578" lon="7.02169">
        <ele>566.1</ele>
        <time>2022-07-03T12:54:16.837Z</time>
      </trkpt>
      <trkpt lat="48.00575" lon="7.02187">
        <ele>565.6</ele>
        <time>2022-07-03T12:54:25.858Z</time>
      </trkpt>
      <trkpt lat="48.00575" lon="7.0221">
        <ele>565</ele>
        <time>2022-07-03T12:54:35.898Z</time>
      </trkpt>
      <trkpt lat="48.00581" lon="7.02226">
        <ele>564.8</ele>
        <time>2022-07-03T12:54:45.178Z</time>
      </trkpt>
      <trkpt lat="48.00589" lon="7.02243">
        <ele>564.2</ele>
        <time>2022-07-03T12:54:54.236Z</time>
      </trkpt>
      <trkpt lat="48.00591" lon="7.02259">
        <ele>563.7</ele>
        <time>2022-07-03T12:55:03.398Z</time>
      </trkpt>
      <trkpt lat="48.00595" lon="7.02275">
        <ele>563.1</ele>
        <time>2022-07-03T12:55:12.520Z</time>
      </trkpt>
      <trkpt lat="48.00597" lon="7.02294">
        <ele>562.4</ele>
        <time>2022-07-03T12:55:21.679Z</time>
      </trkpt>
      <trkpt lat="48.00598" lon="7.02312">
        <ele>561.8</ele>
        <time>2022-07-03T12:55:30.698Z</time>
      </trkpt>
      <trkpt lat="48.00601" lon="7.0233">
        <ele>561.1</ele>
        <time>2022-07-03T12:55:39.936Z</time>
      </trkpt>
      <trkpt lat="48.00601" lon="7.02405">
        <ele>559.1</ele>
        <time>2022-07-03T12:55:49.000Z</time>
      </trkpt>
      <trkpt lat="48.00599" lon="7.02525">
        <ele>561.7</ele>
        <time>2022-07-03T12:55:58.940Z</time>
      </trkpt>
      <trkpt lat="48.00603" lon="7.02531">
        <ele>562.1</ele>
        <time>2022-07-03T12:56:08.000Z</time>
      </trkpt>
      <trkpt lat="48.00596" lon="7.02515">
        <ele>561.1</ele>
        <time>2022-07-03T12:56:18.038Z</time>
      </trkpt>
      <trkpt lat="48.00597" lon="7.02473">
        <ele>559.9</ele>
        <time>2022-07-03T12:56:27.776Z</time>
      </trkpt>
      <trkpt lat="48.00599" lon="7.02472">
        <ele>560.4</ele>
        <time>2022-07-03T12:56:37.016Z</time>
      </trkpt>
      <trkpt lat="48.00597" lon="7.02465">
        <ele>559.7</ele>
        <time>2022-07-03T12:56:46.799Z</time>
      </trkpt>
      <trkpt lat="48.00595" lon="7.02474">
        <ele>559.6</ele>
        <time>2022-07-03T12:56:56.000Z</time>
      </trkpt>
      <trkpt lat="48.00594" lon="7.02487">
        <ele>560</ele>
        <time>2022-07-03T12:57:06.063Z</time>
      </trkpt>
      <trkpt lat="48.00588" lon="7.02505">
        <ele>559.8</ele>
        <time>2022-07-03T12:57:15.978Z</time>
      </trkpt>
      <trkpt lat="48.00589" lon="7.02524">
        <ele>560.5</ele>
        <time>2022-07-03T12:57:25.000Z</time>
      </trkpt>
      <trkpt lat="48.00589" lon="7.02537">
        <ele>560.6</ele>
        <time>2022-07-03T12:57:34.320Z</time>
      </trkpt>
      <trkpt lat="48.0059" lon="7.02553">
        <ele>560.7</ele>
        <time>2022-07-03T12:57:43.615Z</time>
      </trkpt>
      <trkpt lat="48.00587" lon="7.02565">
        <ele>560.4</ele>
        <time>2022-07-03T12:57:53.077Z</time>
      </trkpt>
      <trkpt lat="48.00585" lon="7.02561">
        <ele>560.2</ele>
        <time>2022-07-03T12:57:55.757Z</time>
      </trkpt>
    </trkseg>
  </trk>
</gpx>